GFSCGP_con_3kmhel_000.txt.gz
Helicity
15 51 56 123 77 85 113 104 46 70 102 29 4 24 122 60 16 29 35 55 67 146 223 306 278 180 153 105 81 161 217 250 143 185 215 237 261 282 271 207 217 163 137 192
23 30 53 62 43 48 79 76 22 77 71 17 -4 -8 138 106 92 81 70 122 151 197 188 195 209 273 293 258 245 228 183 242 316 334 309 212 287 222 160 182 218 212 241 189
66 66 30 62 39 69 31 74 90 83 48 -10 -1 26 184 149 89 156 285 194 171 211 211 187 227 250 261 302 268 281 340 374 396 394 390 401 267 229 194 153 149 228 218 147
46 45 38 26 39 68 72 75 42 22 17 -11 79 19 118 115 154 184 230 235 191 149 127 142 200 151 154 185 220 243 230 194 259 287 197 159 127 76 102 206 176 112 124 149
26 40 53 53 60 53 99 35 30 21 15 26 -5 29 186 87 117 183 238 143 184 212 206 254 194 134 120 111 148 172 176 188 150 132 122 49 95 131 129 127 137 166 280 238
68 40 72 61 27 34 30 14 17 -0 7 60 -19 41 161 57 150 161 163 129 139 119 136 144 89 79 81 73 115 116 97 86 76 6 39 127 85 55 85 110 243 304 198 167
26 40 29 32 14 12 36 44 39 43 58 33 91 53 157 175 299 225 159 190 185 127 137 95 135 185 156 103 57 49 95 97 94 155 175 100 78 195 278 281 264 202 157 147
31 39 10 6 21 -8 5 13 42 64 76 71 38 55 205 210 149 146 131 122 56 84 65 102 100 75 102 90 62 104 122 77 110 185 224 250 327 325 313 279 183 148 127 110
8 17 22 15 -0 5 9 40 14 47 52 64 12 146 213 140 75 88 41 11 51 91 103 84 10 72 88 99 93 147 139 130 84 194 307 415 411 332 235 181 123 82 119 163
-9 13 -10 7 21 8 13 14 28 66 76 77 73 45 95 78 53 51 149 123 106 63 55 71 36 91 111 168 185 179 209 274 326 342 421 353 178 177 149 124 85 209 208 171
53 9 2 22 11 51 54 97 65 51 94 109 117 97 76 128 152 165 104 71 109 146 101 56 114 206 206 204 191 171 290 401 387 402 358 175 162 135 126 132 244 255 227 173
1 3 4 45 42 34 70 102 84 100 129 170 143 74 128 166 236 94 91 78 136 234 250 240 189 167 152 162 192 279 335 268 313 226 193 161 144 165 185 208 215 183 111 80
3 4 1 86 79 99 68 152 140 190 121 107 155 60 32 127 -5 85 41 117 281 185 149 129 109 133 198 196 171 139 173 209 209 164 136 140 174 221 215 166 158 125 105 113
20 22 43 57 62 95 112 114 100 123 203 113 69 17 -40 42 88 111 169 242 245 213 218 215 188 187 179 161 123 165 154 181 139 148 150 132 227 257 175 141 184 196 152 148
39 56 45 34 45 74 92 83 78 81 95 133 76 42 21 103 151 260 259 226 178 180 223 220 129 147 170 142 143 112 126 100 147 115 128 172 255 299 237 287 236 218 163 150
55 58 49 45 71 95 66 62 57 47 53 59 45 -2 58 204 241 205 161 158 184 272 212 138 143 135 155 159 127 110 109 89 149 167 143 191 220 183 341 258 213 204 172 180
70 66 67 75 76 56 96 103 104 147 67 116 109 44 122 200 216 165 157 190 188 156 132 101 89 154 216 177 122 125 109 85 105 135 182 278 260 178 186 116 170 223 158 164
95 96 94 101 93 121 140 79 58 93 80 41 43 104 164 221 182 128 257 262 213 129 102 56 143 160 164 125 109 125 144 123 61 57 111 206 210 171 48 217 216 165 131 156
88 82 122 125 130 92 26 158 180 173 63 68 200 218 193 147 85 134 245 248 137 67 22 123 104 157 126 126 143 177 148 106 89 52 175 122 175 65 191 203 180 108 140 119
112 117 114 157 152 132 130 220 192 64 105 239 208 155 109 84 122 180 213 132 94 82 97 111 122 106 125 178 186 165 153 122 74 89 109 187 178 96 164 138 159 158 127 131
168 148 129 128 140 93 72 125 112 198 243 176 137 123 104 129 161 124 95 139 94 86 110 89 98 149 196 184 189 167 133 101 144 140 130 136 91 87 101 127 170 133 146 142
157 137 136 136 146 101 164 220 242 234 183 186 147 81 96 115 103 119 176 127 95 128 131 112 152 182 205 161 144 167 166 168 172 122 127 91 58 61 109 171 161 142 126 204
172 139 172 175 142 92 173 207 170 186 147 205 128 151 144 100 74 161 151 98 116 151 136 150 169 198 138 133 142 192 202 207 176 118 104 86 91 121 167 119 90 109 193 188
203 106 231 212 172 123 159 205 324 181 177 200 190 174 74 63 173 109 99 139 175 178 162 182 190 141 182 177 166 202 212 211 182 141 105 87 102 117 84 92 97 161 167 136
181 161 154 155 126 150 324 358 272 214 183 148 165 70 105 143 108 149 191 171 157 151 202 186 159 176 197 163 164 206 186 142 127 109 91 95 102 77 71 70 110 136 146 129
164 137 170 165 181 283 349 278 195 185 184 155 194 165 131 132 189 172 189 187 181 175 154 160 159 160 152 173 187 147 163 133 138 103 103 83 70 68 61 75 91 124 126 107

GFSCGP_con_3kmhel_003.txt.gz
Helicity
41 10 68 41 56 56 48 68 80 104 81 37 9 63 140 189 155 160 154 244 343 395 336 426 480 388 317 220 288 214 242 195 213 409 289 291 296 267 342 344 152 111 115 135
26 47 35 32 19 47 41 89 72 22 46 60 44 94 158 266 287 250 126 165 201 231 244 319 417 454 413 352 341 366 407 456 394 362 291 281 215 189 161 85 122 202 192 192
45 25 22 83 56 112 106 59 98 72 56 -10 14 133 300 282 324 420 375 205 117 114 192 260 243 268 281 270 184 185 182 224 254 236 205 217 214 203 191 164 150 108 174 254
14 20 35 52 48 101 67 73 58 44 45 25 21 134 266 350 405 452 425 414 309 214 162 124 129 159 183 157 113 85 84 109 134 153 191 195 166 148 84 73 116 217 309 309
39 62 95 65 24 48 27 22 16 29 21 45 53 62 224 254 284 296 264 163 128 196 179 146 92 78 87 103 86 60 85 115 126 84 73 83 46 52 103 186 256 245 246 207
27 25 38 46 43 50 39 62 55 36 60 56 22 62 315 327 268 315 222 203 188 159 128 127 119 81 37 19 36 46 35 -4 35 64 93 108 123 171 245 227 213 183 143 132
15 21 -4 35 27 37 44 73 66 77 69 57 31 85 93 214 131 174 293 241 188 158 132 149 132 87 56 41 4 22 59 68 95 85 165 254 371 387 374 320 235 168 155 141
34 36 34 42 40 1 49 12 29 40 61 41 51 124 217 268 295 206 93 41 79 60 110 115 71 67 64 76 94 158 150 130 108 107 348 459 482 415 368 392 164 117 136 90
19 -3 10 16 48 25 -7 26 14 50 17 45 60 101 136 67 82 15 4 -27 44 89 134 146 174 176 135 151 188 217 163 235 320 342 394 454 434 371 317 232 102 202 225 206
63 -3 39 30 33 35 21 22 37 39 54 37 65 57 38 135 140 138 134 155 184 139 168 227 343 240 238 241 236 241 267 266 255 332 329 289 267 146 104 216 333 288 224 202
61 -9 -13 -5 7 25 29 62 65 73 110 107 65 72 10 165 206 214 222 223 278 275 208 232 182 190 179 147 92 93 103 138 204 224 154 114 86 135 234 232 279 255 177 153
13 -8 8 1 -4 7 59 69 104 108 105 128 119 36 123 159 216 253 217 197 207 179 159 222 224 155 70 29 30 48 108 151 130 105 103 111 138 244 197 240 340 378 199 122
2 -9 5 -9 -10 3 26 121 144 167 113 122 152 60 19 74 70 120 205 205 227 253 278 232 159 157 140 87 78 122 158 142 95 102 140 173 232 230 166 293 333 381 171 119
34 26 39 46 49 65 71 79 130 245 251 170 165 75 15 75 119 257 302 328 305 297 209 187 157 137 124 127 169 182 152 121 86 103 161 151 126 162 256 460 447 291 152 145
47 38 34 20 17 46 54 45 56 98 129 256 119 120 243 126 224 204 235 246 243 182 122 148 135 111 142 192 185 136 111 93 67 62 98 186 197 231 392 402 358 199 63 146
57 44 49 49 78 69 45 1 -6 42 50 65 129 187 110 126 212 223 245 216 171 115 74 139 127 153 181 174 146 163 186 116 101 94 85 92 214 230 173 170 156 57 111 155
70 68 69 51 60 62 100 90 92 97 108 164 169 214 289 326 273 171 144 98 69 79 137 106 123 199 213 186 202 217 147 119 102 107 83 68 79 44 49 97 34 159 130 154
93 102 91 77 97 113 92 97 118 167 219 189 342 410 376 262 121 43 84 57 114 112 112 154 205 219 176 168 195 135 96 104 104 109 95 48 59 48 84 102 52 129 119 121
127 122 121 122 111 84 127 199 127 156 182 168 327 332 271 176 50 54 41 89 114 135 136 165 160 121 152 172 130 114 127 124 122 138 110 74 65 95 125 141 69 103 125 128
153 145 137 153 145 93 142 245 175 172 188 244 224 200 148 85 103 38 120 116 103 87 128 170 131 158 228 173 128 151 152 130 155 160 137 124 92 119 118 27 74 115 138 130
177 162 155 158 149 89 75 149 149 243 150 233 215 172 110 92 121 104 104 142 119 130 155 150 188 218 193 150 156 196 171 160 180 167 133 107 109 127 135 104 120 124 112 181
138 150 134 178 163 100 84 193 232 212 281 236 215 171 137 122 118 135 213 167 106 142 170 197 227 222 165 154 230 201 177 175 167 141 132 116 96 116 97 103 104 99 156 153
193 142 136 196 144 101 126 182 309 298 260 270 255 203 177 168 232 250 196 116 182 205 200 231 231 185 172 204 189 184 187 209 147 108 123 114 106 101 85 93 93 101 112 110
170 193 231 266 170 154 240 313 321 308 281 278 187 131 168 228 271 224 217 252 256 242 212 177 162 159 166 144 140 159 183 183 113 118 95 92 100 89 79 62 61 85 81 68
129 217 213 221 216 195 302 298 311 284 242 189 221 189 239 288 312 315 279 250 218 161 125 122 133 141 126 144 158 152 151 195 165 112 87 83 81 72 62 85 95 66 52 49
180 174 200 180 151 212 234 236 234 235 185 174 192 277 309 352 311 259 216 176 137 133 127 129 129 123 122 154 143 102 147 203 175 113 86 80 76 73 84 100 95 68 48 60

GFSCGP_con_3kmhel_006.txt.gz
Helicity
62 17 41 42 14 13 8 9 29 94 16 17 108 163 225 225 270 303 343 345 413 484 491 403 400 363 369 327 308 197 44 91 216 278 294 243 221 174 263 278 223 153 120 127
47 62 30 51 23 10 22 56 115 108 69 37 181 319 267 303 306 288 337 373 299 362 412 373 382 347 279 269 272 233 200 217 226 206 168 174 182 223 180 154 166 252 230 222
24 26 51 54 88 76 121 107 70 51 28 99 178 310 321 369 385 412 371 293 222 181 178 175 178 174 203 205 107 81 95 137 170 185 158 165 145 131 173 178 171 172 186 159
47 70 52 68 61 67 49 98 72 68 65 72 28 233 279 309 396 344 305 221 174 138 63 47 52 94 99 26 -3 36 46 62 76 69 84 99 110 135 123 121 105 150 170 197
33 55 70 49 34 43 32 55 57 63 60 58 120 225 259 208 302 239 180 149 34 -79 -9 -11 -16 10 38 54 46 27 23 38 30 21 57 60 70 94 115 163 219 264 213 210
42 18 36 36 60 79 75 66 84 85 91 93 111 153 194 272 333 266 174 130 31 43 64 60 41 69 49 14 14 35 24 17 -3 27 42 56 76 148 236 239 267 283 280 262
65 61 61 63 69 84 87 74 91 101 106 96 59 116 115 231 236 230 225 121 57 53 90 91 92 62 44 50 50 54 47 46 84 102 150 207 286 357 379 406 340 215 289 172
24 42 43 63 30 17 28 22 27 35 45 50 106 112 83 179 236 115 129 67 65 146 95 97 146 112 170 224 223 199 170 178 233 290 360 385 379 338 276 278 286 151 105 210
33 36 39 29 57 13 21 26 15 39 25 58 70 135 74 108 146 195 48 67 139 212 275 259 248 249 300 257 202 173 155 130 147 173 184 200 208 195 157 47 67 61 184 198
33 28 57 63 68 69 32 6 3 9 45 89 96 111 117 113 189 276 238 214 312 353 335 329 320 252 249 180 125 94 116 134 104 146 192 184 122 90 71 118 141 221 248 240
54 33 54 36 24 10 1 -11 20 44 59 85 150 149 70 185 258 300 314 314 319 315 335 320 261 220 201 132 90 73 139 124 86 130 156 110 97 103 129 185 250 257 283 155
65 27 -3 5 -1 -1 20 36 39 59 57 82 119 138 87 189 190 135 155 229 276 373 333 237 190 161 97 122 176 191 196 179 159 110 93 94 99 108 164 241 272 228 198 232
73 -2 -0 -31 -6 -1 30 41 65 88 69 90 126 115 108 150 174 224 311 321 355 267 223 185 130 90 164 238 226 199 190 152 97 62 54 48 85 143 185 217 243 322 349 470
59 32 5 15 13 24 37 65 95 133 149 150 153 125 229 241 319 354 325 270 308 255 221 179 140 122 103 190 234 222 174 107 66 61 47 48 43 67 132 251 298 315 199 98
54 42 50 53 51 45 48 73 96 107 111 169 96 191 274 283 303 312 330 319 307 278 218 120 82 106 172 255 235 186 128 98 79 72 52 42 58 93 100 127 174 148 58 74
99 61 67 52 75 68 45 16 28 49 85 98 268 345 374 380 362 311 268 264 227 163 77 -2 28 143 218 202 167 128 115 93 69 67 76 77 81 100 102 107 108 86 100 106
97 93 91 55 86 79 87 71 84 148 129 135 213 260 367 354 289 225 195 170 120 62 -54 -19 90 150 165 154 146 135 101 81 78 74 61 71 76 82 78 77 72 94 83 78
100 128 114 82 111 107 103 94 117 202 170 212 275 279 277 246 208 177 98 59 2 -54 -49 74 144 154 144 157 157 132 98 88 82 79 81 88 88 79 87 117 126 104 74 76
122 129 129 105 99 95 131 179 141 163 146 158 221 240 245 183 168 118 61 10 29 77 117 108 116 146 173 157 118 121 153 137 122 105 102 94 90 89 117 108 137 93 96 113
183 178 150 125 124 79 117 166 162 168 127 142 175 203 217 244 261 132 73 134 147 135 110 136 136 164 161 164 179 197 177 171 131 108 95 97 83 99 112 136 107 90 106 142
170 175 148 187 152 117 80 176 159 230 95 131 181 215 223 220 184 136 175 159 141 149 194 201 225 217 191 176 189 202 199 174 130 122 108 113 113 104 105 104 116 119 133 180
121 150 150 206 203 119 115 241 249 141 162 201 220 233 228 221 203 193 227 215 310 283 260 256 231 204 176 193 203 197 178 148 146 128 104 105 115 111 109 100 112 135 127 110
168 160 131 153 116 131 102 168 190 227 248 241 260 248 239 220 211 258 342 381 282 248 228 201 191 177 174 166 173 179 155 137 147 131 108 106 105 103 103 107 108 110 99 73
128 201 183 213 138 142 147 246 264 263 256 275 242 227 242 243 303 413 363 292 258 223 190 151 153 153 146 145 148 150 139 141 164 157 125 114 105 85 84 89 103 99 77 51
92 180 160 190 212 266 259 233 251 268 258 233 216 200 225 371 370 299 263 247 210 153 124 129 148 147 144 145 139 124 133 126 155 162 139 107 91 85 81 103 106 77 49 46
163 158 192 167 130 150 155 170 234 249 213 221 239 420 413 353 280 241 228 180 131 116 136 150 138 145 152 143 113 101 134 156 158 131 108 102 89 76 79 88 89 55 35 43

GFSCGP_con_3kmhel_009.txt.gz
Helicity
84 56 61 75 44 22 40 30 49 16 27 105 60 148 182 218 215 312 354 399 417 401 323 312 336 239 300 308 281 230 197 165 177 205 230 175 128 181 204 245 234 235 165 123
90 52 67 43 31 27 29 22 50 124 115 165 200 266 205 253 233 262 362 395 386 406 411 340 267 246 274 242 226 179 175 192 163 149 133 118 104 137 185 177 136 104 110 119
41 80 44 23 57 24 63 59 65 100 154 201 300 282 298 274 279 306 292 219 223 192 136 131 131 137 164 179 149 97 50 46 70 70 64 84 95 101 109 130 131 143 148 171
57 74 49 63 43 29 96 117 128 129 128 96 132 191 231 244 251 232 214 161 98 2 2 -38 8 72 90 62 19 42 63 67 69 55 55 59 60 72 80 87 90 133 167 184
44 43 55 49 43 61 53 100 100 92 136 169 197 215 219 247 242 179 133 61 23 -43 -24 -38 8 -4 17 23 48 58 72 76 33 40 44 34 40 101 169 203 249 259 259 301
72 42 54 40 54 60 75 78 111 114 125 154 169 211 186 240 232 203 117 65 -30 27 -85 -57 -8 7 30 54 70 77 83 78 76 84 110 144 183 218 264 276 288 268 227 216
81 77 78 85 62 72 76 79 79 81 97 92 156 173 136 60 212 102 20 -11 -9 -10 -5 11 135 160 157 138 121 136 139 139 144 186 231 268 261 216 189 200 260 231 212 253
59 76 82 93 59 48 80 58 55 24 22 56 114 105 103 153 163 24 28 66 132 162 180 289 255 238 214 191 190 177 161 167 175 180 185 213 206 221 241 228 227 187 169 158
25 43 64 66 52 26 29 52 31 64 61 64 79 138 134 195 260 218 246 263 238 213 326 404 364 293 254 213 188 181 183 202 210 181 199 195 172 185 199 160 143 121 156 167
27 51 57 71 50 60 32 16 20 37 46 56 79 126 149 183 185 167 192 278 332 374 427 398 352 294 251 220 200 205 235 269 204 170 147 145 165 145 129 138 159 187 181 205
48 38 59 57 63 42 39 11 26 25 33 54 72 79 112 197 224 218 251 305 390 397 373 398 377 297 227 173 201 210 253 224 177 162 144 147 136 123 119 142 162 177 229 273
60 45 79 51 67 52 22 11 21 40 30 64 92 74 83 206 243 296 298 288 332 421 435 392 308 220 158 167 127 150 189 170 121 96 84 78 62 66 82 94 148 250 278 314
72 75 87 82 76 58 28 36 55 63 66 65 107 74 157 265 324 321 390 386 442 416 360 291 214 165 137 94 153 192 158 115 84 87 75 54 43 58 83 96 167 247 212 164
76 69 25 7 17 43 47 61 68 81 80 85 106 132 179 263 359 396 393 381 369 329 274 220 174 130 97 110 189 138 112 83 74 73 77 66 52 65 81 91 111 154 180 181
85 48 62 72 79 61 51 66 81 97 112 160 77 149 182 302 412 410 399 360 315 260 230 225 214 104 105 154 118 112 84 74 67 91 57 48 45 50 78 101 118 137 128 126
112 55 97 78 104 91 53 54 47 64 103 123 132 134 143 294 372 374 305 286 269 255 231 173 107 127 134 87 93 94 71 77 87 73 58 51 68 81 99 106 104 98 112 105
96 90 114 70 100 96 55 72 114 113 140 169 196 141 263 266 292 284 244 239 221 180 139 113 92 53 64 90 89 85 93 116 112 96 78 84 102 103 108 110 105 109 114 145
96 134 145 96 135 120 73 100 84 130 135 151 170 213 246 237 190 215 207 212 178 141 106 57 34 54 77 103 117 119 139 144 147 119 118 126 125 130 117 115 115 120 113 88
117 137 161 146 133 135 122 143 210 179 113 135 174 184 174 229 281 195 157 168 138 98 72 93 106 101 126 138 138 159 169 168 160 164 158 150 135 141 130 117 109 119 110 107
176 192 179 180 168 113 82 136 178 188 154 151 192 186 217 303 277 177 173 217 146 123 202 152 147 182 192 168 172 176 174 190 187 179 163 143 138 134 116 104 92 112 132 148
134 168 148 170 153 129 81 189 259 250 100 136 106 163 281 275 219 198 259 206 217 285 257 229 235 204 161 170 211 192 182 194 194 175 149 152 125 119 107 111 108 107 134 169
103 133 141 211 210 156 156 309 207 122 182 102 162 212 242 205 222 240 239 331 337 304 263 243 223 196 188 190 186 184 198 190 167 155 161 155 131 130 122 112 102 117 135 145
162 152 129 143 119 134 66 125 140 176 184 170 225 259 226 258 261 264 340 361 323 264 244 216 197 179 148 159 172 192 184 167 152 153 169 168 153 131 112 109 119 126 130 121
138 149 181 207 132 108 97 113 153 182 197 230 252 279 298 289 300 369 361 311 260 218 219 178 162 139 141 155 180 184 161 136 132 130 144 166 149 109 101 104 120 127 119 102
108 152 128 145 113 130 129 147 170 217 251 288 305 273 281 339 342 333 312 249 215 191 162 142 128 139 143 158 165 144 130 118 125 124 126 135 135 110 98 86 92 88 83 99
190 178 210 178 140 165 134 134 188 265 272 270 351 365 337 362 341 273 227 193 168 145 139 140 145 145 154 163 156 132 121 113 123 111 98 118 125 119 104 90 81 56 53 66

GFSCGP_con_3kmhel_012.txt.gz
Helicity
78 86 68 45 10 21 12 21 28 33 34 100 51 46 103 153 189 154 187 212 219 222 204 194 198 193 273 314 364 285 240 131 105 155 141 116 79 67 79 97 131 161 135 143
96 83 52 57 71 50 47 49 45 89 174 131 105 129 134 193 152 141 162 205 218 227 235 227 202 169 159 135 144 87 68 50 64 44 36 26 39 45 94 125 166 180 174 153
51 63 70 59 73 58 67 65 37 71 172 142 128 137 145 176 173 181 181 135 117 97 91 76 80 63 34 40 -6 21 50 54 65 88 81 77 78 105 125 144 158 182 205 207
38 64 17 55 39 33 49 60 63 115 121 96 102 96 121 159 193 176 130 108 104 76 71 41 62 56 57 78 85 87 98 107 95 66 73 85 91 112 137 158 179 220 212 187
67 59 56 36 38 33 54 89 100 99 123 128 151 146 161 213 196 163 90 81 77 38 -9 66 32 26 39 107 108 74 90 93 88 102 111 119 148 171 189 209 203 158 172 177
90 70 57 47 53 58 55 97 129 124 118 112 138 183 162 224 171 208 164 89 30 6 10 192 104 42 72 110 115 104 135 124 113 137 156 179 207 203 228 232 236 252 253 203
99 75 71 72 71 70 81 102 91 82 113 103 143 188 133 61 138 165 80 9 54 60 145 117 95 112 156 158 159 163 169 186 188 210 216 201 190 199 208 224 251 256 236 207
47 60 67 89 78 55 89 84 97 -3 11 24 84 62 110 31 94 99 18 53 97 96 132 179 184 219 271 279 246 212 202 190 168 182 203 189 175 178 185 206 207 185 180 157
51 56 70 81 77 64 65 86 60 56 4 14 57 82 77 103 115 185 154 188 164 154 200 267 245 292 295 303 256 208 158 139 142 148 171 172 151 160 156 149 138 156 160 206
28 45 64 70 51 73 42 37 42 64 25 29 21 51 84 107 147 181 199 186 185 231 287 285 318 355 344 325 243 223 115 109 104 138 168 142 135 139 131 108 108 119 147 212
53 52 56 63 71 66 66 42 52 39 39 32 19 20 46 134 179 240 201 199 255 298 317 392 427 419 338 285 220 103 196 141 143 165 127 125 108 97 85 90 86 95 119 162
75 37 69 54 60 48 43 26 30 38 28 61 65 52 29 58 144 258 220 249 284 328 415 441 395 335 284 187 119 159 82 72 145 118 90 82 81 70 59 59 68 80 108 157
45 56 93 92 73 73 41 55 73 78 71 54 84 33 49 115 220 232 304 361 387 411 424 383 301 237 197 192 175 60 71 130 97 101 81 62 43 48 48 57 73 93 128 176
83 66 44 7 21 60 50 63 84 94 79 70 90 90 79 107 193 282 360 405 409 372 337 272 230 184 199 196 52 47 110 105 89 87 74 70 62 44 47 72 90 110 129 145
83 49 74 72 77 66 53 55 85 95 105 103 75 116 83 146 213 284 341 385 381 318 283 250 237 221 158 64 87 100 102 88 100 96 93 80 67 62 79 95 104 116 126 125
100 56 83 68 95 102 62 50 76 108 121 94 101 90 117 146 304 330 362 347 298 265 243 232 234 138 67 67 103 102 85 95 123 112 103 109 111 107 113 128 129 134 124 116
99 83 92 57 104 106 53 75 140 153 158 169 158 123 154 151 207 270 306 278 220 208 202 191 158 71 94 88 104 99 110 124 137 150 148 150 142 143 139 141 133 133 125 113
92 134 143 98 141 122 98 112 107 131 111 167 161 126 144 151 216 208 196 201 180 181 176 141 126 108 96 117 139 140 138 142 171 175 170 168 173 165 155 143 126 119 121 110
118 135 165 159 142 144 134 116 132 178 111 200 176 168 195 201 241 137 151 177 180 163 141 176 142 124 137 140 170 160 149 175 189 170 187 184 180 169 152 138 116 105 104 118
142 163 162 179 183 151 94 102 127 177 185 164 213 176 177 229 246 128 191 224 187 190 244 193 179 195 185 195 190 211 195 176 169 184 183 178 178 169 158 135 114 119 113 116
123 147 159 205 201 174 83 141 190 228 93 86 100 140 208 195 176 165 184 248 257 281 307 275 250 230 200 218 213 177 167 171 174 184 180 171 171 183 171 147 124 103 117 154
114 127 123 185 223 170 138 238 174 93 102 62 70 137 154 214 270 255 253 292 319 329 322 283 251 205 181 173 178 168 162 160 177 174 162 152 164 195 175 135 105 108 133 146
160 134 140 145 141 107 21 60 80 137 130 126 161 165 176 305 298 285 295 325 339 308 297 230 185 165 155 157 157 164 153 172 165 163 148 132 136 159 150 109 87 119 132 132
124 144 186 190 107 94 92 83 97 127 140 170 172 217 300 314 339 374 378 365 383 283 226 142 158 152 142 134 130 154 167 168 161 153 134 121 134 144 142 118 100 109 114 116
120 145 140 138 89 109 90 128 119 136 165 177 185 228 298 369 382 363 382 381 335 201 134 144 149 138 119 120 135 165 166 171 154 144 127 116 120 136 136 119 104 99 100 112
202 176 193 154 139 172 114 93 89 122 128 166 253 314 353 376 374 426 432 349 231 77 107 138 130 124 114 133 147 143 157 165 140 122 127 115 114 133 144 129 104 87 76 55

GFSCGP_con_3kmhel_015.txt.gz
Helicity
46 41 80 40 51 13 30 51 32 57 47 68 58 40 62 69 78 60 64 90 109 121 129 110 129 113 148 148 159 176 212 118 130 116 73 43 51 69 108 121 148 165 171 174
68 77 81 48 60 46 44 35 34 62 78 58 44 62 60 78 80 60 58 93 122 164 190 168 153 159 160 97 95 100 101 79 63 26 22 31 57 91 135 145 167 179 182 183
24 56 67 84 87 83 71 36 3 25 127 118 59 40 55 79 99 93 95 104 129 125 145 103 66 32 -1 -24 25 62 56 19 18 34 56 80 120 128 115 139 164 170 153 148
75 86 46 55 59 25 38 35 53 62 72 69 64 -3 60 86 116 116 117 132 136 121 84 59 36 56 124 22 25 53 56 54 77 62 76 95 99 113 150 183 176 180 204 185
50 28 33 25 34 43 21 56 72 73 86 60 86 67 87 148 127 140 133 157 134 146 172 98 41 38 14 1 64 122 128 144 107 112 114 121 141 150 182 204 205 199 195 149
47 75 41 24 38 65 9 109 124 104 97 57 92 101 91 190 155 166 160 179 135 148 94 59 93 78 62 143 148 176 217 235 213 205 185 161 153 161 184 194 191 183 168 151
87 72 51 39 50 78 65 102 73 48 72 70 107 113 104 129 107 162 163 122 129 104 80 84 121 105 169 186 212 277 282 254 194 153 145 141 137 154 177 177 154 134 134 133
8 14 54 80 66 56 81 76 88 42 42 23 66 30 51 45 90 108 84 87 91 71 67 92 156 165 176 242 323 293 278 238 187 140 121 121 155 167 142 118 114 116 122 127
26 39 69 74 78 80 65 86 98 99 47 -0 7 22 8 79 135 164 227 224 172 137 120 143 202 228 252 289 283 241 252 244 211 166 102 133 153 121 98 85 78 95 93 111
34 50 67 62 65 95 59 69 56 61 2 15 27 47 48 28 72 117 176 201 189 181 180 198 258 267 288 264 255 230 204 152 163 58 92 125 92 71 61 75 80 75 83 103
66 59 45 47 54 42 64 58 78 61 49 14 4 4 20 9 77 100 123 173 203 190 200 255 296 326 305 270 206 179 147 102 113 87 140 125 94 72 67 66 72 83 87 106
76 52 55 73 51 58 59 52 49 29 16 57 51 20 20 -13 12 49 114 184 204 211 262 315 308 318 302 243 212 144 52 130 79 129 120 106 98 84 65 62 71 81 88 97
57 66 61 61 56 61 45 67 73 83 76 47 60 36 26 12 33 74 135 197 234 304 380 357 308 300 272 222 137 121 141 71 129 107 111 116 103 77 76 74 76 79 95 104
81 62 36 1 35 56 76 74 86 82 64 74 89 86 68 49 54 93 155 207 264 360 359 303 279 278 243 182 177 81 10 98 108 98 116 113 105 105 97 86 86 99 104 112
63 36 76 69 68 50 54 55 75 85 121 110 84 100 74 59 86 109 172 278 333 333 323 285 254 241 223 171 85 62 110 103 103 109 117 116 141 128 115 115 112 110 120 125
84 48 79 50 79 80 42 42 78 85 116 93 116 60 96 134 156 191 206 278 301 300 252 225 201 209 128 95 95 109 94 104 127 119 119 144 163 153 147 144 131 126 125 118
84 84 87 67 106 107 35 59 144 182 181 168 158 134 168 106 117 129 212 235 250 235 209 195 168 135 114 109 135 100 118 135 133 130 138 159 174 176 166 159 129 121 121 112
89 123 123 103 134 137 104 116 119 103 120 151 164 160 126 127 131 121 106 180 189 194 200 174 164 146 140 167 149 147 148 145 135 137 148 166 179 176 182 160 133 131 130 120
108 109 120 119 121 119 112 112 99 108 102 110 141 160 182 180 168 89 55 104 135 172 177 184 182 184 218 193 179 157 164 160 153 153 149 160 180 187 180 160 147 141 144 121
129 145 139 143 130 99 91 107 106 108 129 96 100 184 166 167 192 95 69 114 167 227 235 248 248 255 252 229 175 160 152 146 161 167 160 170 177 175 163 161 149 148 117 92
114 131 132 169 146 126 69 139 132 186 91 90 68 79 119 140 118 120 130 164 233 285 310 345 325 249 259 187 139 143 143 144 156 144 144 149 158 146 133 147 143 124 95 98
96 114 115 145 167 108 83 108 125 90 72 74 62 87 126 130 186 191 200 247 353 398 376 368 341 341 181 128 129 131 121 150 136 138 139 169 158 131 129 131 133 118 94 105
124 113 125 112 119 99 26 56 95 122 107 117 141 106 124 187 220 271 299 350 387 410 421 320 296 245 137 111 117 109 132 136 134 139 160 175 142 116 116 116 120 117 112 105
88 119 141 135 80 63 54 54 77 123 150 154 136 124 162 192 269 331 375 405 447 451 466 335 187 144 98 102 117 107 121 126 142 159 159 134 135 116 99 119 119 117 110 106
108 130 130 123 75 99 85 96 77 78 94 104 118 140 150 205 289 402 465 503 540 562 402 172 167 94 90 96 97 107 112 131 153 148 113 107 115 100 90 101 110 123 111 98
176 150 160 142 122 135 110 75 64 79 93 95 115 160 199 220 337 438 557 639 710 295 159 119 89 82 79 86 85 90 114 143 142 114 102 110 101 99 93 95 99 111 88 91

GFSCGP_con_3kmhel_018.txt.gz
Helicity
31 54 34 12 32 66 39 13 30 23 45 13 -1 14 68 33 20 22 41 49 52 50 62 68 75 98 108 108 107 113 122 103 105 78 86 63 53 54 59 85 105 98 104 121
44 39 46 50 33 22 20 35 38 36 20 40 4 15 34 41 48 44 35 36 47 79 96 125 118 110 116 131 126 92 70 74 63 70 84 72 54 71 102 108 111 127 149 183
38 57 51 27 35 14 36 34 13 12 58 49 6 4 28 57 66 71 62 64 68 83 120 124 110 85 89 100 55 35 75 101 95 81 73 70 87 84 83 110 135 174 189 196
32 56 52 51 49 47 22 41 8 9 11 -5 16 6 60 63 65 73 81 84 100 121 163 159 90 74 78 97 73 114 153 136 110 91 105 119 117 122 126 147 174 181 170 170
35 34 53 35 48 41 38 7 19 9 16 36 46 13 103 69 74 114 147 157 174 199 173 126 126 98 95 95 130 126 138 180 167 149 154 147 153 129 112 142 152 156 144 126
63 75 69 60 63 20 32 32 54 36 33 6 58 27 43 45 50 137 166 175 205 207 193 172 127 114 86 117 138 132 182 202 207 214 209 202 189 166 163 172 170 151 128 127
59 64 47 30 24 20 9 -51 -21 -8 -1 3 79 34 6 68 84 123 158 179 193 199 178 154 102 96 89 150 154 196 210 228 212 225 214 200 200 151 124 156 139 114 112 111
-3 -20 -1 46 24 -19 -37 -14 -2 13 20 26 48 18 51 68 77 85 100 128 163 162 141 116 105 117 136 177 195 201 215 238 239 200 175 162 119 91 127 118 110 100 103 103
2 17 51 69 59 60 42 19 95 59 46 4 -5 10 -18 59 51 74 155 216 201 143 138 131 146 158 182 206 234 234 265 283 304 257 223 60 95 110 126 82 72 91 82 86
31 1 51 59 62 92 72 84 34 30 -2 0 11 27 3 27 63 94 172 195 165 148 171 174 177 202 212 263 311 306 308 319 291 182 23 117 122 108 80 74 86 76 76 81
53 48 41 54 35 35 68 47 59 54 45 31 43 28 42 26 36 64 99 132 144 155 178 181 210 230 276 290 321 317 314 249 122 1 89 105 142 94 92 93 80 70 69 77
83 73 56 38 59 65 65 34 38 14 17 47 40 3 37 20 25 37 56 93 106 142 177 204 237 273 315 314 279 305 239 96 67 98 138 172 109 111 102 88 76 81 77 81
67 66 54 33 29 39 22 45 58 79 55 16 31 32 64 26 11 51 55 110 129 169 213 239 274 323 332 304 267 300 197 185 83 132 145 132 107 93 98 91 94 90 89 85
61 60 38 17 42 43 44 42 56 38 46 48 55 28 73 60 55 63 86 124 139 190 245 257 284 327 322 276 305 233 213 67 119 129 108 108 94 106 104 112 102 115 108 102
66 31 27 33 49 49 47 12 43 50 34 66 36 37 55 80 79 71 108 131 161 213 266 268 284 307 274 267 245 253 79 133 114 119 95 98 114 119 122 118 122 137 117 103
67 32 49 29 52 65 51 3 28 39 36 47 28 24 29 68 87 103 118 151 146 189 219 239 232 234 232 219 240 108 140 120 150 118 98 111 128 134 131 136 146 137 123 126
75 55 48 40 79 78 49 27 66 86 102 85 81 56 118 106 88 84 96 122 123 149 175 208 215 199 215 213 149 139 149 188 155 120 114 128 145 139 134 141 135 144 145 133
70 94 92 67 64 80 105 89 93 52 33 57 49 79 103 128 142 121 91 91 80 92 147 183 201 225 207 237 212 173 177 162 140 126 136 146 132 127 130 137 141 143 148 138
102 102 98 87 84 92 61 98 89 85 87 93 56 61 116 123 125 84 71 47 45 78 135 192 231 275 317 267 270 258 156 151 130 130 146 135 130 126 127 137 145 132 141 123
126 121 121 121 74 49 116 122 107 84 73 126 93 82 87 97 121 119 96 48 63 110 167 257 317 329 318 355 444 176 206 179 146 145 130 117 114 122 132 133 124 130 123 116
87 107 102 123 113 98 97 109 84 116 178 118 57 69 74 85 82 154 117 98 104 153 223 348 362 379 368 320 222 204 171 156 132 109 103 110 122 144 131 116 128 116 108 123
73 99 103 132 137 104 92 72 105 138 97 97 104 106 104 93 153 146 161 178 186 240 342 407 497 500 361 453 202 150 119 115 87 93 105 115 135 137 124 125 123 100 102 118
94 100 118 91 129 108 42 62 108 115 111 101 107 124 120 118 117 141 183 254 289 331 433 504 550 588 329 166 183 118 98 71 74 84 91 104 117 116 124 122 104 103 111 111
71 80 113 99 70 39 40 63 74 75 71 73 70 72 88 88 106 146 211 298 341 395 476 613 775 509 226 179 136 65 59 65 79 75 77 99 112 130 117 116 103 99 115 117
110 79 81 75 47 76 77 89 86 85 79 73 82 99 115 125 128 169 209 309 464 605 635 642 492 336 246 96 66 49 57 75 68 72 74 96 108 99 99 94 92 80 102 119
97 98 118 116 140 108 85 95 69 73 103 117 123 137 163 155 204 254 346 411 500 678 616 575 273 148 77 60 40 53 67 68 64 66 79 101 98 93 99 88 88 115 88 127

GFSCGP_con_3kmhel_024.txt.gz
Helicity
-1 43 37 146 48 30 44 28 34 30 31 -12 -3 63 80 18 -12 38 68 73 102 59 88 69 48 84 47 216 322 266 282 256 176 171 94 111 87 93 113 142 108 102 68 65
-4 27 49 28 82 38 59 51 43 41 28 -48 14 10 78 44 36 25 22 77 117 85 154 140 102 125 141 253 304 283 231 169 73 43 61 76 52 95 186 117 109 120 127 121
72 50 43 67 6 37 69 27 12 19 11 -31 74 -8 67 48 6 9 24 17 58 89 234 189 151 139 143 297 283 204 151 67 -3 -9 91 192 292 208 174 121 107 153 147 178
65 149 216 10 42 -5 45 126 32 23 23 8 17 13 180 232 -5 35 14 19 55 64 179 187 157 161 311 357 219 117 76 39 139 188 189 156 164 255 294 330 323 191 112 110
84 35 42 47 36 103 -3 59 8 -13 1 -3 44 18 26 100 34 -17 10 52 110 108 191 254 171 260 220 178 75 41 112 228 188 228 258 243 353 342 376 408 343 237 189 253
43 38 31 129 -3 3 6 -11 25 27 26 92 104 155 107 85 69 114 32 25 41 172 274 262 202 249 333 239 252 279 279 227 244 287 368 443 479 508 528 452 312 316 168 196
58 1 13 -0 -25 10 -1 -19 -7 66 14 9 32 38 80 28 89 204 -30 146 132 208 211 271 316 392 315 304 257 249 256 292 321 359 374 426 511 480 392 301 193 243 182 180
19 8 -10 32 -31 51 65 3 30 8 6 52 107 -12 28 39 40 73 30 174 224 197 215 225 296 278 280 217 173 195 281 308 310 310 410 448 351 322 209 173 235 205 209 170
32 52 189 65 13 16 1 39 17 -37 -59 1 10 38 54 137 115 54 183 244 195 172 171 224 253 295 263 197 193 232 251 314 311 423 398 290 247 191 229 268 229 222 175 127
43 5 11 1 13 -1 29 47 30 29 12 13 34 20 81 77 65 31 132 204 194 165 177 174 228 286 256 214 230 233 277 346 416 422 303 257 186 229 245 227 195 192 151 154
31 81 29 60 -9 8 18 2 31 37 38 50 36 44 59 70 51 61 15 185 235 241 202 219 236 277 272 254 283 272 315 467 443 350 318 304 176 234 264 168 204 178 155 116
27 65 67 -4 17 72 83 64 18 74 48 83 60 13 33 43 57 40 26 31 229 280 229 261 287 381 362 309 313 318 359 449 397 366 327 250 174 185 196 166 181 168 158 122
61 57 8 15 16 19 26 21 40 56 123 61 58 32 41 47 34 40 50 47 107 219 210 226 344 450 447 346 378 372 353 399 434 324 275 207 218 168 178 218 184 158 153 138
119 63 16 9 2 57 31 -11 15 17 101 49 -21 9 24 98 95 71 93 63 56 140 164 162 308 449 492 427 439 370 388 403 397 307 248 196 198 154 210 205 180 142 139 154
113 59 53 52 35 29 73 82 17 -0 26 -26 16 -4 -4 38 70 59 115 97 109 49 109 138 212 336 403 474 427 384 426 462 453 263 193 172 199 368 249 205 148 151 169 160
60 80 82 44 43 53 17 47 34 30 26 -10 -4 8 14 59 114 139 169 151 161 122 73 135 197 271 373 396 370 398 466 503 354 217 221 282 322 198 285 172 153 121 103 128
85 79 67 46 78 76 18 4 -8 -3 9 23 45 42 60 75 61 161 155 108 133 117 121 114 172 182 226 272 352 470 496 476 274 340 372 278 236 456 153 113 113 115 113 149
106 78 80 64 55 18 -4 77 75 72 66 56 70 90 130 160 185 143 77 81 98 136 131 116 116 126 183 247 343 395 394 418 349 430 446 454 421 233 150 114 95 84 115 142
64 95 85 63 42 37 37 63 83 73 85 198 254 252 252 216 128 121 119 193 201 201 136 107 117 154 197 208 304 451 435 459 504 578 711 416 240 193 115 115 95 116 119 121
107 132 86 64 59 24 73 109 93 77 83 219 213 168 125 101 102 151 251 203 119 112 106 104 128 147 198 339 454 593 695 765 859 888 666 502 182 104 94 81 104 99 105 120
63 91 74 79 53 53 104 124 78 95 183 157 131 108 94 116 151 169 143 108 140 145 148 172 348 508 611 753 795 904 948 1151 1269 623 302 214 94 80 77 83 84 105 119 118
38 52 54 100 82 36 121 109 132 182 117 128 118 130 123 117 93 91 78 113 125 104 259 458 661 847 942 919 934 949 1000 624 390 338 152 59 56 74 76 119 121 116 103 106
62 61 72 79 81 115 103 174 130 160 132 114 106 114 122 110 96 92 120 170 266 334 544 649 706 746 764 707 591 498 451 541 211 36 35 20 14 55 103 112 114 111 101 114
81 132 113 136 69 91 106 140 115 179 215 144 116 103 134 142 137 113 155 300 438 595 528 514 509 491 492 565 601 330 145 58 45 7 -25 1 62 87 102 103 109 118 143 117
118 138 75 94 64 108 174 336 370 258 193 196 161 235 271 179 146 292 449 537 535 529 444 357 346 303 250 162 96 51 32 -6 -29 -16 24 62 88 82 85 99 103 160 152 132
96 124 151 121 250 194 276 306 253 295 239 225 250 294 281 334 378 394 428 391 325 301 226 154 126 91 63 40 57 31 38 37 43 54 78 94 99 99 105 104 128 130 111 118

GFSCGP_con_3kmhel_027.txt.gz
Helicity
65 45 42 28 32 -2 -0 52 64 54 12 75 69 74 84 118 42 124 148 125 137 104 110 89 73 211 291 345 262 288 254 237 219 298 260 143 116 79 138 126 151 117 130 157
58 52 16 40 20 88 127 50 145 35 5 24 15 55 87 34 71 209 184 61 139 187 205 187 178 264 376 409 405 338 289 244 196 231 150 128 95 162 167 173 182 164 140 132
17 39 30 109 29 34 1 20 -24 49 12 -3 25 82 136 -7 42 109 91 72 226 251 287 264 198 314 391 490 446 273 270 187 189 92 90 134 156 224 226 246 230 197 181 166
-36 33 1 74 106 29 27 34 49 26 9 -30 42 30 115 125 51 17 80 157 228 267 337 386 338 279 386 388 387 189 162 118 98 67 201 258 322 318 240 277 253 240 232 220
39 1 47 85 160 23 -11 3 11 -11 11 -7 66 -9 31 96 -6 7 -4 -8 147 284 361 394 397 371 295 308 279 144 35 150 91 170 267 314 359 448 475 510 478 358 305 281
63 25 6 9 34 25 60 32 20 30 25 12 15 148 93 68 163 35 -56 -73 7 136 286 349 339 310 259 230 219 219 232 243 325 379 396 418 522 585 636 572 416 325 295 308
37 56 1 -4 26 7 45 -2 63 70 73 -13 22 81 162 77 64 119 35 -3 6 162 262 349 399 414 396 375 313 354 316 375 391 487 541 550 583 557 459 364 319 294 261 293
45 55 46 59 -7 17 11 13 56 47 -6 -2 8 24 2 85 52 59 79 30 57 211 272 431 508 521 523 466 403 381 404 409 402 423 481 544 497 396 342 328 297 288 282 293
88 45 54 76 89 39 -6 36 54 84 18 25 15 9 124 128 45 36 64 125 223 289 339 389 425 456 464 405 350 339 388 379 374 372 415 394 370 359 342 315 270 270 269 243
64 55 22 98 41 47 20 19 58 68 44 21 11 45 35 50 43 21 61 163 295 321 324 376 420 432 384 294 236 285 372 368 375 386 357 291 291 297 287 285 275 338 199 174
83 69 -0 -85 -11 10 21 55 56 65 73 36 33 68 18 45 34 67 111 269 355 384 389 405 419 437 415 345 276 284 385 454 462 424 348 281 256 256 283 308 321 220 264 145
40 61 46 -59 47 43 34 20 42 80 50 76 48 27 32 58 33 41 45 173 265 352 377 419 483 500 491 479 423 380 448 546 551 468 363 269 240 237 262 235 238 202 162 160
109 120 93 68 66 61 21 52 48 56 124 87 85 27 9 50 83 89 44 51 183 279 344 389 494 545 575 570 575 569 580 591 592 540 412 286 227 224 210 239 210 247 177 147
130 104 89 61 26 31 40 47 54 75 126 73 48 23 47 -4 135 56 75 81 105 181 281 318 424 543 635 625 621 582 616 626 594 517 407 259 214 220 240 217 303 174 140 162
118 102 119 79 58 55 53 36 30 9 29 116 33 36 22 33 66 132 91 86 92 139 126 173 388 520 562 578 558 548 548 595 575 522 406 263 243 235 300 309 330 267 193 126
135 125 130 84 70 50 71 64 54 38 32 23 28 42 31 -19 41 116 141 175 189 210 189 163 183 373 401 492 496 445 479 588 604 555 414 306 324 449 504 509 420 215 141 100
114 117 120 74 85 82 50 24 44 56 41 28 27 51 150 172 157 156 175 186 199 159 204 182 83 121 219 284 281 362 471 567 557 466 404 514 591 632 666 528 401 189 114 126
164 127 102 64 90 74 18 53 50 52 114 137 191 173 148 181 228 250 159 160 201 221 230 178 134 102 88 140 263 421 498 518 481 554 695 770 788 867 894 593 243 102 128 116
123 138 112 84 85 52 47 87 69 70 130 156 184 237 247 213 131 167 174 202 224 164 160 157 165 171 270 258 417 563 651 782 883 877 997 1020 1066 1078 577 280 103 91 82 78
206 161 119 110 85 33 37 69 96 109 135 142 155 149 137 124 110 24 122 171 189 237 262 325 427 547 630 687 836 1006 1053 1103 1103 1122 1134 1241 789 370 148 100 70 73 52 88
112 135 100 106 74 56 63 95 83 116 89 174 150 121 104 74 45 97 132 144 242 246 331 417 518 567 645 730 841 1005 1033 1076 961 1022 713 250 23 47 73 57 34 77 100 111
65 80 67 111 85 35 85 124 114 98 174 135 129 112 139 137 143 145 174 290 306 324 349 370 412 458 459 473 535 598 639 676 541 249 55 83 119 69 32 60 88 98 92 110
77 58 52 68 49 35 102 127 136 166 177 193 212 206 171 194 171 172 256 308 338 353 326 304 302 322 310 265 237 209 122 99 68 111 147 137 71 59 63 82 83 101 100 129
141 108 103 104 62 83 132 355 376 363 325 310 254 224 218 216 233 309 357 388 406 352 301 191 173 178 183 174 191 207 211 189 177 154 119 101 81 71 78 86 93 112 124 147
107 151 108 100 126 283 386 396 389 451 431 347 342 319 269 289 322 349 371 377 312 245 221 210 193 190 203 200 174 119 119 135 133 131 101 64 71 79 90 99 106 115 128 158
141 148 165 142 199 287 302 344 338 357 353 323 282 321 341 284 280 294 301 287 287 265 239 236 215 193 166 122 112 128 117 122 98 77 86 93 105 105 111 126 131 126 117 119

GFSCGP_con_3kmhel_030.txt.gz
Helicity
36 54 73 60 28 83 66 126 56 72 65 -35 70 101 63 79 68 41 21 77 138 187 133 180 144 87 71 84 184 173 188 172 244 233 235 210 158 130 124 123 131 165 166 159
8 54 63 19 41 13 -12 61 104 97 52 7 33 69 40 77 130 109 98 95 151 174 219 169 186 205 219 206 188 177 167 194 233 235 253 205 170 129 127 146 163 179 176 144
-24 -4 33 24 28 55 35 86 109 45 52 83 54 73 73 29 70 72 91 152 171 210 286 300 285 326 295 306 269 209 202 197 214 218 278 283 265 264 235 218 203 154 177 190
-7 38 13 -26 11 14 74 83 72 36 46 87 49 25 90 7 28 114 127 84 185 234 304 392 397 468 447 398 362 253 241 191 185 237 283 334 319 286 208 242 211 225 222 202
14 43 10 34 66 3 49 18 10 23 72 9 56 16 23 129 135 124 84 134 59 146 318 442 474 500 437 449 399 320 246 182 199 219 206 277 279 241 263 299 331 330 291 285
92 23 29 44 51 29 23 -1 7 51 26 52 49 15 31 28 119 95 160 149 82 234 238 360 452 449 366 299 319 309 214 168 129 163 189 246 300 366 436 433 429 348 333 316
67 46 26 7 7 25 19 46 45 55 72 32 34 22 -16 9 34 63 87 160 92 177 328 395 469 426 376 343 313 183 256 269 169 212 259 340 447 517 561 494 413 375 372 338
56 70 39 21 -10 39 59 18 34 32 26 23 46 19 32 3 32 35 16 36 79 105 238 357 402 361 337 321 260 298 338 364 252 335 384 443 529 513 476 426 390 413 375 311
28 44 47 22 37 40 49 14 30 80 62 63 14 50 28 30 28 -2 22 32 70 137 234 331 397 377 386 340 347 428 402 432 385 433 465 478 455 429 422 414 373 302 272 235
50 57 33 53 76 66 51 25 58 75 30 22 35 58 43 17 -7 -7 -10 -5 48 154 214 281 348 393 405 318 313 374 416 424 393 404 388 389 378 364 360 343 304 265 254 316
136 102 60 80 98 41 59 44 61 58 74 36 25 43 26 3 1 -6 11 54 152 207 224 291 330 349 366 381 391 378 431 452 446 430 442 433 371 321 297 290 289 314 273 289
82 89 86 49 -67 -32 3 21 74 84 62 81 54 30 34 6 52 32 22 41 133 220 276 333 351 371 358 390 450 434 426 452 455 464 460 417 402 342 314 292 282 298 278 200
135 133 117 120 48 35 40 38 70 103 114 85 103 31 38 20 28 64 69 52 113 179 289 376 426 440 422 399 433 474 530 547 530 508 477 436 357 329 273 270 273 271 273 266
213 152 115 108 56 70 114 88 74 86 106 116 84 51 50 33 31 47 65 68 97 175 282 384 422 430 458 465 491 562 609 573 506 525 501 419 342 282 256 298 337 357 389 425
158 134 127 107 92 85 84 101 67 80 87 113 40 93 29 36 28 11 27 110 121 116 178 267 308 366 458 505 550 611 625 528 538 527 459 369 311 296 341 415 449 484 584 550
157 125 160 136 170 122 73 77 91 60 36 44 47 64 71 126 167 224 194 191 218 208 189 113 190 328 423 468 505 572 553 503 523 457 418 370 406 437 540 628 735 762 782 726
165 178 166 115 157 159 119 56 65 52 34 38 61 72 171 291 266 245 231 242 217 198 171 138 77 112 217 308 385 368 437 489 459 488 513 553 666 820 824 803 917 1062 528 178
169 187 148 112 154 137 36 96 83 164 173 163 217 229 164 164 197 233 205 208 208 182 202 225 177 73 83 166 254 391 504 561 605 686 718 823 911 1068 1097 1078 886 343 94 128
140 158 169 141 115 80 59 98 96 114 140 128 169 171 111 96 179 180 133 150 163 177 219 238 216 227 278 307 410 596 711 802 930 975 1046 985 890 844 829 624 154 120 183 159
244 205 156 164 118 59 20 99 90 126 148 140 151 160 157 122 145 80 151 132 205 252 222 224 252 300 400 445 588 783 835 1001 1120 1173 1196 1072 735 491 331 94 122 137 124 111
236 210 161 198 127 88 50 54 109 138 86 151 133 108 96 86 58 94 169 227 201 196 198 203 255 295 321 385 564 719 734 826 683 620 473 463 503 224 108 110 119 113 107 105
141 136 104 158 125 55 78 150 107 75 130 141 134 98 116 105 142 190 217 231 233 238 235 253 305 312 272 271 294 299 292 234 282 308 222 161 167 152 126 123 127 104 94 96
123 103 79 72 40 57 85 78 135 132 168 154 158 131 163 175 197 241 269 273 264 255 237 218 237 267 272 274 265 278 221 184 166 163 161 147 127 124 131 126 102 102 105 120
110 107 102 110 106 157 240 298 280 246 250 245 227 208 223 255 262 295 291 278 283 290 297 251 264 268 252 211 177 141 160 158 143 125 116 119 133 121 104 99 110 123 129 140
130 180 135 178 189 323 336 342 343 390 381 388 352 292 277 296 298 299 326 351 340 311 268 227 207 172 153 170 173 146 123 116 122 115 114 110 103 104 113 121 132 147 145 166
171 198 196 150 158 218 238 303 319 373 338 304 326 368 353 330 341 357 369 323 276 247 216 215 176 187 200 187 171 144 117 109 106 112 124 129 135 138 145 154 151 141 151 139

GFSCGP_con_3kmhel_033.txt.gz
Helicity
2 41 61 58 43 61 65 41 53 89 21 -41 20 19 196 77 49 86 49 55 49 51 57 33 31 10 2 3 61 92 129 133 204 216 205 175 187 184 187 158 120 132 166 172
21 19 53 68 -5 28 83 93 109 81 44 32 18 19 153 113 94 102 66 73 84 56 -14 43 45 39 35 65 92 133 170 220 230 247 225 217 215 192 185 142 157 172 188 169
-6 8 7 17 7 35 66 97 106 97 69 72 93 77 95 31 24 -19 45 76 70 145 90 49 99 146 100 105 120 156 203 233 224 214 256 278 315 288 249 203 206 159 158 157
22 36 26 -2 56 55 123 42 71 57 25 38 81 8 50 137 65 65 38 130 162 137 162 132 115 188 219 161 126 137 185 207 217 222 288 325 335 315 222 210 201 196 199 203
21 -1 9 9 28 3 59 63 62 36 18 49 96 50 15 54 44 88 145 137 181 189 235 262 205 171 240 228 224 207 196 179 170 271 289 315 317 277 258 277 283 264 268 253
32 2 32 41 10 -16 17 57 60 50 59 31 29 33 15 29 158 141 187 193 215 294 250 254 265 238 305 304 291 291 272 242 218 249 238 309 234 265 300 328 310 295 303 280
47 30 23 42 63 48 35 70 48 55 73 -18 46 32 -19 -1 19 93 185 224 168 222 384 424 387 371 381 326 288 290 304 284 255 234 222 178 205 254 288 328 371 401 417 381
-10 24 14 64 25 42 37 51 85 22 39 31 63 14 20 20 11 16 43 105 94 153 273 363 417 430 452 342 256 291 215 204 255 277 204 193 242 309 364 459 468 495 466 411
29 62 41 35 47 35 45 53 35 83 86 60 43 28 49 30 47 37 37 31 32 40 159 259 352 407 388 375 304 242 235 218 191 219 281 296 329 366 425 460 489 489 510 423
24 36 46 54 53 49 45 52 83 97 74 64 40 34 21 60 79 51 14 5 12 33 79 146 245 291 308 280 330 293 277 244 227 296 336 343 392 455 532 570 599 571 487 387
96 74 42 57 59 84 130 147 117 92 91 55 43 26 -0 31 72 69 67 25 38 77 80 92 139 205 232 282 279 255 296 308 328 367 413 492 517 519 509 505 482 500 431 352
71 84 75 63 67 49 106 86 93 102 70 97 74 46 36 17 21 29 35 38 30 70 84 105 177 243 266 274 263 272 286 333 402 470 493 418 431 427 407 426 409 348 314 282
91 92 113 98 80 97 40 42 76 98 115 91 113 52 52 31 30 12 25 2 31 77 92 124 193 255 281 297 313 320 364 413 479 482 392 388 393 360 362 365 314 315 318 310
227 146 102 100 61 89 92 70 83 131 121 73 96 65 77 47 80 47 32 -12 20 104 158 194 219 259 247 309 348 413 456 476 464 391 392 387 321 348 340 332 314 427 386 389
170 127 125 94 91 101 87 82 120 122 104 121 44 115 71 53 34 26 37 73 73 123 155 176 208 197 224 334 399 441 486 468 386 424 416 326 343 380 364 415 473 461 429 554
211 152 157 121 161 174 128 104 105 137 131 99 88 55 65 68 104 159 145 180 211 205 140 106 144 195 236 300 365 396 374 346 452 416 373 388 415 395 449 531 641 774 870 848
197 206 185 125 179 170 109 121 137 111 160 137 133 64 125 179 227 273 248 228 237 226 195 183 134 95 119 195 288 319 373 417 470 465 493 517 569 681 766 769 859 898 918 634
213 240 214 151 204 165 105 125 78 113 145 154 184 183 191 221 260 281 210 165 170 144 149 152 149 138 126 121 188 272 301 375 492 595 669 736 815 823 899 979 1102 1021 554 242
206 220 203 206 203 161 122 95 109 120 113 150 185 187 178 180 241 255 229 200 155 139 150 159 171 182 240 287 296 412 487 556 645 679 759 807 809 863 882 930 677 309 290 201
280 247 197 217 221 157 84 92 163 131 126 101 116 122 136 164 147 85 128 143 174 180 183 190 194 208 244 248 314 443 470 543 608 655 746 859 898 992 578 367 266 190 175 156
292 272 218 247 206 179 120 104 154 176 63 192 169 147 154 123 95 120 142 173 203 217 225 211 224 216 181 189 265 332 349 368 362 399 403 384 287 220 166 106 111 111 112 151
233 241 229 265 234 125 130 213 175 88 162 141 135 148 146 143 139 157 191 218 234 244 244 244 281 264 230 245 261 264 274 226 223 169 152 149 135 127 127 129 114 127 145 143
191 183 183 151 110 117 60 84 116 78 79 94 132 115 153 152 145 180 196 230 272 298 291 266 273 293 301 282 255 264 219 196 202 183 186 169 133 115 116 128 134 146 140 154
214 192 194 190 128 102 109 143 156 146 160 157 163 210 193 245 233 240 274 316 332 324 321 283 307 315 317 270 242 203 170 196 189 168 146 130 131 125 126 133 139 153 163 176
215 250 217 194 162 183 186 192 240 297 301 338 342 280 281 324 297 324 348 346 338 330 316 305 292 289 279 259 244 197 154 137 141 129 128 125 128 129 135 146 162 179 191 207
236 229 259 146 164 203 192 257 289 353 350 329 353 375 336 328 350 373 373 345 343 339 308 311 292 285 257 232 226 205 171 148 137 131 128 126 121 120 123 135 139 146 158 179

GFSCGP_con_3kmhel_036.txt.gz
Helicity
-7 19 -10 10 -1 39 34 28 13 20 5 -7 28 60 77 115 55 27 22 -0 3 13 5 23 18 16 14 -12 -19 -6 22 34 76 70 83 90 120 125 112 90 110 151 192 201
-29 -8 16 43 31 27 27 21 37 56 7 -34 33 21 103 177 124 51 51 -9 21 -11 -44 -27 -11 23 50 54 24 -2 24 79 104 143 163 146 166 129 135 155 169 168 172 172
7 -6 23 25 39 17 45 67 69 27 26 7 38 65 101 102 57 -19 6 24 -30 18 41 6 29 69 70 93 98 76 66 98 144 180 256 241 276 225 239 252 221 181 170 211
-19 24 12 21 2 15 97 53 41 52 31 15 45 37 18 102 151 74 49 39 36 16 13 53 68 34 66 39 51 118 129 120 161 213 262 312 306 315 276 279 225 230 222 255
-11 2 -3 -3 26 19 78 14 34 39 38 43 38 49 9 89 104 115 104 109 82 52 54 69 110 149 159 122 121 139 190 145 182 226 261 328 308 336 330 308 309 288 283 278
-5 18 24 -11 16 4 35 41 67 71 66 53 47 53 -9 35 66 124 127 92 126 124 124 104 116 166 146 175 216 213 204 147 198 225 296 363 393 361 344 359 362 309 320 296
-42 -1 39 35 55 24 35 55 46 71 99 23 46 16 -23 -22 -2 -2 99 179 212 242 202 194 215 261 263 235 252 249 227 134 153 237 277 349 386 316 286 333 371 380 371 357
-15 -55 5 28 18 38 49 61 76 60 62 43 45 4 -21 15 30 6 -22 36 137 188 218 262 269 353 371 322 316 324 280 190 160 201 254 292 281 276 275 353 419 425 417 404
-22 -45 35 45 61 62 60 53 46 84 80 70 36 31 16 25 19 33 40 38 57 114 153 169 264 301 384 342 343 339 309 184 210 239 265 312 269 268 284 370 422 440 447 466
-6 -19 52 58 39 42 64 47 87 90 51 45 42 54 29 42 41 44 53 15 -13 27 -4 6 153 184 194 286 294 310 252 247 286 232 250 261 225 273 362 418 426 417 457 537
37 18 -23 49 64 78 92 94 127 110 126 39 48 50 25 11 33 77 36 9 -3 -2 23 44 63 124 134 123 192 208 207 278 250 211 208 235 249 303 363 353 369 422 470 477
35 45 -42 7 48 36 47 80 135 154 133 138 111 11 57 22 21 32 18 23 36 26 29 34 13 41 109 82 101 122 163 206 204 242 278 287 304 318 281 277 346 448 444 362
79 58 -7 -38 72 101 86 61 104 155 138 97 83 56 53 34 18 37 46 21 36 41 49 54 63 70 86 130 163 129 176 225 274 320 313 294 301 298 260 317 362 397 468 374
148 123 64 23 45 63 117 83 85 110 111 107 108 60 19 7 46 33 46 41 54 44 48 69 83 104 150 132 173 184 211 274 320 313 332 304 269 273 319 364 389 405 308 354
130 66 80 90 66 96 69 94 101 109 107 141 84 93 -6 20 41 52 45 40 62 55 48 48 63 99 127 149 175 208 235 291 308 286 280 270 294 333 355 387 419 492 465 579
131 84 119 92 136 144 91 85 98 115 146 133 125 91 66 78 78 83 96 127 162 164 147 129 113 103 115 137 171 203 249 290 279 290 299 308 342 367 374 416 488 577 725 840
140 176 154 61 171 173 47 124 193 212 194 177 168 128 150 141 147 152 184 209 221 228 223 229 224 196 160 106 115 193 234 270 299 334 365 392 418 455 481 563 674 748 841 806
253 238 205 132 201 48 125 191 170 157 111 125 140 147 196 203 243 282 294 246 250 238 230 206 168 158 187 196 219 228 243 290 353 380 396 403 445 545 601 731 857 793 874 652
202 249 225 162 128 158 148 182 161 139 79 104 121 170 225 257 271 279 229 212 168 124 94 101 146 181 214 229 215 256 284 298 335 349 377 407 479 560 588 835 576 490 249 200
207 214 208 220 166 114 94 144 189 208 152 149 138 126 160 158 161 120 122 118 138 156 168 182 202 217 219 188 181 225 217 255 303 328 346 336 286 299 326 246 182 182 174 177
288 297 253 272 179 163 121 166 225 246 142 186 176 132 128 130 123 130 136 179 165 159 196 221 249 252 212 187 207 253 250 257 189 183 178 185 172 129 124 137 148 135 122 112
316 309 265 273 241 132 187 287 273 127 84 153 173 158 176 175 180 183 176 159 171 211 223 223 263 266 239 222 230 242 238 180 185 183 180 192 161 132 127 112 105 104 112 128
281 247 246 198 157 166 144 122 130 97 95 93 167 152 197 218 184 189 185 203 220 236 259 258 296 329 310 268 235 247 196 178 177 185 170 154 132 121 114 114 115 125 135 152
300 277 277 253 166 177 158 108 95 112 73 129 139 178 195 245 232 235 231 244 260 262 292 301 331 347 359 303 286 243 194 184 189 187 176 152 140 130 125 123 125 136 143 160
248 315 240 229 202 207 111 105 111 143 194 234 257 234 262 300 272 277 281 284 293 317 336 344 367 355 342 315 316 260 219 185 186 167 147 136 122 121 114 112 113 132 150 174
268 260 306 201 215 280 125 154 176 230 256 261 338 351 311 299 311 325 341 330 347 388 397 410 385 373 335 298 267 236 202 167 152 144 127 116 105 100 97 93 91 81 88 119

GFSCGP_con_3kmhel_039.txt.gz
Helicity
16 8 1 -7 -7 10 51 46 15 13 7 19 61 104 105 33 66 59 50 47 44 32 31 32 31 10 16 26 25 24 21 -7 -17 -15 -19 -13 5 26 33 55 64 74 97 149
-2 -2 0 -9 -16 15 36 33 27 25 14 -19 18 49 4 99 64 66 52 14 14 10 -14 -10 11 21 39 35 39 29 28 20 20 13 28 32 56 59 73 82 97 105 136 160
10 -6 -24 -30 -33 1 53 39 24 8 18 15 21 37 18 16 32 -2 10 11 -4 -10 -17 -27 -5 15 19 40 44 32 24 31 39 46 81 111 116 102 121 125 148 154 158 179
16 -20 -47 -58 -30 -7 44 26 27 22 16 19 32 41 -9 13 67 30 8 -4 6 4 0 3 20 21 30 20 12 30 46 61 65 77 85 131 142 172 175 174 184 203 201 218
13 7 -60 -53 -25 -33 25 44 45 35 42 33 46 30 14 27 11 105 83 25 -3 5 12 11 8 14 31 57 71 63 58 56 82 103 105 147 175 205 250 252 266 264 278 256
19 4 -11 -61 26 -11 32 54 61 52 55 12 50 45 -5 14 23 13 69 91 49 8 25 41 22 14 44 68 81 97 87 71 92 113 136 165 183 284 319 300 309 305 296 298
26 1 21 -5 -12 30 54 57 44 51 59 31 54 52 12 12 -13 -30 0 81 114 96 58 30 59 81 98 125 149 162 176 160 154 178 140 174 246 316 353 337 334 390 379 353
11 -13 20 1 -24 -41 15 42 36 38 57 58 54 20 10 17 4 13 20 13 -1 21 37 60 73 89 130 161 162 191 242 234 191 111 139 194 231 315 340 331 357 372 357 339
84 19 12 29 53 47 45 67 76 106 77 50 57 22 2 33 27 24 37 63 33 4 17 49 45 67 98 185 222 210 236 223 207 199 157 171 206 246 270 291 303 333 353 344
37 70 5 33 44 56 53 62 87 87 57 36 44 36 8 28 24 48 41 27 44 43 22 22 23 24 47 122 154 156 156 161 170 192 163 208 165 199 254 298 283 259 296 349
52 41 45 38 17 47 86 82 97 73 87 44 62 46 31 9 24 21 14 -22 -44 -39 -9 7 12 31 38 92 134 143 129 88 90 154 158 144 128 165 210 242 236 283 322 330
50 72 -16 18 32 42 66 80 116 96 75 160 124 81 75 23 11 28 20 6 -1 -11 -20 -3 -2 8 5 12 34 45 60 66 72 83 109 118 141 175 215 250 269 267 256 288
82 96 27 23 33 58 47 84 117 138 143 108 106 77 85 43 29 22 8 36 42 40 37 14 -10 -13 6 3 13 24 65 72 78 101 115 148 171 192 185 169 154 208 230 292
180 128 93 16 18 67 25 105 113 107 102 116 134 66 43 46 43 22 25 34 31 44 70 80 65 38 33 35 36 78 107 119 126 136 152 176 162 139 151 148 193 247 337 292
70 74 93 65 58 75 66 65 124 126 124 133 42 108 57 50 36 29 23 42 71 95 99 97 90 86 89 90 112 110 111 113 121 143 161 186 193 195 201 207 265 311 353 441
151 104 133 88 115 71 45 73 70 72 130 95 108 112 96 118 95 78 54 73 114 143 159 176 164 145 131 112 127 148 140 143 130 150 179 203 233 271 284 308 343 410 491 476
140 204 168 108 125 121 32 54 96 130 175 198 167 143 134 124 139 148 127 143 183 225 236 235 232 227 213 185 153 156 150 157 176 176 190 206 235 271 297 341 440 510 653 632
113 162 187 146 193 42 61 144 127 109 127 176 153 138 111 136 227 239 209 173 229 260 241 209 186 178 175 155 160 164 185 192 189 190 185 186 217 271 332 413 437 420 313 289
134 181 152 168 166 134 91 127 133 164 109 148 140 128 170 215 234 233 244 239 196 157 159 161 142 136 142 161 159 189 190 170 171 176 188 205 235 251 225 208 167 100 139 124
179 185 160 183 194 137 91 102 179 184 152 219 174 170 220 207 181 154 140 150 171 168 149 135 141 164 204 193 173 197 183 182 188 180 175 146 128 117 107 128 124 114 114 123
257 241 201 234 186 128 114 163 203 192 184 90 141 188 200 150 104 170 164 173 158 136 141 158 207 253 228 199 215 237 203 198 167 158 153 156 163 157 150 120 96 85 95 105
263 270 238 262 242 142 212 280 223 143 126 122 142 178 192 152 197 222 188 173 158 175 191 225 270 279 255 236 237 237 234 168 170 185 185 170 153 123 109 113 104 100 109 113
197 203 270 211 226 227 139 164 179 180 129 96 180 183 211 218 196 204 209 185 179 200 226 231 275 304 285 264 250 255 202 186 193 182 170 157 129 124 109 114 114 107 111 115
186 182 197 259 187 192 169 177 163 156 109 95 124 215 213 217 224 240 241 229 223 224 250 260 303 316 321 283 287 252 212 198 173 179 162 146 139 127 122 113 114 117 128 138
165 251 234 268 227 225 146 160 170 159 154 180 223 206 227 277 270 276 275 261 263 286 294 298 314 327 322 302 331 289 234 184 190 171 160 147 127 127 117 111 111 116 124 136
224 189 279 242 198 239 205 235 202 190 165 179 272 289 256 276 308 297 315 300 315 333 320 336 343 347 320 326 322 289 240 200 172 166 143 131 113 103 96 98 96 116 120 135

GFSCGP_con_3kmhel_042.txt.gz
Helicity
24 -0 12 -11 -21 -58 -32 -10 20 25 25 28 46 45 45 81 51 48 34 22 21 14 20 35 39 44 47 34 33 41 31 19 2 -21 -36 -41 -34 -23 -8 17 29 45 42 60
9 7 -0 -17 5 -22 -21 20 10 19 38 32 21 31 26 41 59 45 51 32 18 -3 -6 10 18 24 33 44 37 31 43 31 7 -28 -33 -35 -20 -4 14 27 34 41 58 82
-13 26 12 -7 4 -11 -21 40 15 30 18 14 24 4 26 14 23 30 9 2 9 -1 3 11 29 33 34 43 48 28 13 -3 -8 -18 -11 -16 2 31 42 47 75 83 101 96
-13 -1 -5 -15 -18 -15 -12 45 27 14 2 23 7 14 30 14 32 43 44 22 1 -14 -17 -9 5 17 26 14 9 8 4 2 1 6 21 30 38 38 57 69 83 100 121 120
29 34 8 -15 -33 -8 -30 29 20 34 13 24 14 5 75 18 -17 42 51 55 36 19 12 9 24 17 21 14 25 32 30 25 22 28 24 35 28 35 70 101 130 146 159 178
-7 50 11 -38 -26 -29 18 23 31 29 25 3 34 3 25 20 -4 4 9 49 33 15 13 -12 -20 -14 -0 21 37 47 55 56 52 65 29 28 35 45 145 132 178 191 198 195
48 12 3 -23 -25 5 -9 14 -6 9 22 -0 60 21 -14 27 7 25 32 22 13 2 4 -4 -3 21 30 58 82 91 97 100 167 135 113 80 86 62 174 161 215 279 282 278
40 31 29 2 -3 5 -9 -7 20 13 7 29 65 11 32 49 27 23 18 21 2 -1 -11 -22 -18 8 43 69 106 115 139 157 204 183 164 95 56 133 189 146 216 268 326 280
53 12 61 32 27 -10 24 24 65 60 62 45 40 36 3 43 28 25 26 26 43 20 8 -4 -17 -5 12 27 75 99 123 161 193 166 206 97 121 136 139 133 186 229 276 286
77 37 43 51 35 69 72 70 67 72 55 46 66 38 31 36 31 39 41 56 42 36 45 42 32 35 34 34 32 64 62 78 96 70 226 148 81 79 77 135 161 207 206 245
53 61 95 59 48 35 39 27 81 83 81 54 37 29 49 12 41 42 49 22 33 36 27 28 35 51 50 47 15 28 55 85 74 80 121 135 105 97 100 120 123 147 185 223
47 75 71 61 76 49 3 3 37 77 65 76 61 20 69 48 32 25 28 37 29 18 23 39 44 51 51 62 70 64 70 79 83 112 92 60 84 109 127 144 158 172 198 250
104 95 56 82 75 34 46 32 33 84 96 32 43 42 62 61 37 18 18 32 40 45 52 66 76 77 69 61 65 66 73 81 94 98 106 117 133 171 173 183 177 181 162 170
77 82 47 62 58 58 70 38 25 33 42 47 -27 6 21 14 23 22 46 48 45 47 56 83 94 91 79 88 86 101 145 145 147 146 149 165 162 165 170 170 155 168 190 165
93 89 54 45 40 28 -1 -1 18 29 -12 -42 -12 5 24 19 26 46 74 48 54 59 74 89 128 128 139 150 164 186 210 217 196 185 196 206 217 236 233 231 204 200 192 233
75 108 93 71 60 29 10 -16 -2 20 -36 38 -10 10 3 12 79 88 87 58 61 90 97 127 157 178 191 210 218 196 206 212 211 215 218 208 209 216 222 222 217 231 256 282
110 95 79 27 63 68 33 17 -0 25 47 37 -11 -6 4 52 51 82 112 103 76 99 131 178 216 237 241 232 215 223 203 183 187 204 211 199 193 200 201 203 211 254 234 265
81 101 122 92 112 90 4 95 12 21 7 42 2 -6 38 57 110 137 132 137 147 146 202 246 255 243 225 210 200 177 174 192 213 215 189 164 165 181 190 191 195 173 176 169
74 85 122 139 93 84 56 97 124 109 15 47 63 17 65 123 147 146 199 219 230 229 246 232 190 164 166 177 164 178 202 193 178 168 169 171 170 178 157 143 112 79 80 93
119 143 121 152 128 67 27 72 98 122 41 27 41 53 132 150 126 121 191 198 222 210 179 156 151 155 166 174 184 206 191 185 193 181 187 185 165 144 145 131 138 124 98 85
177 173 142 129 128 112 117 139 142 96 58 59 48 56 154 158 80 211 229 207 183 176 171 161 170 191 198 196 202 228 211 223 194 181 184 188 174 143 111 99 93 94 94 90
128 133 173 176 138 94 170 205 162 114 88 76 69 94 117 161 173 190 231 216 198 188 173 175 199 223 223 210 217 238 222 197 196 187 170 157 148 128 115 113 109 101 109 109
146 145 140 139 140 145 169 107 99 135 116 109 91 116 150 235 188 207 241 221 199 184 184 192 229 255 243 229 222 236 199 197 207 208 186 179 157 140 129 134 131 121 116 117
139 62 109 107 75 56 74 104 168 130 137 142 110 140 201 235 203 212 226 231 211 204 211 240 267 285 293 284 277 250 236 225 218 218 230 189 197 157 145 124 125 133 140 140
97 98 127 139 81 98 62 84 123 172 178 154 138 152 166 255 237 246 262 244 242 256 275 281 295 296 314 318 308 276 244 229 243 245 225 203 175 163 145 142 144 148 173 151
120 109 159 133 77 83 25 65 108 152 174 171 194 200 214 246 285 278 293 299 314 332 341 350 356 358 359 371 354 298 265 243 245 239 212 195 174 155 146 144 124 135 126 133

GFSCGP_con_3kmhel_048.txt.gz
Helicity
17 14 18 34 56 32 -18 -11 32 83 70 35 33 19 167 45 -52 154 135 137 90 66 77 24 59 32 6 28 2 -12 -55 -101 -132 -133 -64 -40 -31 -26 -47 -48 -33 33 37 50
0 53 36 -3 -34 -62 -65 -37 5 30 51 33 3 -1 219 -6 -33 135 151 182 135 117 116 76 133 80 49 79 16 13 -5 -31 -51 -49 -49 -49 -16 -29 -46 -58 -11 74 46 94
21 -4 35 15 -6 -14 2 -16 -21 64 13 13 -7 16 90 69 42 101 104 190 198 177 171 122 124 64 104 118 50 7 50 30 -7 -10 -43 -50 -10 -18 -37 -18 54 123 112 73
-12 2 0 16 -3 11 -4 -20 -13 25 22 -10 65 -6 25 10 176 61 122 150 158 142 193 109 105 112 100 118 107 54 83 55 35 22 -28 -19 14 5 28 13 84 96 75 69
-19 -24 -27 18 -1 -18 -17 19 -36 -13 47 40 36 -26 20 52 39 70 119 140 148 167 160 203 106 78 176 118 189 106 104 90 58 8 -7 -23 49 13 13 99 108 232 165 108
-14 -7 -8 22 -13 -38 -17 8 -8 -12 -1 -18 42 32 91 79 -21 -26 122 96 108 161 182 222 163 81 80 94 149 146 90 107 112 138 25 -14 -3 44 5 122 199 229 146 127
-10 -45 7 21 -2 12 6 -6 -8 0 -9 32 16 13 54 61 15 39 81 123 119 89 132 191 186 160 118 117 136 100 100 66 61 162 114 26 73 62 43 15 234 303 210 129
20 25 -53 49 -31 12 29 1 -6 -12 -10 -47 153 10 59 35 -14 46 46 3 68 123 145 192 194 223 162 149 172 177 157 113 82 96 178 199 122 179 112 87 166 283 240 127
8 -7 22 41 47 -40 -3 13 -42 74 28 -4 37 -7 -12 71 42 31 12 24 32 -1 93 137 164 193 236 226 212 246 200 158 111 181 276 350 229 153 78 170 157 201 229 256
-99 15 2 64 35 39 -64 -6 -26 -37 -34 3 -1 -1 79 69 57 80 1 13 44 61 36 23 123 156 202 264 289 316 304 190 167 155 334 376 324 172 140 131 181 199 215 245
-80 -39 32 89 133 35 16 -33 10 -57 30 -10 -25 -1 79 58 24 30 23 75 45 26 61 46 59 64 129 172 278 311 331 255 249 256 412 403 352 283 191 201 186 196 231 279
-80 22 51 35 62 35 -20 24 -7 52 48 12 80 -56 31 31 2 34 65 39 82 58 26 46 28 59 109 181 142 225 234 250 276 320 329 218 167 219 215 199 194 214 264 268
-7 26 50 44 83 23 25 6 23 -5 39 7 72 -22 39 8 63 56 102 43 65 91 26 58 86 68 73 81 121 236 288 268 193 195 275 156 177 275 297 294 268 263 278 260
145 71 72 73 66 30 39 53 29 -2 20 37 7 -3 27 32 86 22 31 59 39 86 83 75 117 100 109 109 125 183 191 152 170 190 251 361 363 293 264 284 295 319 340 377
141 105 52 25 50 15 32 24 9 -24 21 55 72 21 10 1 96 69 26 78 107 102 113 108 82 170 238 212 231 221 292 274 316 302 347 356 266 234 230 262 287 298 306 327
122 139 87 72 51 50 62 65 23 27 -8 28 42 40 -7 21 58 36 28 70 89 95 95 134 129 174 316 201 259 321 275 291 346 391 417 349 319 270 219 230 200 230 256 261
124 196 92 74 52 100 60 62 12 29 29 34 32 45 43 24 13 28 49 81 104 150 218 180 86 283 383 332 368 338 327 319 400 409 393 398 403 383 360 321 313 327 293 289
211 126 142 152 112 11 37 48 67 70 60 68 49 38 33 40 36 36 113 140 198 272 299 218 255 294 344 359 333 337 311 342 317 337 336 299 266 251 278 281 313 299 291 260
236 321 234 193 125 93 98 70 133 144 61 29 30 40 37 25 126 109 120 165 248 352 329 296 300 302 305 328 266 269 274 284 267 221 198 209 231 268 294 309 281 249 234 223
99 321 268 224 216 127 96 77 46 30 60 53 53 29 23 34 96 93 115 200 354 352 275 290 322 330 291 264 264 259 252 214 211 215 244 262 279 289 299 271 270 259 237 218
37 109 231 194 183 141 133 59 40 35 19 5 25 15 48 110 113 145 213 281 296 287 295 331 284 263 239 237 223 215 222 238 267 300 322 325 312 270 214 186 173 173 213 262
141 53 162 182 182 124 123 38 38 59 44 46 29 37 67 88 151 164 267 332 326 293 282 279 270 251 238 215 228 262 293 369 390 364 317 249 193 184 212 248 263 274 270 260
129 87 151 179 222 193 52 76 67 72 46 27 20 61 78 174 189 202 238 275 298 275 281 243 284 275 245 231 272 336 373 342 317 270 277 281 264 271 256 272 261 316 284 296
116 91 117 84 67 164 39 78 93 75 88 115 56 75 67 158 220 236 231 258 318 283 224 292 316 338 341 348 356 341 322 287 328 345 315 285 304 297 319 322 343 346 340 298
141 81 74 45 10 31 115 116 135 41 33 71 65 57 106 132 212 244 219 270 277 272 276 339 369 372 362 336 409 346 343 379 398 400 384 368 314 308 419 454 382 299 286 257
92 71 93 74 47 44 29 29 9 42 30 42 55 67 49 79 211 226 226 273 262 270 373 422 391 384 409 460 443 440 410 433 505 531 477 384 408 413 382 320 319 283 168 159

GFSCGP_con_3kmhel_051.txt.gz
Helicity
46 63 39 11 -5 70 81 92 -5 -32 108 64 158 184 94 28 -38 182 263 198 118 82 99 70 19 -11 -49 -6 43 50 52 75 72 5 -77 -178 -173 -109 -117 -105 -80 -73 -50 -49
21 49 45 22 54 58 42 -45 -65 49 -1 89 130 106 67 17 -28 168 345 266 172 134 111 99 59 6 -44 -27 -8 -6 -36 -58 -61 -103 -160 -139 -111 -124 -73 -63 -73 -32 17 13
69 26 20 63 71 2 -23 -19 -36 -26 25 46 20 158 82 -31 81 8 293 349 228 200 128 89 115 49 21 35 27 19 -25 -138 -221 -230 -158 -121 -91 -103 -65 -57 -76 -44 57 117
-1 7 26 12 55 6 -28 -4 -22 -57 -3 -23 45 10 34 77 294 16 192 350 306 256 181 152 107 97 72 19 30 44 28 -22 -83 -98 -90 -51 -47 -34 -18 -35 -55 21 126 117
36 12 -6 -25 20 16 -13 14 -12 -75 -67 15 30 51 6 222 264 94 -6 270 281 330 250 229 198 126 49 51 60 54 64 43 14 -7 0 -16 -25 -28 56 38 21 89 128 150
-54 17 -41 3 37 48 -67 59 53 -32 -46 -59 -14 7 19 44 138 160 226 206 293 270 288 244 185 154 97 72 66 88 85 95 57 86 36 -6 -7 13 54 62 77 135 100 123
-6 -28 -19 -30 26 70 -48 23 -16 -52 -10 -4 -53 -75 30 13 57 155 131 268 273 330 306 248 226 168 160 143 127 104 118 110 102 74 49 57 34 3 59 102 154 255 231 209
82 14 -44 -21 36 66 13 74 55 0 -22 -56 -93 -23 -11 18 -34 -14 41 191 232 278 305 287 306 262 225 214 184 200 176 169 151 151 86 67 58 159 183 138 132 215 243 263
136 21 23 16 10 115 66 61 65 65 37 -41 -22 -32 -1 -29 -2 33 21 34 110 233 270 311 273 320 304 295 265 348 279 226 198 194 223 144 40 98 161 206 193 223 229 222
66 103 -9 -54 37 124 78 58 13 88 -3 -20 -12 16 14 187 14 67 77 57 52 118 240 285 310 320 315 360 353 386 372 325 278 324 329 251 144 248 227 254 261 189 151 188
31 84 -4 -15 39 164 171 33 41 30 61 21 18 16 26 72 101 46 31 81 95 71 75 94 140 237 283 333 314 321 275 196 140 226 254 365 363 385 318 255 195 188 159 179
101 139 -39 16 51 127 171 116 95 76 29 103 119 43 18 15 -13 -34 87 106 137 147 140 101 61 122 124 230 423 426 416 493 79 160 260 294 383 281 256 402 287 240 223 173
175 192 98 70 63 45 67 85 104 111 137 74 105 85 -40 37 6 33 61 90 144 152 136 117 82 40 60 146 159 308 397 336 63 60 171 291 318 239 302 282 276 251 274 218
203 194 109 69 142 80 110 76 53 100 151 101 119 122 80 -16 19 80 120 99 50 113 132 149 152 119 74 87 90 167 216 183 195 88 304 338 321 361 374 317 249 232 249 305
175 167 93 116 3 86 54 47 39 88 121 133 75 84 24 -5 48 122 108 74 49 133 112 131 167 200 251 223 214 301 310 338 331 365 413 357 344 372 369 338 311 312 331 351
178 211 143 106 96 52 54 57 -29 76 105 110 108 53 -6 16 114 113 69 47 87 137 149 157 177 271 408 436 368 341 348 371 378 394 404 423 413 397 354 345 324 338 362 378
171 213 214 139 108 119 57 -9 14 -30 50 79 86 70 66 94 131 72 78 92 93 182 204 217 289 365 420 478 495 414 342 367 425 484 480 497 504 463 390 344 355 353 346 339
353 185 254 198 190 170 114 0 123 56 40 43 86 82 68 50 57 75 107 52 106 193 256 339 426 485 524 566 525 481 444 461 506 537 545 505 448 437 450 433 368 346 319 309
90 175 249 270 234 204 116 121 114 56 46 47 65 29 57 72 52 119 173 147 136 178 254 366 462 500 575 617 568 582 521 458 464 445 415 401 416 411 395 367 347 314 303 284
34 153 297 311 254 168 96 125 133 103 68 86 72 78 93 121 121 95 166 167 162 208 310 421 446 498 536 538 502 452 439 428 364 343 331 308 312 349 334 300 271 268 279 278
122 141 265 354 308 242 123 82 99 146 114 66 62 78 64 55 44 79 130 135 162 225 328 444 458 472 494 507 480 410 368 341 320 309 301 334 340 336 322 321 314 287 285 310
77 161 103 188 211 158 161 169 144 132 58 25 30 -7 4 58 67 87 121 137 196 282 365 431 443 427 431 436 420 380 354 359 393 407 390 381 384 363 330 285 266 299 332 343
51 79 131 72 60 159 134 32 98 91 27 45 58 102 56 73 122 108 173 207 272 365 417 436 428 401 383 394 386 433 441 480 464 428 415 397 372 353 314 325 372 421 392 379
107 190 101 92 69 49 116 43 78 -13 124 92 17 15 14 50 70 153 165 244 314 365 405 419 421 410 412 436 471 508 494 453 422 432 431 463 482 449 471 495 505 482 457 490
126 180 132 105 35 55 19 92 32 95 208 159 212 47 53 73 88 160 233 256 310 363 391 403 441 464 501 548 558 509 426 432 472 487 522 527 599 658 676 600 478 511 483 408
104 115 174 132 -10 16 -5 48 81 24 57 399 153 29 54 56 112 178 220 253 314 354 390 454 505 541 575 593 546 448 409 478 577 635 651 631 620 636 619 574 571 525 453 416

GFSCGP_con_3kmhel_054.txt.gz
Helicity
75 134 91 50 52 9 -23 4 78 147 124 122 80 88 138 137 169 183 183 136 73 104 78 79 83 70 77 109 87 78 93 59 50 32 -12 89 77 116 202 143 2 -34 -23 -32
87 117 35 21 13 -11 -31 -4 54 33 35 63 37 100 62 105 83 116 190 174 147 95 106 73 50 36 7 25 74 75 58 11 -23 -50 -63 20 22 -38 -49 -72 -109 -105 -70 -59
81 80 13 -3 -22 -20 14 61 78 30 -12 66 129 57 102 22 -31 65 156 216 201 215 150 92 71 47 20 21 31 46 30 41 -48 -25 -29 -46 -51 -84 -161 -240 -193 -155 -86 -53
41 -9 -30 23 20 70 48 38 -20 -2 14 -41 33 25 34 94 19 24 159 226 261 216 138 122 103 86 38 13 -15 11 17 -7 -85 -68 -95 -179 -185 -154 -159 -191 -163 -113 -57 -41
102 40 40 -17 1 34 9 13 10 43 -7 -42 -63 -24 -11 131 65 55 153 204 228 266 251 189 109 100 37 42 23 -4 5 -10 -92 -148 -153 -174 -133 -126 -124 -123 -59 -44 -56 -33
15 48 48 49 3 4 11 42 74 82 40 -84 -24 -37 -112 63 198 178 123 171 228 280 240 178 155 100 59 40 42 6 10 -45 -102 -168 -131 -92 -77 -68 -86 -108 -90 -51 -48 -2
7 0 1 33 83 17 30 107 51 41 24 -18 -31 -29 -14 103 181 285 194 214 188 278 275 191 155 163 135 141 94 67 54 2 -31 -43 -29 -16 -21 -47 -63 -58 -49 5 11 95
122 55 -11 91 84 44 70 87 79 41 5 -10 -25 -27 -21 -9 27 131 165 197 211 231 259 271 233 198 169 207 172 146 134 86 75 72 35 33 15 8 -29 -55 9 36 61 119
144 79 74 41 64 54 45 102 69 133 107 8 -65 -89 -56 -40 16 56 91 139 180 252 276 247 235 214 208 191 246 235 201 153 135 145 87 50 31 31 44 42 67 154 150 122
84 70 52 26 65 32 90 117 149 170 65 12 -64 -12 -11 -22 4 3 37 80 146 237 288 250 257 240 271 296 264 268 253 218 149 150 149 91 46 3 23 44 86 120 159 176
53 130 37 92 93 88 66 83 151 118 147 73 -1 -23 11 18 57 57 26 79 93 162 224 261 270 249 235 292 300 296 252 199 144 199 185 188 106 48 122 93 176 209 214 255
121 71 64 30 51 79 85 35 151 163 163 183 119 -78 31 39 5 23 55 49 76 100 116 162 228 291 251 267 320 363 376 347 207 144 290 386 214 236 282 303 79 192 284 250
103 137 146 63 37 14 45 93 111 191 156 108 138 88 107 50 29 32 -40 21 56 129 138 115 120 154 176 234 295 379 450 466 437 300 274 275 280 415 432 186 246 208 277 303
68 144 154 91 86 50 117 100 62 156 172 141 173 129 80 73 67 39 79 6 51 130 126 184 177 131 122 150 230 288 409 451 417 355 362 265 353 366 323 379 319 224 238 270
74 97 111 107 69 64 136 132 98 118 159 154 127 118 86 74 84 56 50 88 104 90 78 93 153 208 198 163 182 188 262 333 409 402 336 269 242 248 249 289 380 309 263 226
122 83 118 95 106 130 96 88 104 54 38 100 137 88 116 107 91 68 52 71 27 116 94 181 162 250 309 287 294 241 225 205 255 245 206 266 307 297 313 372 394 361 314 302
140 139 202 104 112 97 86 69 103 111 106 114 136 65 67 72 52 26 86 69 116 78 56 201 187 235 380 414 410 383 314 294 250 275 332 328 363 401 404 439 425 401 356 390
-35 77 165 87 201 145 30 130 76 56 62 88 117 94 64 53 45 88 74 72 86 123 148 166 189 295 424 505 558 535 505 437 379 409 437 439 499 483 482 469 415 384 370 357
-4 106 76 126 207 213 153 207 164 139 111 101 93 86 84 75 42 72 37 74 30 125 197 219 255 377 503 557 564 563 561 485 451 458 482 498 511 501 443 404 357 354 371 379
-108 47 77 71 156 193 87 112 197 169 141 125 128 216 50 47 85 59 55 116 144 171 209 220 266 383 504 541 556 561 541 490 433 395 409 429 418 391 352 353 347 341 347 364
19 22 -1 77 64 238 226 182 143 124 88 167 115 141 194 35 52 60 125 143 151 164 185 232 248 292 423 535 539 509 472 400 342 336 370 401 367 328 303 317 319 337 362 390
-24 -17 -49 71 154 139 140 184 139 189 191 138 76 33 76 19 39 43 90 138 144 154 174 230 303 329 397 447 473 443 409 380 373 378 387 347 304 311 317 349 370 393 430 484
12 16 -28 -10 41 235 106 79 39 166 150 263 238 318 140 41 71 127 150 158 141 152 194 259 322 378 380 384 394 413 396 415 405 377 341 334 351 336 338 369 417 441 452 488
31 34 7 122 60 13 -4 22 9 2 13 71 142 222 221 218 69 66 129 170 203 237 261 282 343 365 387 406 401 415 402 390 377 358 367 380 407 464 485 491 454 446 472 491
2 19 -1 98 116 65 7 -8 30 34 65 8 40 74 138 201 208 114 119 196 234 266 269 277 335 383 437 454 462 439 427 402 401 426 466 499 517 535 579 626 557 541 516 455
24 32 38 96 28 75 74 32 0 -15 115 50 42 67 71 32 193 85 128 205 255 287 327 356 399 465 479 509 511 477 477 518 535 538 523 530 583 606 621 646 706 709 604 570

GFSCGP_con_3kmhel_057.txt.gz
Helicity
161 234 232 135 114 89 85 79 40 28 79 53 84 61 48 118 193 189 141 134 88 81 93 122 125 119 -3 -2 76 125 121 181 272 261 311 193 188 395 516 378 187 83 74 180
172 121 132 63 62 35 59 83 -3 -15 15 59 7 46 26 151 145 166 181 99 90 102 137 144 152 127 116 68 -3 69 108 140 173 126 72 170 200 312 455 280 102 69 80 72
163 118 120 104 47 40 93 64 3 73 26 55 -1 -35 19 65 72 117 121 107 79 117 127 138 158 133 132 115 111 110 115 92 -15 -1 -0 50 50 165 123 105 -156 -92 -22 7
87 33 71 91 7 93 65 46 39 84 101 86 61 -21 -17 31 9 92 63 134 150 113 105 117 128 105 93 74 61 53 50 60 11 -18 -70 -74 9 20 -12 -70 -136 -118 -71 -54
93 83 41 48 5 136 2 53 72 52 67 108 72 26 -45 37 7 54 128 90 130 133 161 166 161 124 82 40 28 15 -7 7 -0 -53 -59 -53 -67 -34 -76 -102 -132 -152 -173 -133
68 141 95 81 51 91 57 89 136 86 101 64 62 22 -26 -10 23 38 89 89 121 119 128 125 106 75 81 42 5 -8 2 -28 -9 -38 -29 -68 -129 -175 -192 -185 -222 -218 -186 -133
60 89 75 81 110 98 151 147 147 144 110 6 75 40 31 40 57 107 203 187 158 143 140 130 185 189 142 113 57 8 -7 -21 -6 9 7 -25 -97 -193 -183 -151 -146 -146 -151 -133
120 75 85 86 68 137 130 141 162 119 96 20 79 49 -3 2 76 26 108 115 170 159 156 185 206 219 231 182 123 92 52 -3 -21 1 6 -7 -64 -107 -114 -107 -74 -125 -124 -93
70 90 103 92 120 109 100 140 116 174 130 70 42 70 36 1 -25 33 28 64 114 157 196 169 205 231 238 226 205 179 99 39 23 -14 -51 -55 -73 -56 -32 -59 -77 -109 -111 -99
139 85 84 87 117 122 113 90 143 192 135 99 65 59 46 61 19 -6 3 71 89 162 184 171 171 225 241 266 231 216 177 97 64 48 34 26 30 12 24 22 24 3 -27 35
123 96 50 109 136 128 187 159 128 97 166 141 63 16 37 82 9 22 -8 -5 60 164 224 256 262 274 303 251 245 213 211 200 136 146 137 110 131 164 135 116 117 180 173 160
151 101 55 75 83 98 134 121 117 163 170 167 97 -25 29 107 64 35 30 14 -11 70 183 242 276 315 360 364 338 363 337 340 252 128 115 168 150 88 114 131 191 261 253 115
144 190 93 52 72 97 104 142 125 133 142 175 174 39 51 36 50 32 50 70 34 5 62 141 177 229 284 339 376 414 458 500 487 369 164 71 60 125 200 240 277 142 244 104
72 131 113 71 76 69 127 149 143 149 166 145 177 97 127 84 53 69 75 89 47 34 40 94 174 174 184 199 277 327 373 437 491 490 379 286 249 247 276 323 323 243 140 282
65 130 170 153 78 81 109 134 127 132 131 166 134 172 97 106 96 68 42 71 38 60 80 113 151 128 142 169 174 214 241 324 385 415 380 318 320 339 294 291 277 239 233 264
-20 139 101 129 120 92 85 91 95 99 123 168 153 141 92 83 102 114 69 33 65 42 108 132 147 157 143 168 190 238 234 273 362 387 386 387 427 397 299 229 286 325 335 314
37 16 85 83 265 223 99 69 102 121 77 131 166 82 87 47 72 81 80 81 78 47 63 95 230 179 208 192 224 232 237 292 328 376 409 461 427 342 275 335 322 320 354 364
49 -12 -64 76 197 159 126 1 80 130 118 98 103 108 88 53 52 71 71 85 73 77 35 74 168 194 199 266 264 318 349 365 314 345 319 338 355 360 334 316 347 389 367 379
85 80 -86 -95 66 120 97 106 36 68 80 123 118 109 107 88 92 114 64 61 69 103 91 99 125 258 321 296 329 396 399 419 380 347 309 331 390 417 383 366 391 397 415 424
124 114 87 2 -156 -2 70 99 90 -27 66 76 183 118 102 178 135 122 191 65 33 52 99 167 218 284 274 314 381 403 406 409 400 385 377 379 377 365 382 378 385 373 374 380
215 257 61 49 63 26 -66 70 43 94 72 124 165 205 228 141 144 147 98 136 62 88 134 202 224 229 211 281 363 385 398 403 411 392 345 310 291 308 351 397 380 383 402 456
135 128 113 41 20 -91 74 71 187 212 148 178 99 89 104 85 72 70 44 52 82 107 187 216 212 187 205 285 350 368 362 388 385 384 361 332 311 311 360 408 400 383 426 477
152 179 96 102 58 34 -116 -99 -26 157 264 150 154 237 254 220 181 140 50 52 87 119 135 168 199 233 251 280 303 342 339 400 415 404 377 362 383 382 374 373 409 445 446 454
143 143 142 125 45 -11 42 48 128 106 105 64 7 137 197 258 324 335 245 146 72 111 163 219 224 214 248 267 294 311 362 361 373 376 364 385 418 438 434 440 424 424 421 433
94 129 106 79 59 25 22 16 22 90 20 6 63 128 95 95 110 142 285 180 113 124 152 197 219 257 278 285 293 292 324 374 391 409 420 449 468 488 528 539 457 454 439 369
185 138 132 108 74 3 24 42 56 -11 38 6 25 50 90 23 2 16 59 159 174 173 193 264 275 294 308 305 307 318 336 370 412 412 423 436 457 465 472 515 598 601 470 441

GFSCGP_con_3kmhel_060.txt.gz
Helicity
225 265 237 222 222 155 91 98 120 72 -6 -13 17 34 55 46 159 170 105 93 94 60 94 104 99 109 104 38 83 115 132 198 203 240 186 231 203 177 141 187 124 135 116 141
265 155 198 133 141 102 112 87 79 88 9 8 -38 -10 -9 47 109 188 103 95 96 108 116 126 110 105 107 81 35 119 146 146 305 189 192 276 271 290 297 180 223 224 262 183
256 146 194 171 153 136 116 108 85 81 97 61 46 -44 -31 8 62 103 89 58 80 135 154 142 134 119 133 116 102 81 57 58 163 274 301 231 290 302 230 219 302 366 274 83
148 125 147 159 136 175 96 89 75 56 133 15 78 11 -54 -27 -24 28 98 104 99 125 148 129 121 98 122 120 97 102 103 60 36 127 190 167 152 183 96 200 292 252 214 -12
165 118 162 156 89 147 44 81 84 114 163 120 105 65 -47 -48 -76 -10 111 145 112 122 165 178 144 106 104 124 102 66 79 99 66 78 47 -2 -41 -83 30 85 -7 72 38 -42
125 107 125 103 81 100 77 69 110 125 134 82 59 82 10 34 46 18 13 114 126 127 134 150 153 138 97 119 127 75 34 59 54 59 21 18 17 10 -17 12 19 -23 -94 -80
132 111 182 143 128 106 161 178 210 176 184 122 86 89 59 73 56 89 71 52 132 155 124 154 201 169 148 138 147 126 71 17 7 -9 -3 -36 -86 -67 -56 -52 -21 -61 -126 -145
146 131 148 126 135 183 226 210 217 131 142 108 137 62 -25 21 41 82 42 27 53 133 109 125 177 188 169 161 143 146 130 71 45 8 -33 -52 -55 -83 -105 -155 -170 -184 -180 -245
145 114 134 123 156 150 167 240 137 145 122 106 102 88 42 17 16 47 27 32 25 104 149 139 139 183 192 191 186 178 141 107 97 66 16 -26 -34 -37 -76 -84 -100 -133 -166 -166
116 98 70 95 119 173 153 114 201 235 125 112 110 88 55 39 62 43 14 0 2 54 82 126 151 164 185 199 215 190 188 152 126 104 74 21 -17 -35 -58 -100 -113 -96 -88 -46
116 110 120 139 154 128 190 172 162 153 186 131 112 70 39 41 59 69 55 4 11 45 101 126 149 162 173 202 235 225 207 195 169 152 120 110 96 88 69 23 -8 19 27 34
105 129 93 70 48 110 166 116 126 170 173 173 138 121 108 -6 33 63 28 40 38 38 70 92 100 124 168 220 244 263 231 235 244 226 171 117 80 62 100 137 106 120 77 109
161 146 79 76 116 86 110 170 146 159 171 164 143 122 73 33 23 48 40 38 47 52 40 75 107 152 185 226 260 293 293 304 319 323 281 234 181 140 110 178 138 172 171 163
257 189 138 103 163 225 168 128 144 178 169 184 172 96 105 81 55 37 43 32 62 62 59 57 118 135 163 185 190 211 228 263 304 357 355 341 263 223 224 290 256 246 261 212
158 197 186 187 113 116 104 97 145 172 197 134 87 74 53 98 113 87 79 52 63 97 78 82 100 140 182 148 120 125 115 180 252 296 358 370 376 268 221 242 282 284 264 240
80 121 89 136 150 132 62 89 99 124 128 83 82 94 75 46 95 60 46 47 39 50 42 37 75 147 167 177 154 158 129 159 233 258 299 291 300 264 240 269 292 269 244 202
78 41 50 75 122 149 77 95 102 72 67 73 49 97 109 125 110 79 68 76 58 53 52 49 67 120 157 220 199 188 205 239 257 278 273 281 274 258 249 262 284 275 222 279
146 99 81 38 19 108 110 244 120 98 120 128 92 97 108 84 117 96 65 68 55 77 75 60 75 80 100 196 199 225 274 262 279 273 292 304 321 283 289 271 262 296 347 356
139 144 79 33 10 22 60 127 110 17 72 43 48 112 132 91 70 119 69 40 46 110 134 103 40 32 124 173 226 286 297 290 300 305 332 333 345 276 316 324 379 360 336 300
197 242 191 98 68 -3 -63 10 34 -43 35 52 59 44 68 111 150 107 85 87 46 46 42 53 34 64 63 142 274 311 257 264 277 304 328 325 327 328 307 319 303 292 303 355
101 182 183 166 100 41 11 9 2 -91 -38 33 158 202 75 26 60 97 102 58 30 93 71 92 34 62 111 205 255 243 240 236 325 364 370 315 275 258 251 283 282 307 364 445
29 54 91 166 124 91 109 86 -27 -10 19 32 166 291 305 199 89 30 85 49 47 48 57 72 73 74 128 196 256 262 254 279 303 325 318 284 271 259 276 338 368 410 466 546
73 95 70 64 58 88 102 55 18 14 -23 27 64 377 248 262 236 196 91 55 49 8 33 112 210 164 171 153 156 196 200 235 268 295 298 315 320 302 300 337 377 438 456 470
91 71 92 94 68 73 48 19 -19 -65 11 34 5 74 288 258 358 182 216 159 109 118 91 95 114 143 139 157 148 169 182 215 258 288 305 315 360 390 387 393 378 380 363 358
61 107 96 100 97 60 91 27 35 60 41 -48 -41 -2 36 15 -15 -4 64 160 31 47 205 161 107 140 114 172 108 141 178 209 260 283 296 318 339 367 422 437 354 303 287 219
137 125 119 82 123 74 44 31 10 38 99 113 69 90 146 121 9 19 9 57 -22 -46 -52 128 149 147 250 253 249 217 220 241 282 329 323 329 343 351 370 423 524 538 406 393

GFSCGP_con_3kmhel_063.txt.gz
Helicity
219 193 170 189 181 165 146 127 95 57 82 74 29 -5 50 13 45 86 127 125 136 92 62 65 65 80 66 -15 62 67 141 127 142 189 177 145 123 -73 -7 49 -43 -4 57 51
250 80 128 111 149 148 139 116 24 22 84 58 48 -15 -26 3 10 56 91 87 136 105 94 84 70 56 63 10 46 43 84 137 138 157 101 171 108 -64 47 5 107 78 63 114
191 153 120 116 137 147 109 111 62 19 109 72 89 63 -16 -82 -17 21 47 48 105 157 119 89 70 58 74 105 76 59 82 87 182 149 260 285 220 206 130 74 142 214 53 67
107 118 43 128 109 144 90 90 77 61 75 58 107 4 3 -78 -97 -29 7 74 77 124 121 104 93 72 67 85 108 133 78 90 116 190 227 101 198 222 133 183 194 149 66 109
139 129 186 86 51 102 60 99 75 75 77 81 81 63 61 17 -63 -36 2 63 99 96 141 124 112 74 63 43 96 124 136 134 78 98 70 126 147 113 176 228 176 131 137 138
89 92 103 66 92 75 75 114 145 139 123 39 45 77 3 48 15 12 10 1 47 76 92 90 100 73 59 53 43 99 131 116 133 112 68 39 35 38 92 140 78 5 -7 48
98 113 146 131 139 166 146 162 215 158 141 113 96 69 47 23 78 52 93 94 16 56 78 91 131 121 88 83 84 79 114 85 72 60 70 29 31 7 23 52 14 -54 7 36
146 126 151 170 164 146 132 185 287 143 118 96 143 21 28 21 -2 48 106 86 23 80 87 94 111 109 117 108 104 91 88 73 73 62 41 18 3 -5 -54 -32 -59 -20 -6 39
89 96 120 168 163 131 170 232 173 186 190 115 110 65 25 16 31 29 52 48 15 65 93 97 88 87 86 111 113 107 101 89 78 49 30 4 -33 -43 -51 -42 -65 -61 -87 -27
108 103 111 40 102 136 117 124 181 249 137 98 106 65 37 22 78 64 59 39 5 -10 40 43 69 73 88 101 104 114 99 119 125 92 50 27 17 -13 -29 -73 -51 -26 -50 -58
117 143 162 136 135 104 167 164 202 178 205 114 64 46 53 11 67 37 92 75 20 9 32 48 56 46 66 99 123 123 128 117 114 119 110 82 63 42 25 6 2 7 -16 -35
102 134 128 114 112 98 113 136 174 193 173 210 160 101 90 8 24 41 89 70 52 37 26 60 57 73 89 105 138 148 132 131 155 157 147 138 114 94 60 29 27 75 72 77
215 133 135 179 107 78 143 154 161 170 171 125 128 115 95 66 26 30 45 66 34 42 52 32 51 50 57 78 123 151 174 182 179 168 188 187 178 171 158 135 103 79 61 42
247 209 151 140 194 241 187 120 107 124 172 169 165 102 106 57 33 27 43 41 38 22 41 65 51 46 64 89 113 134 155 151 174 190 172 197 236 235 193 151 177 176 185 127
228 226 207 209 187 142 186 202 177 169 144 132 73 76 58 67 55 30 26 30 53 62 42 49 71 54 74 62 77 88 82 116 137 134 147 219 284 235 209 193 210 221 187 171
177 190 233 180 145 104 110 157 113 107 112 121 136 102 93 68 75 70 37 41 77 81 55 36 49 59 61 103 92 70 82 111 125 148 151 128 175 224 256 230 217 208 184 171
117 142 148 162 161 132 88 92 102 107 79 59 40 36 66 71 70 45 51 67 72 53 44 48 68 103 60 95 162 133 155 175 178 144 116 142 164 198 203 186 154 177 201 176
101 129 81 80 106 93 90 85 84 102 87 90 72 111 112 118 132 131 -5 50 95 74 57 44 56 74 78 74 99 134 136 167 182 161 170 183 196 181 186 184 170 154 158 173
73 113 126 74 31 103 132 105 74 52 78 17 20 69 65 140 7 54 86 -5 41 26 41 67 82 75 65 58 65 100 140 133 151 153 143 159 165 172 184 172 145 224 246 260
96 92 134 102 93 26 38 55 72 -12 -14 12 -5 4 46 71 48 82 269 197 108 61 51 24 35 40 47 69 73 97 136 173 167 166 150 146 172 222 288 320 275 268 289 325
124 147 116 173 102 116 155 154 72 -18 22 136 71 85 48 27 47 131 218 211 204 149 111 20 66 8 8 33 40 82 97 89 191 249 225 214 222 254 269 323 295 314 333 358
64 55 76 87 106 85 35 100 146 106 32 10 19 11 27 79 92 159 169 184 2 80 107 127 119 92 118 95 52 40 86 196 217 214 236 259 316 341 310 301 304 303 328 371
73 52 59 37 39 64 43 38 24 8 -61 -77 -9 45 52 81 117 158 215 166 91 -52 -74 -79 29 105 97 163 250 180 164 188 264 307 307 353 368 321 324 314 294 315 343 384
62 50 46 44 49 39 47 33 62 29 -25 -32 -24 -26 20 36 67 53 137 148 141 35 -6 -104 -32 145 250 294 221 148 126 183 207 223 230 245 265 290 283 277 262 276 311 345
67 56 63 70 49 48 99 104 68 72 54 22 23 -17 46 59 42 59 59 107 104 114 176 157 -20 100 275 279 317 242 98 78 126 153 156 176 243 264 328 395 340 318 310 254
66 83 83 79 102 77 63 65 54 63 65 62 58 68 125 125 121 133 86 109 155 168 114 61 57 -28 67 198 210 259 213 126 109 204 154 186 226 263 295 337 427 417 307 332

GFSCGP_con_3kmhel_066.txt.gz
Helicity
61 114 79 92 66 15 41 26 10 50 123 109 67 7 -26 0 24 14 17 62 88 82 81 77 71 99 128 23 39 32 97 101 68 118 138 147 114 77 76 89 119 57 74 65
71 69 38 54 35 31 28 20 17 53 76 32 -6 21 -6 -20 1 13 18 56 69 108 96 84 76 74 64 71 5 54 59 54 49 75 55 57 74 91 2 78 71 149 92 43
73 50 41 82 62 51 18 5 3 13 63 31 70 20 31 18 -6 -18 -4 26 70 92 113 104 89 53 47 71 76 73 60 69 64 78 106 134 132 161 96 0 114 92 -66 55
79 46 35 19 23 48 23 11 18 27 28 3 111 10 2 44 -10 -19 -38 30 31 91 82 111 101 74 53 55 72 82 84 145 135 106 167 85 211 105 69 77 -66 -71 -27 67
127 64 48 55 11 39 24 57 41 27 44 36 5 21 4 50 -13 -3 -19 16 11 65 67 92 94 75 54 82 88 80 117 137 123 97 152 138 178 112 115 138 131 7 81 76
379 48 51 22 41 46 80 74 43 70 64 24 19 17 15 25 14 22 -15 1 4 46 60 64 99 80 56 48 74 76 110 157 172 166 96 78 22 101 132 220 225 191 159 190
221 177 72 54 46 48 61 72 96 113 116 47 62 21 -14 16 12 12 58 28 1 49 73 59 103 85 76 59 49 53 68 115 162 159 102 84 27 54 62 106 111 102 138 96
98 158 86 60 64 59 62 106 168 98 63 33 117 14 15 11 30 9 49 65 30 56 87 89 76 72 81 91 71 62 63 67 104 119 88 73 65 103 59 79 92 157 186 182
25 65 145 61 51 58 79 133 113 145 172 125 73 28 25 2 0 19 42 34 33 53 102 81 48 60 64 79 72 68 44 48 81 71 69 42 28 40 52 36 29 78 126 142
102 50 20 38 60 47 102 51 106 125 98 61 81 25 33 7 22 38 37 59 41 30 57 77 56 61 50 49 46 53 41 42 50 58 63 51 49 20 11 17 38 88 90 69
143 119 33 64 90 68 119 138 149 131 95 78 83 52 43 -12 31 69 90 96 39 19 22 47 55 52 37 40 53 56 50 50 46 41 37 46 54 58 58 25 -3 -10 21 28
94 157 102 19 88 32 39 40 58 128 112 111 90 68 42 59 16 36 64 83 65 23 20 23 55 79 70 69 76 96 79 65 69 72 60 44 30 47 59 52 41 44 23 41
169 139 75 141 104 95 90 96 106 65 107 126 99 96 59 59 45 29 26 52 52 49 22 21 31 61 81 88 109 129 153 120 97 84 79 74 73 79 78 72 63 64 33 24
205 125 115 97 118 171 134 103 72 80 113 81 59 36 47 62 51 36 33 30 32 46 46 28 30 32 34 45 73 98 123 126 141 134 119 118 112 115 121 113 84 83 103 114
287 153 160 179 192 204 204 142 112 97 90 93 92 65 45 65 69 77 84 43 22 30 43 34 11 35 49 40 62 67 73 106 123 117 120 141 162 152 126 121 111 118 134 125
287 209 212 148 136 131 134 148 119 108 101 104 74 61 71 91 104 74 67 89 53 22 34 65 47 17 38 41 59 66 66 78 102 84 79 45 78 131 180 167 158 144 144 138
155 171 226 159 172 133 57 20 61 99 113 101 88 160 115 84 70 85 113 104 88 50 69 120 89 58 50 46 59 72 78 99 106 80 48 65 64 86 97 120 136 152 159 152
74 42 29 137 209 132 132 163 127 127 165 176 156 109 73 74 53 64 115 120 91 41 65 99 89 83 52 56 54 69 82 96 109 110 99 93 111 111 118 121 130 126 145 165
30 78 37 30 82 115 41 64 166 164 116 117 123 89 63 52 30 46 105 188 163 78 76 106 118 109 123 64 55 47 80 82 100 112 118 127 127 123 131 142 166 159 174 167
78 76 114 5 -23 68 93 97 63 54 83 101 83 100 76 69 75 65 86 103 186 260 210 107 85 29 29 65 62 41 25 78 103 102 116 114 109 134 134 140 174 250 265 312
134 126 47 36 37 73 119 138 124 74 138 163 143 114 95 75 66 83 107 125 97 97 254 176 115 58 44 25 33 35 32 54 95 117 133 148 124 134 171 239 303 362 410 403
84 104 113 92 91 75 109 104 181 232 154 129 92 50 37 38 45 49 64 87 91 104 84 113 173 222 151 83 75 77 100 132 118 128 166 252 316 390 376 307 375 338 336 376
66 66 75 46 48 46 90 76 60 36 6 -1 -14 1 17 24 52 54 73 78 68 59 78 53 -42 29 111 146 217 141 138 139 155 206 273 335 428 457 396 351 336 360 350 345
57 50 83 88 72 69 50 25 52 39 21 1 -7 -5 0 18 45 33 39 83 84 110 161 117 78 -89 -103 10 151 266 262 249 237 268 297 338 392 415 408 361 352 303 294 308
98 53 64 57 57 58 40 71 77 68 37 34 19 5 8 18 35 40 51 109 104 110 142 150 151 144 66 50 160 274 345 308 346 342 284 308 331 342 377 407 335 323 325 284
45 65 59 70 92 88 90 77 45 47 62 40 40 54 58 79 74 78 123 175 206 200 131 96 127 156 224 213 192 168 136 221 268 306 339 339 306 304 315 345 388 488 399 429

GFSCGP_con_3kmhel_069.txt.gz
Helicity
59 87 80 64 42 38 50 15 34 20 13 88 18 6 7 5 78 41 24 21 78 73 100 158 127 150 165 214 103 29 85 59 56 54 66 110 164 263 347 259 227 281 -63 -40
104 48 70 55 48 12 25 41 41 24 50 70 5 3 3 5 8 40 29 18 41 78 111 137 140 124 139 119 51 6 47 62 68 40 57 69 136 186 158 126 116 21 -24 14
295 87 34 98 59 45 31 28 27 27 37 35 2 1 -2 10 -9 34 7 -12 25 102 99 129 133 123 110 63 59 41 62 45 50 29 66 75 93 91 107 117 70 69 48 72
249 76 51 47 60 32 45 16 25 41 55 22 8 17 -4 12 37 60 63 24 -7 82 79 117 123 127 117 79 72 72 77 33 39 96 79 120 101 134 115 109 70 98 84 79
284 240 132 88 54 32 25 25 20 24 50 29 14 7 -14 -4 5 36 12 48 21 42 99 103 106 103 122 118 87 92 90 75 75 67 108 119 111 52 155 122 148 106 9 -29
285 234 281 156 34 60 27 25 44 57 51 23 5 -4 -2 0 55 48 15 23 46 39 82 85 94 97 91 115 97 103 135 135 148 153 92 90 74 92 149 109 111 111 157 127
160 298 204 211 97 55 65 58 111 79 70 20 -14 10 -4 26 37 8 17 2 62 56 84 100 105 97 104 109 93 89 141 146 172 183 112 52 62 135 150 175 149 213 153 173
69 117 252 187 73 71 69 45 98 87 49 19 1 56 25 30 53 61 10 10 30 67 94 99 102 76 88 104 82 75 92 123 155 179 168 110 66 10 42 57 100 116 164 132
67 32 103 197 45 108 35 63 32 107 82 133 86 29 49 32 6 -2 3 33 27 46 90 116 118 75 81 96 81 72 61 61 120 111 116 85 74 102 118 106 93 52 97 124
44 260 17 128 69 107 136 29 39 57 160 173 63 -13 66 42 3 31 -8 46 29 25 63 100 98 87 71 86 81 75 49 44 74 91 87 71 52 89 84 109 164 159 97 72
16 94 48 -1 116 111 144 132 65 58 83 109 99 77 57 51 28 28 60 33 38 32 29 52 71 96 82 93 100 87 68 56 64 81 74 69 65 73 54 53 78 87 153 134
65 107 76 -1 -8 -8 94 40 35 150 74 59 89 82 54 70 22 35 25 9 30 60 19 21 46 77 84 92 99 100 89 71 76 89 77 78 63 45 72 72 65 70 89 100
232 73 151 61 134 21 52 48 36 68 115 94 151 129 50 63 79 25 8 22 12 30 38 26 31 56 95 95 82 99 113 114 106 101 98 103 103 88 90 77 72 82 80 78
277 90 72 173 52 20 43 43 21 29 104 117 89 53 35 37 54 85 44 37 35 40 36 29 30 24 42 70 77 86 115 129 139 138 130 136 151 150 147 133 118 118 100 108
337 79 109 110 68 144 50 61 36 39 57 87 72 61 49 63 60 43 103 69 71 13 18 26 23 30 29 41 38 52 76 112 116 140 149 175 198 147 122 145 165 164 165 166
276 92 123 44 99 132 119 78 110 135 114 96 71 78 22 30 59 88 63 53 65 59 60 73 107 51 29 36 54 53 63 121 127 109 149 160 164 171 168 182 191 186 178 206
22 167 288 111 144 153 105 85 77 47 43 61 57 121 72 68 155 117 125 151 165 82 126 134 104 87 108 108 72 46 56 62 117 132 93 120 147 145 148 143 165 173 198 191
-37 97 164 239 190 82 16 35 -4 33 113 83 62 76 120 130 108 87 67 86 99 127 125 84 109 96 108 122 108 87 63 76 77 88 116 119 130 143 151 148 132 140 187 207
-29 21 42 69 205 144 146 144 85 73 195 251 146 142 133 62 26 35 60 49 52 66 85 26 64 85 90 111 131 103 85 62 70 100 97 112 178 169 188 223 205 186 207 223
10 23 47 -12 7 36 63 18 11 87 101 120 146 129 104 95 111 85 82 18 77 78 70 70 98 67 105 117 104 116 89 80 67 62 106 64 115 167 189 205 225 229 242 223
39 54 26 36 21 28 8 80 104 -1 56 114 133 157 150 138 110 84 76 61 56 49 78 69 43 54 128 148 160 33 68 130 186 131 130 183 169 143 164 169 189 206 348 545
41 76 84 67 54 75 123 55 143 205 194 194 177 161 137 106 79 80 81 71 80 71 64 46 34 18 38 139 142 122 113 213 245 197 218 346 467 430 445 384 534 571 552 567
42 43 61 37 42 72 136 184 183 177 158 135 121 116 99 66 66 71 72 101 122 135 64 79 96 68 21 46 90 134 145 123 166 223 248 254 325 378 418 409 420 457 484 510
14 58 77 73 56 117 119 116 115 103 102 80 40 27 36 29 31 52 73 86 81 88 117 137 131 127 136 135 114 88 96 52 86 197 289 325 390 455 511 489 495 477 412 401
86 77 53 56 20 64 66 60 57 72 71 44 19 2 -7 3 15 38 61 91 110 115 128 176 189 155 137 110 104 152 180 170 161 173 229 325 395 437 513 558 484 543 535 437
57 91 77 99 121 159 95 55 71 49 40 37 37 43 48 52 48 60 56 81 106 138 191 200 194 205 206 170 154 152 125 82 138 250 214 74 251 372 426 398 415 444 383 424

GFSCGP_con_3kmhel_072.txt.gz
Helicity
174 216 210 73 75 87 81 78 24 -8 -38 -6 90 33 14 14 49 99 48 43 55 171 112 231 321 276 202 240 312 141 44 51 42 72 53 69 104 186 252 313 255 132 141 54
242 117 162 218 84 50 98 106 131 39 38 23 62 42 20 9 9 38 90 75 26 149 169 267 275 245 183 185 232 72 8 57 37 46 56 39 75 72 194 174 169 148 74 151
116 53 83 205 129 73 77 70 118 86 53 57 43 22 9 5 8 7 21 61 36 167 208 270 229 186 183 117 148 97 62 81 66 49 70 74 114 196 163 123 109 86 113 198
115 80 94 231 327 65 78 56 77 34 43 65 3 41 2 41 55 1 -18 95 62 26 191 228 209 186 161 110 128 108 110 95 73 70 146 158 142 203 150 194 90 61 155 185
64 135 88 174 254 45 100 73 49 33 40 63 69 45 9 5 -5 49 61 98 116 37 181 204 209 161 150 139 142 129 153 114 72 82 142 140 120 117 110 95 134 171 215 78
8 37 305 107 250 130 88 71 111 83 40 58 29 38 15 11 16 17 49 56 130 91 196 180 211 151 167 168 122 153 138 161 118 125 138 107 129 108 121 149 141 124 131 101
-18 21 61 270 397 203 145 46 141 147 141 55 35 47 12 -0 72 108 93 35 72 91 178 193 244 158 170 203 142 131 135 139 167 177 148 120 100 120 137 171 153 135 120 109
-53 -17 79 222 222 190 321 107 213 168 123 61 7 68 8 -5 26 67 73 13 57 84 167 228 197 149 154 220 173 133 130 122 154 191 184 137 51 44 109 158 135 156 144 156
-24 -40 39 97 285 297 241 83 32 14 191 153 70 -5 76 95 108 100 40 6 -1 66 150 172 171 157 158 186 185 166 161 136 140 154 153 135 98 82 118 131 119 151 93 110
47 -10 -6 25 66 203 361 73 94 39 45 223 145 75 8 77 47 21 60 53 57 44 108 129 150 183 143 162 158 171 150 154 183 153 132 103 99 136 134 81 144 158 151 160
74 27 40 117 92 66 167 126 108 113 73 114 121 71 27 70 39 39 81 69 71 82 49 144 136 176 133 144 170 151 130 110 190 209 172 109 93 104 121 138 139 144 158 146
128 59 13 41 88 49 76 139 105 161 98 105 184 146 84 35 37 88 89 14 23 33 31 87 86 149 164 143 168 173 140 101 97 228 195 153 108 100 121 157 197 176 163 193
143 65 45 15 59 37 20 51 120 84 141 116 175 157 66 108 81 89 8 75 10 2 42 35 62 85 147 155 154 146 133 114 106 153 210 206 183 145 131 144 167 178 157 150
107 73 75 18 87 193 31 21 47 91 138 99 91 145 136 89 47 66 60 68 93 67 2 14 35 43 89 136 154 162 141 129 117 140 187 224 242 217 183 159 145 135 145 171
79 59 74 39 -122 121 115 26 57 123 58 59 61 177 11 22 86 69 149 137 91 48 72 70 92 45 59 84 127 161 165 170 171 145 158 221 245 234 212 181 172 175 168 192
-205 22 23 -35 58 26 149 90 31 74 33 67 105 90 85 45 95 160 193 194 192 156 150 182 115 134 108 47 110 124 150 199 198 185 163 174 200 249 252 246 240 233 223 209
-72 -39 38 -34 184 42 93 47 99 127 108 97 219 142 75 182 131 156 165 156 158 130 128 210 222 166 245 128 116 187 99 115 184 234 218 171 178 194 244 240 232 235 254 254
6 -80 26 49 224 61 89 166 179 47 134 158 20 90 80 101 88 95 114 195 157 114 122 123 160 183 199 181 181 204 290 236 143 183 202 213 180 157 169 205 205 187 183 188
10 -8 -31 114 155 121 71 21 80 36 58 69 114 93 8 122 135 308 190 45 49 28 -13 32 110 134 108 92 117 147 160 186 195 148 105 160 193 167 164 186 212 207 195 160
-14 15 -15 30 144 112 114 73 131 251 213 121 87 149 294 264 193 129 128 72 21 25 38 13 27 56 98 112 145 135 190 213 224 207 204 291 128 188 158 168 197 182 209 207
44 34 -23 22 62 47 57 -5 -135 155 118 101 68 142 160 161 134 85 90 146 168 140 113 140 -15 13 49 83 90 123 143 163 203 209 126 218 340 361 301 172 228 195 239 470
37 72 53 14 29 59 28 27 42 26 46 127 142 132 137 131 107 98 112 165 221 223 207 189 75 12 52 87 55 31 71 91 109 121 206 126 197 407 450 420 508 564 544 569
1 29 35 27 49 99 150 217 274 231 236 209 161 139 130 104 86 95 92 104 143 131 104 105 105 79 89 89 82 80 94 39 -21 -3 83 121 205 271 334 504 460 451 477 453
30 53 14 1 174 180 237 265 241 233 178 143 119 100 82 75 107 83 85 81 86 84 76 80 108 104 117 138 148 137 99 60 -11 -58 -36 25 53 122 256 298 389 388 384 445
51 45 59 67 129 143 186 169 131 129 116 102 66 58 67 70 67 69 70 62 47 59 81 94 120 148 190 189 181 180 162 108 80 64 47 15 80 51 120 166 378 390 424 396
79 131 130 100 124 20 40 82 80 63 28 19 67 75 73 83 73 62 55 43 38 47 64 79 103 130 148 172 193 224 223 174 118 98 67 46 46 146 32 107 186 265 473 428

GFSCGP_con_3kmhel_075.txt.gz
Helicity
79 132 179 226 176 148 169 188 123 59 35 22 4 7 58 86 89 100 110 148 144 346 255 362 464 470 409 314 270 237 139 16 44 97 111 108 142 278 245 245 172 149 158 117
93 154 111 99 82 126 192 135 20 1 -64 33 24 16 70 97 85 37 115 154 158 284 382 466 498 470 351 274 225 190 81 21 72 29 10 76 104 159 179 151 201 148 150 107
86 125 118 111 78 122 102 107 45 17 -2 105 56 59 57 56 39 -7 54 166 183 340 473 451 450 406 311 257 176 135 75 45 57 70 67 37 6 96 182 174 168 103 91 113
132 126 68 45 88 97 52 94 215 56 101 20 57 40 29 48 36 -14 -48 95 151 276 417 454 378 323 258 212 134 119 130 113 79 79 80 104 42 90 35 72 55 87 16 81
63 72 65 66 70 61 106 85 333 8 -1 16 26 65 -24 -11 -32 56 3 94 196 285 401 420 386 275 211 207 149 118 170 174 132 114 89 128 113 67 64 74 55 -1 -3 -17
87 45 107 88 85 122 192 206 165 37 5 -66 -10 137 -61 -29 -6 72 74 178 204 260 330 360 333 260 203 190 174 148 152 168 158 184 146 141 107 114 99 65 56 39 42 65
44 52 101 157 89 97 211 347 243 117 128 -41 2 79 -32 4 14 6 76 221 204 257 363 342 366 261 225 199 188 167 170 177 183 217 195 160 124 132 123 100 72 110 46 105
57 46 9 105 86 165 141 252 283 211 118 37 47 76 -9 45 41 14 54 53 191 226 276 313 377 295 247 202 193 162 162 176 206 223 216 171 166 112 84 112 97 118 135 128
71 27 26 72 53 95 123 170 232 286 185 159 124 61 23 73 5 129 172 152 143 188 226 273 326 300 254 218 184 178 158 160 187 194 222 194 204 196 104 82 66 81 104 99
103 54 12 30 26 112 175 202 109 81 214 164 143 96 71 29 134 120 100 109 82 149 233 278 272 280 235 217 191 157 172 160 163 161 162 172 193 202 174 126 171 167 136 101
168 88 67 50 14 48 115 152 146 132 166 191 161 146 152 179 89 135 158 132 138 108 180 224 216 255 251 213 212 183 166 156 148 153 151 141 139 151 154 226 195 184 169 193
84 56 47 43 -0 15 91 103 110 130 129 56 72 191 355 234 209 143 94 105 88 88 114 204 216 247 257 238 212 199 186 167 167 140 150 155 158 141 152 169 222 205 198 205
-1 36 8 23 -26 43 76 82 114 107 88 -53 24 41 257 115 66 139 171 151 125 54 62 179 182 187 222 226 235 218 201 189 193 211 194 174 160 171 167 154 132 166 187 214
32 41 35 44 64 1 16 122 51 89 147 70 -52 -2 6 260 291 305 189 259 239 225 220 89 138 118 193 225 262 249 222 196 156 227 235 233 215 189 173 157 145 159 184 203
26 -11 10 24 -16 -0 -91 109 102 56 85 154 102 45 49 87 293 248 98 196 287 213 224 288 272 218 107 106 184 260 289 278 192 166 263 278 259 233 201 196 192 198 214 215
22 -31 -21 -32 -79 2 -34 74 172 42 69 41 154 234 85 160 266 130 133 148 152 210 216 209 165 164 197 261 251 146 84 224 304 243 174 237 291 300 277 236 220 216 208 220
44 -26 -41 -75 -38 26 -15 10 81 75 70 47 63 61 86 132 128 115 139 149 84 70 155 176 135 118 123 186 187 208 225 226 132 191 270 260 257 278 309 314 277 255 251 239
53 -14 -44 -54 -10 58 123 28 53 32 129 142 123 164 117 243 369 386 225 127 60 24 102 178 192 163 167 183 258 163 164 213 247 340 252 176 166 200 291 310 299 303 298 289
59 60 22 -43 33 56 94 135 102 44 115 151 188 130 163 80 301 477 496 362 225 163 89 100 127 164 248 314 229 196 144 172 215 240 282 365 236 189 169 255 230 297 339 323
89 104 45 -35 51 71 70 26 86 134 130 118 205 229 232 269 349 335 227 276 303 281 113 44 53 50 114 257 261 226 187 118 141 158 135 163 195 200 216 337 280 169 315 309
67 55 48 9 -0 53 20 25 36 111 150 117 146 147 172 231 138 128 121 123 170 161 130 48 16 33 99 148 141 127 167 225 196 177 127 56 119 148 253 279 326 287 290 339
106 43 76 19 -10 32 30 35 54 81 83 76 98 137 120 81 114 102 118 108 116 122 111 90 13 37 93 126 139 164 203 195 144 121 131 156 93 79 140 218 337 335 345 478
18 74 66 41 6 89 140 106 142 211 179 133 136 139 90 105 113 84 85 74 90 111 88 100 66 61 91 115 120 122 138 116 84 71 87 110 104 45 16 79 128 229 266 306
-3 27 30 60 142 248 326 401 362 263 161 158 155 155 113 108 64 65 87 99 92 85 81 84 87 104 105 114 123 126 140 121 89 86 92 81 75 109 120 88 117 109 79 131
118 115 44 114 261 646 557 356 226 221 199 145 100 124 155 99 74 70 71 71 58 48 55 55 65 76 98 112 116 129 134 118 92 95 99 114 97 98 116 199 191 125 126 35
199 262 103 132 79 143 109 190 148 114 71 76 60 59 104 98 72 66 66 57 47 40 41 45 62 80 95 96 105 114 114 133 120 143 146 170 156 131 119 127 180 396 417 399

GFSCGP_con_3kmhel_081.txt.gz
Helicity
143 179 177 129 127 119 105 88 51 101 100 150 174 96 -47 -12 1 -9 56 23 38 48 93 301 418 394 344 302 297 262 253 247 186 105 92 121 119 143 156 193 142 143 107 126
164 121 83 101 113 109 115 98 79 45 91 196 170 34 -40 -29 -35 5 18 22 37 155 200 307 362 333 315 295 251 260 248 227 129 128 109 177 93 154 212 209 230 157 182 147
110 98 119 137 137 127 96 102 83 88 98 143 104 -14 -137 -78 -83 -48 7 -14 -6 141 253 310 347 304 332 289 241 230 232 196 137 157 139 130 113 106 283 219 153 175 177 144
78 110 98 105 119 111 86 87 74 94 145 153 217 67 -53 -58 -93 -67 -0 10 38 98 198 334 400 300 326 276 212 210 225 195 130 138 104 95 77 140 221 315 261 263 175 167
119 88 109 113 113 128 79 66 74 167 191 151 142 130 -217 -110 -129 -7 -4 79 61 116 277 338 355 305 319 266 211 199 210 190 115 92 91 84 72 101 187 183 260 278 260 259
121 97 78 82 85 82 83 65 110 150 198 183 88 17 -242 -40 -25 14 36 62 59 88 192 267 363 310 292 226 211 216 192 161 118 88 65 71 69 103 127 182 259 327 238 259
160 121 117 99 118 90 73 84 131 185 284 298 106 6 20 58 91 33 71 88 -2 9 183 341 350 290 258 250 223 195 180 158 128 91 80 50 44 64 79 106 180 184 159 159
127 139 87 91 64 43 63 93 157 148 162 66 -33 -77 -66 -43 -95 50 41 63 -5 -12 208 378 312 300 267 224 195 172 169 160 116 90 72 68 48 28 32 72 124 134 175 183
118 127 88 53 45 53 42 68 92 203 162 36 23 -23 1 95 70 -12 -73 -26 -19 13 239 257 247 205 273 212 174 154 128 148 133 106 61 87 84 44 14 38 79 72 75 84
74 111 53 71 63 44 49 109 142 184 129 9 -5 -8 49 122 243 198 -46 22 12 91 171 139 125 178 222 185 143 120 97 120 139 123 86 76 98 94 36 16 42 58 68 55
94 88 70 74 59 70 71 80 52 69 114 48 21 28 57 90 222 208 169 151 37 129 117 98 84 134 207 161 137 112 74 79 107 108 88 42 42 57 51 32 32 29 23 26
112 52 57 58 49 32 84 60 2 95 59 81 -56 -11 79 70 338 234 291 219 54 63 81 69 119 183 178 136 125 97 76 89 110 104 95 90 66 52 53 38 31 34 37 36
46 31 19 79 61 43 62 61 55 66 -19 -13 -27 -51 47 68 428 430 395 298 142 132 145 103 141 133 127 121 104 86 69 42 57 70 92 86 96 82 57 26 17 36 44 45
33 14 -35 -36 35 21 29 15 10 24 19 14 -15 -28 -84 -151 406 533 498 278 370 288 240 208 153 90 77 82 78 82 81 73 73 75 85 92 93 108 105 88 77 58 45 46
17 -25 -8 -1 22 58 35 -14 29 22 36 -50 31 -13 -24 -137 2 417 435 182 385 484 485 391 367 343 306 234 143 78 74 70 86 89 83 92 107 111 114 112 117 136 137 114
22 -23 -21 20 27 9 24 90 46 -1 49 -26 11 14 -21 40 -27 66 368 263 342 436 450 386 381 391 364 306 266 220 184 145 63 96 115 115 104 108 116 125 140 168 187 166
-21 -45 -50 -40 3 9 -21 -10 -37 -19 11 -12 -47 5 16 17 -14 113 60 292 361 366 425 405 380 376 312 265 227 233 198 201 293 263 207 174 95 66 88 94 106 114 147 196
7 -5 -16 -99 -37 -42 -15 -38 -8 -44 5 51 -24 13 65 186 276 299 229 120 230 273 316 370 335 308 264 235 229 219 246 240 252 269 264 261 246 211 169 153 71 95 118 131
89 83 17 -29 -40 -52 -71 -17 -78 62 36 95 63 289 316 328 492 422 305 253 234 202 202 184 183 207 218 239 232 227 239 225 241 218 198 193 178 193 203 205 215 206 200 160
73 92 79 28 -43 -60 -20 -77 -98 -27 65 183 344 240 220 201 367 441 332 287 258 221 171 162 157 157 182 156 156 203 262 299 351 291 258 215 208 206 211 216 228 190 165 189
44 50 5 17 -0 -23 -25 -63 -79 96 34 116 415 330 403 492 410 313 190 153 251 259 204 120 124 166 208 233 215 249 237 271 240 248 265 279 275 254 259 218 214 222 185 170
5 10 31 43 7 -11 35 -19 -14 -27 24 131 173 263 150 145 191 220 207 179 168 146 118 107 102 128 159 178 162 186 216 175 165 166 196 220 220 206 200 211 226 244 217 224
7 91 46 38 46 70 16 69 85 38 99 58 50 47 81 148 145 112 64 39 58 78 85 72 70 101 152 153 148 166 177 129 115 103 90 88 86 98 135 175 195 202 209 199
23 149 91 84 142 197 159 225 280 172 202 102 78 57 49 55 33 24 21 36 64 96 116 120 135 154 178 180 161 142 123 89 87 87 91 84 90 74 60 46 81 112 129 141
3 167 120 94 46 189 313 299 219 253 185 103 99 77 52 41 55 51 60 70 77 82 97 99 109 125 145 151 164 156 143 89 92 88 90 105 112 122 156 232 203 213 280 218
75 131 132 81 184 104 232 127 73 86 72 36 35 51 75 56 45 54 73 81 86 92 84 88 98 113 129 131 138 153 139 128 101 119 123 124 120 117 110 124 205 408 405 417

GFSCGP_con_3kmhel_084.txt.gz
Helicity
137 169 202 172 192 192 127 82 45 47 35 55 57 20 -10 37 81 117 76 5 4 29 62 72 188 310 378 370 368 300 264 216 229 264 213 171 140 131 134 159 141 150 118 216
177 135 110 89 112 118 122 94 65 10 17 97 64 48 26 84 77 76 63 5 20 70 38 106 177 223 290 368 358 304 230 197 209 181 155 147 193 148 136 120 219 301 325 372
154 101 85 120 120 126 112 102 80 57 41 59 78 11 29 103 154 134 63 37 15 23 92 140 120 211 298 330 348 296 211 175 176 163 155 147 208 143 70 104 282 217 224 230
102 109 100 113 128 113 116 94 85 78 54 -5 87 83 -37 84 113 106 40 22 10 44 101 127 154 208 262 328 330 262 198 172 165 159 142 113 106 82 75 204 242 203 198 160
92 60 116 125 90 132 91 132 107 81 56 53 111 145 121 117 83 96 62 34 39 60 113 144 125 195 229 323 305 239 198 177 183 144 113 96 107 63 71 208 321 178 169 145
123 127 113 90 110 98 110 76 68 58 56 64 46 112 126 17 13 99 131 94 70 52 123 165 117 208 247 237 233 224 205 171 170 152 115 86 116 102 101 137 236 205 198 178
159 128 111 106 115 112 106 76 90 119 88 110 87 62 148 -14 27 209 269 151 84 51 89 139 199 248 268 231 213 208 200 167 156 136 130 91 79 75 81 114 232 223 249 263
141 142 102 95 108 102 70 59 69 73 61 39 57 42 -6 36 32 67 96 73 71 58 96 83 205 263 289 205 203 194 178 156 132 121 123 87 72 67 80 79 98 237 294 193
156 175 103 104 110 70 71 62 83 105 71 42 48 51 69 46 132 145 148 159 41 56 38 99 217 240 214 191 188 155 151 147 122 113 128 96 77 56 55 58 79 113 102 237
86 151 123 109 61 58 72 82 76 65 34 54 55 60 42 -38 29 157 205 192 104 25 -2 126 230 192 149 121 178 103 109 142 118 104 108 75 76 54 41 28 58 57 74 108
92 107 83 78 73 72 78 68 66 88 94 84 70 55 27 -49 -106 -13 103 240 91 54 58 128 134 135 142 128 146 100 122 131 105 71 78 62 35 52 64 32 8 43 67 75
149 81 89 86 53 36 54 48 54 72 72 94 121 23 48 -21 -51 -79 -4 291 186 2 63 93 124 121 126 134 121 63 104 111 88 77 65 61 63 46 23 17 25 37 43 65
111 125 127 95 60 68 71 54 58 60 54 78 81 14 19 -7 -8 -64 -111 107 185 159 79 119 114 101 103 131 99 56 87 76 65 54 34 32 54 52 40 9 11 41 57 54
64 84 52 25 27 12 63 58 44 38 70 95 82 -36 -11 -55 -30 -27 -85 41 143 192 129 99 107 99 137 148 97 71 73 79 70 55 41 32 18 34 54 42 30 35 43 55
48 32 -4 -20 -13 -1 31 47 75 54 53 82 46 -20 17 -31 5 -17 -95 65 159 224 332 327 260 290 278 214 161 154 149 113 99 84 70 49 40 27 34 36 45 57 65 60
7 -33 -34 -10 -32 -4 6 53 65 37 52 48 10 42 28 -24 -14 -7 11 58 176 240 319 334 329 365 371 316 276 250 197 139 94 93 80 60 69 62 60 60 59 58 56 63
-18 -57 -75 -100 -52 -22 -8 8 -9 19 28 76 -22 35 41 -9 3 38 14 50 196 234 291 334 386 371 379 320 241 252 221 232 243 224 183 185 155 96 83 67 84 97 93 106
-1 -21 -48 -82 -78 -34 -18 7 -31 -3 15 43 -8 33 66 66 201 291 218 105 229 305 331 398 438 408 367 330 399 246 284 302 312 270 228 224 175 169 156 128 153 131 85 56
65 38 -24 -48 -49 -14 3 26 -21 -90 33 -29 -2 6 29 252 362 327 296 295 159 382 371 497 441 491 378 351 292 228 268 273 244 220 200 203 197 214 220 206 207 207 184 200
73 60 38 13 -19 -44 -7 -61 -71 -15 35 7 107 21 303 269 260 296 302 349 384 181 372 284 368 333 325 257 262 275 264 255 258 229 218 218 216 247 207 182 175 168 176 218
42 27 -2 5 -3 -20 30 -1 4 29 39 8 133 267 361 394 348 303 362 290 238 234 244 166 206 185 203 238 222 259 271 302 262 256 264 269 254 250 245 259 285 265 244 256
-4 -16 -6 1 3 -10 19 17 21 -21 14 8 106 122 233 360 347 269 244 257 283 241 227 239 233 173 146 171 163 196 214 213 207 212 255 278 280 252 235 230 231 230 205 223
20 52 49 26 33 118 116 90 103 82 53 43 58 130 140 125 117 156 184 222 210 220 162 131 129 148 151 130 135 159 151 135 142 153 158 169 161 174 199 221 226 223 227 202
19 37 39 132 170 148 137 109 151 220 169 131 103 81 54 63 77 115 118 82 67 63 78 71 81 125 141 176 182 171 150 120 112 122 140 149 179 182 188 194 216 215 219 203
-28 23 107 110 50 60 163 149 104 118 128 90 91 67 50 33 32 10 21 35 45 59 75 87 93 104 125 138 168 169 150 90 87 85 90 91 80 86 113 170 171 200 250 204
-7 35 129 74 87 112 88 115 103 65 60 51 36 53 65 46 46 37 40 54 70 79 86 99 121 140 154 160 169 156 142 127 112 122 124 128 111 91 83 92 158 285 279 309

GFSCGP_con_3kmhel_087.txt.gz
Helicity
169 149 132 118 116 108 102 101 80 84 45 35 35 -20 27 38 36 23 42 45 28 55 46 -28 3 -7 71 143 197 263 348 326 307 253 234 206 180 151 150 132 111 86 174 182
153 86 93 84 91 97 81 79 70 46 13 73 59 0 35 51 52 61 64 62 63 26 3 -13 -3 40 72 115 160 260 287 289 245 212 234 227 163 124 141 139 114 165 147 185
108 102 34 113 125 100 93 79 78 61 72 38 28 -21 -47 25 3 10 35 53 48 32 -17 -10 45 66 76 101 164 228 269 258 210 206 245 200 155 131 177 140 132 177 149 164
95 99 93 66 75 72 77 59 51 62 71 51 89 -23 -20 -25 2 17 34 73 55 11 -29 44 52 80 82 69 147 183 225 227 195 185 198 139 114 132 130 138 132 299 216 272
160 80 82 85 123 76 93 93 74 65 55 41 33 42 4 -55 3 78 197 109 41 -10 -24 48 72 86 35 92 185 172 209 202 176 200 152 122 84 96 91 62 180 293 232 301
153 113 56 73 105 91 92 97 87 71 61 42 5 17 -10 -3 52 36 85 164 70 29 74 47 65 63 48 88 169 180 211 171 163 157 129 96 72 83 91 97 198 314 229 214
167 122 113 110 138 127 108 101 85 48 43 51 47 -14 -12 30 49 69 76 81 110 153 93 55 46 55 34 100 148 194 188 173 148 132 123 94 78 63 58 114 160 241 211 206
139 116 110 95 110 88 71 73 86 65 55 59 75 17 15 46 -18 25 39 24 88 122 155 95 90 81 43 98 150 155 184 166 134 121 111 85 74 60 43 64 100 181 211 157
111 175 126 111 131 109 104 78 95 87 62 51 39 46 47 61 38 19 -19 61 105 143 165 130 93 62 79 111 134 126 154 153 122 108 112 91 85 67 45 46 68 164 160 160
85 194 134 108 114 113 96 82 82 88 76 48 50 36 32 44 65 64 35 95 12 152 181 90 54 51 95 88 142 138 120 117 106 93 97 73 63 62 33 28 32 50 165 210
86 118 101 70 81 85 95 93 82 98 85 68 35 48 34 62 38 73 71 70 45 149 150 46 18 60 89 116 131 129 117 105 100 62 74 75 54 40 33 1 -6 35 55 75
113 108 117 112 84 50 73 72 61 90 106 88 59 55 109 99 10 -72 -9 -50 2 61 229 61 25 36 110 130 146 115 114 85 64 62 56 56 59 49 17 -11 -19 -7 4 5
150 118 138 135 111 98 89 83 75 60 31 50 52 51 31 11 -16 -54 -105 -89 -53 39 125 84 61 125 121 151 124 107 86 63 58 50 39 23 27 36 28 16 -5 -20 -13 -6
169 155 157 121 97 66 72 53 50 30 24 22 4 3 57 42 42 -5 -53 -77 -65 7 171 248 137 144 104 135 140 115 78 57 51 39 19 22 15 11 14 15 14 10 8 9
270 237 187 111 37 22 22 20 22 20 14 6 46 -9 81 76 70 -22 -8 -65 -20 126 231 285 369 274 239 206 209 164 139 112 84 70 41 33 39 27 11 1 -3 0 11 13
152 144 76 82 25 1 25 -2 15 10 -4 -37 -28 22 -27 29 18 33 34 -36 -16 128 214 257 344 372 396 413 336 316 295 177 131 133 125 93 71 49 27 21 22 17 13 11
28 35 30 29 0 3 6 22 49 24 -4 -11 1 8 20 18 88 69 49 30 -18 85 186 264 302 378 377 379 361 302 307 343 309 240 215 212 183 158 135 86 61 51 53 65
-5 25 18 11 -11 -40 -45 9 -16 -3 7 4 -3 21 10 59 141 146 150 19 -26 93 180 249 294 322 390 372 326 361 300 252 234 228 219 213 205 211 194 182 180 181 152 162
13 4 1 5 -23 -13 -5 31 21 -3 83 56 -8 31 41 238 251 285 256 189 106 -5 321 292 303 388 389 488 493 541 442 339 294 303 208 227 203 214 204 198 190 172 174 210
28 16 2 -5 -30 -30 -2 38 19 8 53 -16 -15 58 95 230 203 239 275 268 210 217 107 379 324 383 488 508 455 420 420 379 386 266 226 215 221 211 206 203 204 187 187 206
18 10 -15 -9 -28 -5 65 44 8 55 41 -31 -7 51 416 319 334 319 309 356 340 330 272 134 423 477 446 428 424 483 454 363 260 197 205 219 241 247 244 252 277 277 268 232
14 2 -9 -15 -22 31 31 -9 7 10 -21 -20 10 68 185 183 296 321 317 310 365 348 266 242 136 205 308 359 268 211 148 178 189 184 191 213 243 220 198 199 208 205 191 202
25 37 43 24 45 52 55 42 48 100 93 45 56 34 30 121 187 186 192 209 234 227 221 244 234 179 184 211 211 201 150 107 107 117 150 176 183 172 174 200 208 211 220 215
30 27 19 28 96 126 93 57 81 80 100 105 60 24 13 32 62 111 120 140 156 159 185 147 150 193 222 206 156 158 108 106 112 129 159 173 182 173 192 222 232 231 237 218
9 44 64 41 18 30 107 101 78 88 81 66 68 62 29 15 19 23 59 81 88 86 84 87 97 119 146 159 170 165 152 108 96 99 116 118 134 150 166 224 212 199 233 189
-2 47 42 20 15 71 61 65 81 74 91 96 74 56 48 34 30 26 36 37 49 59 64 71 74 71 85 99 117 113 94 70 59 76 87 92 86 87 91 99 163 320 302 318

GFSCGP_con_3kmhel_090.txt.gz
Helicity
133 172 158 46 45 48 82 70 59 69 48 68 62 44 44 51 36 31 33 23 22 41 48 56 110 123 77 7 -2 37 87 195 322 348 280 237 220 215 271 214 182 150 122 127
220 141 103 70 95 53 45 46 51 53 41 42 35 35 49 21 19 10 15 26 36 45 33 52 54 104 56 13 -2 47 80 196 259 209 188 185 206 204 191 177 165 144 97 103
132 160 53 83 43 41 38 28 48 50 72 54 38 22 -20 11 3 28 50 72 82 61 25 49 42 58 44 27 38 44 90 158 169 172 178 184 191 243 178 160 178 171 140 129
94 61 137 59 7 41 52 31 45 38 47 54 32 7 107 14 20 58 114 111 111 96 70 62 24 24 35 36 81 66 92 121 132 168 167 152 163 201 162 163 183 162 172 151
113 91 70 58 41 24 40 79 30 42 53 63 47 24 18 -11 16 89 92 90 84 107 131 55 11 -7 -0 45 56 67 90 96 136 136 137 136 155 114 102 104 126 77 113 135
57 92 69 57 65 50 109 55 42 41 51 50 34 39 61 89 83 61 102 110 81 105 130 92 -5 -27 13 50 53 59 81 95 125 118 131 129 139 117 90 99 100 125 172 223
77 83 124 78 77 67 43 48 48 34 68 61 68 43 97 82 42 53 125 162 126 87 82 47 17 18 23 30 46 87 79 116 116 119 127 141 102 83 64 101 144 180 248 293
84 100 85 83 62 58 22 49 118 74 48 50 61 33 55 51 10 38 95 142 113 87 27 3 49 19 11 43 64 107 85 117 100 111 122 112 88 71 76 101 142 180 247 179
60 70 36 74 87 82 79 82 102 104 79 59 49 16 24 13 58 65 82 125 140 127 44 50 59 67 62 64 57 78 80 103 90 114 129 86 76 86 77 78 134 142 216 223
72 77 46 105 105 137 97 90 100 96 57 32 31 42 91 102 97 96 83 83 124 188 117 23 67 51 78 64 59 75 86 93 90 110 110 79 82 79 79 63 80 129 159 167
55 76 65 79 74 73 108 80 88 93 93 111 84 86 77 87 67 33 33 65 88 206 160 71 60 74 40 62 77 81 102 98 104 106 90 78 89 72 70 51 36 79 80 92
14 97 71 62 99 72 74 64 47 85 68 93 102 88 33 53 71 46 2 29 36 114 115 133 159 162 54 92 105 109 110 101 90 100 78 60 67 56 55 44 25 28 60 90
93 101 93 99 94 87 63 75 86 98 95 44 74 70 32 60 30 12 8 14 11 34 97 197 176 140 82 105 115 98 113 93 85 82 74 57 51 33 40 29 21 25 13 20
229 123 105 63 81 79 70 40 36 30 38 59 24 40 37 49 37 35 -3 4 19 28 89 177 239 260 75 109 120 132 122 96 92 73 65 57 46 16 10 -2 -1 8 22 25
220 134 110 125 89 60 31 17 5 -0 18 20 32 20 30 37 53 49 15 1 19 66 85 141 218 317 457 275 161 163 120 106 85 69 79 73 55 26 9 -3 -15 -1 -0 5
430 285 257 197 112 45 51 25 17 16 31 11 19 19 40 62 30 37 28 55 7 46 58 153 179 264 384 431 387 341 264 180 147 182 172 123 85 59 30 4 -14 -8 -3 5
263 316 178 149 85 88 88 28 24 24 34 38 20 33 27 24 15 78 48 38 17 53 49 124 221 212 265 324 388 386 325 309 323 319 307 289 247 206 184 116 73 45 35 22
91 80 66 85 48 98 49 32 29 49 69 62 23 28 42 22 123 164 205 104 50 29 79 164 208 228 245 288 334 373 351 361 315 338 330 295 262 241 208 198 198 197 202 232
25 17 22 48 58 37 -6 46 44 43 22 49 49 51 49 79 230 245 267 199 131 81 2 46 192 314 302 307 333 350 411 461 432 375 337 313 263 254 241 246 241 228 248 300
-2 9 26 19 23 10 49 47 38 9 26 14 40 82 122 109 111 184 216 262 207 179 127 57 155 332 465 456 375 395 454 475 511 393 334 246 242 262 251 231 240 231 264 294
-2 -5 -15 -4 8 12 45 77 101 61 71 5 -29 -32 154 212 253 222 258 292 272 271 243 212 147 290 442 516 492 473 538 555 591 551 326 195 221 263 224 240 257 254 266 278
7 -11 -14 -8 -10 22 48 10 30 37 29 -5 -3 -32 14 100 175 211 210 208 225 239 282 305 208 187 248 319 252 312 447 457 350 412 363 338 296 218 201 208 208 236 263 278
18 29 26 35 31 30 21 26 27 58 52 47 28 14 6 27 82 108 124 130 145 184 194 175 216 198 174 193 171 279 361 306 222 179 198 244 157 145 173 179 199 208 200 185
19 53 28 11 34 47 49 29 54 61 62 74 53 36 32 43 52 61 74 90 99 131 149 131 142 147 170 173 147 93 130 97 79 112 96 71 88 92 118 128 195 206 175 165
25 40 63 77 20 5 40 67 47 50 53 65 72 54 34 24 22 26 47 75 95 111 118 129 142 147 172 135 135 147 106 66 76 89 89 98 91 95 128 220 213 204 262 224
50 71 84 34 22 52 31 34 47 54 59 65 70 73 55 33 26 23 35 34 38 54 67 83 96 106 127 142 164 165 139 110 96 111 124 131 117 138 121 118 170 307 303 307

GFSCGP_con_3kmhel_093.txt.gz
Helicity
109 166 210 146 118 68 96 130 118 104 23 114 120 69 57 32 27 15 25 23 24 27 36 49 35 25 16 37 61 104 81 124 152 240 272 307 355 288 241 267 246 316 253 219
118 168 103 73 56 100 126 81 76 77 67 76 52 52 31 30 19 -1 24 35 38 49 54 49 46 58 65 72 125 148 42 59 168 205 225 209 237 183 200 235 263 287 236 217
111 82 3 42 98 112 135 101 45 71 70 54 23 79 26 -29 -12 -28 16 43 74 78 80 84 75 74 76 112 113 110 45 53 153 114 136 191 244 247 241 229 242 214 190 198
74 37 50 62 58 73 57 63 29 61 72 67 16 86 119 12 -7 18 69 102 123 125 111 96 86 90 73 54 111 79 48 87 124 55 110 192 260 200 206 198 197 190 196 191
64 23 44 65 56 47 32 35 62 30 48 38 83 35 73 12 12 28 83 93 69 79 69 98 99 89 48 44 135 82 70 89 78 48 118 179 102 111 135 153 171 162 200 196
23 -7 38 61 25 45 39 68 42 61 56 95 62 65 18 30 111 151 101 73 55 67 56 56 54 43 41 15 148 71 80 77 83 86 58 111 99 132 158 168 149 141 227 177
19 -2 72 79 66 37 58 66 99 66 76 63 32 52 26 76 121 86 76 110 82 75 90 82 67 23 -4 69 112 73 51 68 80 66 63 101 102 110 156 141 153 167 178 194
14 50 64 23 68 61 54 51 92 62 44 23 52 55 47 148 69 69 77 66 71 120 154 123 90 58 74 94 119 57 30 49 79 41 77 104 133 143 134 174 128 106 141 104
9 2 100 64 44 34 55 58 12 50 94 108 46 2 49 43 148 82 77 72 112 130 176 182 119 43 18 123 73 53 58 66 39 55 93 117 138 139 163 142 112 132 154 189
33 68 110 46 68 41 37 39 67 82 95 105 75 -0 155 219 118 98 68 67 89 97 129 241 210 53 46 56 61 65 71 61 41 70 96 118 141 163 169 136 117 146 156 175
60 63 38 57 49 47 74 51 76 83 91 90 53 89 122 86 95 84 72 51 75 108 120 210 226 177 43 3 44 52 58 58 102 104 118 119 139 168 146 121 108 126 183 206
46 66 50 39 -4 2 37 46 25 71 38 87 94 47 -6 99 89 78 78 53 48 85 95 167 205 222 160 55 44 59 104 132 135 135 113 105 120 154 132 114 94 107 140 119
42 -53 49 57 81 45 18 51 60 87 101 49 80 72 87 70 91 52 54 12 22 47 70 177 226 234 154 22 64 64 124 175 146 128 101 87 86 128 111 97 68 74 97 74
27 40 153 192 78 89 83 62 53 42 51 58 49 74 45 52 51 62 78 48 13 18 43 152 251 272 257 217 25 68 152 172 129 98 96 76 70 108 75 77 66 40 39 54
17 66 44 79 42 53 32 28 40 41 68 86 96 69 65 64 78 75 46 25 17 26 51 98 192 257 288 322 468 126 123 145 135 134 95 84 71 104 71 75 70 60 35 21
90 187 103 76 75 97 72 58 56 36 43 35 40 40 107 83 8 33 21 27 42 57 61 91 119 170 243 266 344 480 413 225 133 133 138 90 96 107 73 58 56 65 64 65
318 194 145 178 135 83 54 55 40 37 89 79 70 59 18 14 -37 31 53 48 70 78 70 49 84 116 168 243 352 424 596 397 341 355 314 301 285 292 246 159 143 128 61 77
422 271 212 194 201 69 78 89 77 64 64 72 61 49 32 -19 108 102 95 100 111 120 110 73 64 129 145 220 290 440 490 410 371 375 352 326 299 281 247 235 237 223 263 248
345 373 223 159 119 47 44 59 81 63 56 68 66 64 35 16 99 129 136 126 147 122 114 90 64 88 131 295 290 334 417 406 399 390 347 341 301 291 266 275 262 239 243 291
53 61 73 31 40 78 107 89 47 17 36 61 40 60 75 6 14 68 100 102 110 136 123 151 139 135 218 261 377 367 573 531 545 445 389 382 365 365 365 326 341 324 333 354
40 45 55 17 16 35 123 113 101 30 68 65 31 -3 45 105 88 54 72 102 125 155 174 164 203 184 202 273 324 544 480 681 628 568 571 556 474 439 392 378 408 389 362 358
30 26 11 -8 -13 28 108 33 60 55 36 29 16 2 -17 -5 41 65 96 129 133 123 139 151 162 239 195 208 240 375 503 659 539 516 528 561 427 588 464 368 367 395 369 369
7 17 -5 -2 -0 19 21 56 43 55 49 53 35 18 -5 -12 4 36 67 98 122 135 108 107 111 134 216 189 209 123 173 119 277 328 227 447 445 536 406 362 383 361 159 252
-2 61 22 -28 25 38 58 39 36 48 64 64 56 35 27 24 28 45 57 79 97 105 111 105 114 138 165 171 186 157 87 61 90 82 127 152 182 235 236 224 288 383 260 214
14 44 53 42 27 30 46 49 44 43 43 63 74 63 40 26 26 21 28 41 48 53 67 71 69 75 88 87 116 146 129 81 81 48 24 39 55 68 134 190 155 144 221 205
43 56 81 47 27 41 38 27 30 47 59 61 62 75 74 57 42 31 38 37 36 40 47 56 69 78 75 78 100 83 75 56 34 58 70 51 43 33 36 43 77 167 166 200

GFSCGP_con_3kmhel_096.txt.gz
Helicity
93 142 227 140 113 58 75 67 75 69 18 21 45 50 33 20 70 67 59 63 43 29 36 42 46 83 71 70 77 173 359 409 397 239 256 210 234 238 250 313 293 236 257 206
101 148 81 39 39 68 62 67 62 56 43 83 128 105 61 55 23 30 9 18 25 19 15 9 29 104 100 90 69 140 242 360 366 237 168 225 244 250 283 300 251 282 251 251
115 80 14 24 56 65 75 65 63 74 41 42 37 48 54 8 39 10 -25 14 33 21 27 55 71 95 130 134 112 175 219 244 302 216 184 187 162 174 237 310 262 222 246 269
77 29 5 -3 28 62 56 21 59 41 74 51 23 8 51 20 -20 -57 60 66 28 100 122 151 155 137 91 154 207 223 223 213 335 274 161 94 153 249 311 282 218 199 200 224
94 20 30 20 -48 26 76 23 64 48 30 59 65 88 110 46 47 61 104 102 93 81 92 84 104 110 93 115 206 261 232 202 379 290 118 51 139 249 243 190 189 212 203 238
52 -15 13 23 26 7 83 41 58 6 63 36 44 73 95 121 13 138 189 135 106 122 148 74 54 60 90 105 134 279 272 224 369 211 55 75 225 197 136 163 197 216 221 211
31 32 -1 18 3 54 95 97 76 74 77 50 14 13 62 23 173 161 149 119 144 145 173 213 47 44 36 65 106 305 280 227 247 127 66 133 171 124 137 228 189 228 219 197
1 -40 31 48 50 -24 -21 57 101 80 41 -13 -9 31 2 51 96 130 205 179 176 127 108 135 298 244 48 30 249 258 231 151 192 116 91 163 195 152 179 254 264 270 229 194
-26 -41 20 41 93 59 58 32 26 95 93 -14 44 1 130 131 66 122 171 223 176 122 61 98 192 426 80 140 269 301 188 56 138 169 177 133 143 208 203 251 257 198 173 164
-121 -156 87 -1 -14 34 28 58 65 63 58 33 72 65 57 286 174 165 205 150 106 60 101 126 149 470 383 114 98 84 70 117 211 236 171 156 220 198 215 228 175 155 171 167
-40 -117 -47 59 96 37 91 62 93 62 62 74 98 39 178 110 104 95 106 88 40 69 103 143 170 410 619 74 57 47 184 280 259 248 162 190 194 181 194 140 139 141 169 166
-4 -72 -80 41 -28 64 3 26 52 69 96 54 43 97 146 95 19 112 160 96 13 72 102 135 167 262 430 312 5 98 208 288 143 187 200 187 170 136 143 147 114 146 127 128
-44 -92 -67 -8 -14 25 18 10 42 44 49 58 64 -3 93 120 89 125 157 125 31 45 86 131 157 193 233 246 234 115 102 155 213 158 193 168 125 119 133 117 106 129 114 117
22 -132 -99 7 67 5 20 17 54 49 95 31 115 -39 -25 128 115 39 60 69 30 50 57 92 136 198 212 232 233 284 114 130 138 168 132 150 114 109 109 86 95 101 84 80
-27 -129 -97 107 155 129 147 51 49 71 147 112 70 34 58 59 15 18 15 22 36 42 66 72 116 150 216 214 269 311 263 102 70 106 134 134 100 74 55 79 83 71 50 30
58 -50 91 140 133 86 70 39 -40 3 84 117 145 89 57 39 0 -17 -26 -8 15 38 62 73 101 133 194 198 222 290 310 343 113 147 191 186 123 113 114 109 102 57 18 28
129 27 105 94 22 49 152 96 93 134 135 125 97 74 -2 -110 -142 -75 -20 13 31 53 68 90 115 129 135 123 79 233 334 457 444 352 343 334 318 318 312 268 274 269 208 219
235 156 68 55 24 73 159 207 50 15 54 94 75 40 5 -34 30 28 31 32 42 55 58 84 98 111 115 73 53 118 287 430 493 482 496 392 323 320 311 303 303 307 292 242
212 230 142 109 98 42 115 170 146 74 47 107 82 46 20 37 24 44 63 50 47 40 36 42 67 83 89 118 101 58 270 463 556 546 533 417 336 317 325 371 343 334 357 359
187 242 145 140 92 97 84 151 74 43 39 76 65 38 19 -8 15 42 58 43 35 34 31 49 78 107 164 211 143 90 229 464 633 680 576 462 372 349 333 314 328 337 349 354
211 201 254 180 95 52 216 176 115 34 52 52 45 34 22 26 33 28 36 54 48 52 74 75 88 96 145 191 197 223 252 292 434 676 651 630 579 455 433 419 413 420 430 412
48 113 57 85 45 20 141 49 62 43 48 53 38 17 6 -8 -3 15 22 41 72 86 85 105 88 88 103 140 108 161 290 233 221 175 370 461 577 633 668 642 605 555 528 519
11 30 21 34 5 48 35 46 49 63 69 74 42 22 22 14 4 2 16 40 62 83 93 93 105 97 111 110 107 97 110 96 115 226 181 286 335 335 434 546 798 679 586 501
-1 69 -1 -19 43 45 60 48 42 44 70 62 50 40 33 24 15 18 26 40 49 62 76 72 92 115 116 115 119 100 68 90 72 70 109 149 141 163 143 161 199 208 346 512
0 41 46 36 29 48 47 46 41 33 31 43 55 67 62 44 39 29 27 29 31 29 31 37 51 52 86 105 91 93 73 65 69 79 69 80 86 106 139 151 92 70 120 87
-4 34 63 55 55 40 31 14 16 30 47 53 47 62 70 59 50 35 30 21 21 26 26 24 28 35 42 78 88 87 51 50 25 16 31 49 2 -20 -13 26 81 180 165 167

GFSCGP_con_3kmhel_099.txt.gz
Helicity
87 149 287 205 167 134 165 177 164 152 124 70 89 92 45 86 66 19 91 21 20 69 42 57 63 84 142 177 147 284 327 299 423 474 445 347 265 276 245 217 224 255 305 330
169 143 94 123 121 131 168 195 173 108 21 51 59 67 42 76 76 64 53 32 -2 63 99 60 65 54 64 134 147 311 398 413 380 435 416 412 327 292 228 236 225 224 272 293
132 167 102 110 141 173 147 117 85 99 72 137 97 86 28 44 35 -71 -20 18 -10 19 64 49 -3 28 44 97 121 205 287 407 512 459 480 467 400 277 227 178 271 296 288 241
191 137 139 107 144 73 136 65 64 16 33 147 111 81 26 60 44 -18 -28 175 85 107 68 23 77 141 107 74 151 304 315 341 413 409 397 416 316 237 208 233 271 269 280 262
215 169 112 97 54 28 52 35 67 12 35 131 123 119 -49 32 25 19 62 53 54 41 131 299 313 204 145 110 136 233 360 325 334 334 332 348 241 146 211 273 273 201 221 222
166 57 118 111 4 -25 -2 78 50 40 127 126 31 90 -28 8 -4 23 153 307 329 302 334 299 281 303 296 233 86 240 390 407 393 319 325 263 183 175 251 224 190 221 216 207
206 127 49 -3 -7 28 18 116 20 82 129 12 65 44 84 27 32 20 253 444 418 357 340 308 252 238 242 228 148 221 379 368 318 286 324 264 187 216 201 175 213 233 214 218
229 101 49 73 58 18 43 53 71 67 96 29 52 -1 36 29 21 281 195 286 302 335 237 174 231 202 262 285 86 173 361 357 316 304 278 259 159 157 163 184 215 199 177 148
116 -52 -63 32 11 39 24 40 -56 -3 6 -11 21 24 40 97 266 267 257 207 234 217 183 222 216 233 406 389 394 387 428 279 227 231 219 202 176 194 189 192 230 203 206 202
3 -182 -39 51 -96 47 1 -41 -25 -46 -21 -5 -36 4 60 415 265 133 266 245 193 189 231 225 274 304 410 452 379 277 321 340 171 185 172 217 273 226 237 239 231 211 205 205
3 -26 30 -19 -71 8 -17 -10 5 -9 18 2 15 131 68 156 129 154 115 128 161 131 155 192 271 297 342 388 439 379 168 208 214 248 283 291 256 254 204 193 166 166 162 157
-25 -35 40 79 71 12 -10 1 26 26 -12 -37 -30 33 72 189 44 66 32 21 33 44 88 168 189 296 283 329 287 319 419 208 256 319 310 254 228 175 167 132 122 139 131 131
-82 -43 -27 4 -22 29 -24 45 42 35 4 6 -4 75 118 69 71 54 16 -6 -8 27 59 139 192 212 245 264 228 239 342 514 237 178 182 213 184 161 147 132 138 112 114 116
-15 53 70 105 39 53 -34 46 2 14 -67 25 75 155 64 95 46 22 3 6 5 17 44 96 148 182 206 219 197 210 248 373 376 114 105 101 106 131 130 116 115 90 96 107
27 51 16 90 112 39 69 194 106 90 40 84 139 141 78 7 -13 -7 9 36 34 62 75 82 127 164 173 218 244 222 217 288 354 140 80 85 90 101 117 116 106 77 80 98
155 45 13 118 -1 29 5 146 188 152 319 90 100 74 -1 13 -16 -33 -21 20 37 80 95 73 110 139 157 188 218 200 158 250 320 352 168 149 152 96 127 110 102 75 79 105
199 100 75 -42 155 139 182 32 98 102 131 64 65 28 9 -85 -83 -1 31 52 73 98 90 82 104 115 130 150 182 154 133 140 268 326 379 267 279 216 278 274 292 274 251 246
110 65 49 -6 77 177 92 158 -27 -18 77 85 38 11 -33 -52 -48 29 62 87 95 91 89 89 86 108 109 131 153 139 105 69 283 417 462 426 345 322 393 371 316 300 272 287
252 151 52 -8 50 7 73 136 116 101 43 100 73 43 -42 -79 -16 54 78 69 73 82 69 63 68 85 108 116 138 171 190 151 126 424 597 490 515 422 443 388 416 337 321 301
132 176 62 62 64 38 71 213 114 -22 22 81 53 40 17 22 -22 46 76 72 52 53 61 74 83 91 127 139 129 158 245 254 234 292 417 656 513 503 474 413 435 389 399 386
190 214 208 162 49 46 147 185 88 30 10 39 24 18 24 3 -2 9 15 33 40 34 62 65 72 91 115 71 53 116 186 253 197 184 269 418 627 647 553 497 486 463 464 459
162 213 145 105 50 14 112 20 34 17 53 31 29 10 6 2 3 -1 0 15 32 52 79 105 90 82 70 76 46 78 119 111 144 158 197 316 485 475 511 530 541 479 469 527
112 88 61 48 7 25 21 19 31 57 57 57 41 26 11 11 5 4 5 14 34 52 72 70 77 87 114 131 109 82 68 55 47 69 124 177 206 232 356 451 423 355 339 377
14 80 -2 2 31 44 43 35 42 55 71 46 32 33 32 28 18 17 14 20 19 24 43 46 65 105 134 150 135 119 92 70 25 53 69 85 121 134 156 195 297 341 319 284
-3 36 30 28 25 34 46 45 40 30 30 44 35 45 45 41 42 31 27 21 14 8 10 21 39 64 98 101 100 97 80 59 72 79 40 40 36 62 94 137 143 132 159 150
-25 15 20 19 27 49 32 16 18 32 48 28 21 43 44 38 36 33 21 10 9 8 18 29 37 41 55 76 94 79 61 44 31 33 34 37 -7 -4 5 30 66 148 138 148

GFSCGP_con_3kmhel_102.txt.gz
Helicity
111 163 178 134 142 125 155 181 200 124 69 135 152 139 136 152 118 111 106 74 71 75 86 55 79 115 124 100 79 243 326 303 354 391 322 290 267 318 317 291 285 280 302 303
142 146 131 145 171 178 181 207 206 189 153 178 171 213 102 70 117 65 65 54 11 13 84 25 -7 95 86 96 124 179 275 348 367 411 323 331 333 380 345 359 309 284 282 291
126 153 135 158 164 194 173 180 167 164 126 158 182 176 140 111 62 28 -2 30 56 69 65 14 5 46 47 49 122 185 222 315 374 377 384 439 478 376 418 318 296 302 284 299
124 148 169 175 176 145 172 103 131 170 134 179 54 183 82 79 34 -14 -123 -47 -8 -10 -26 70 13 29 72 106 72 103 212 298 353 393 413 434 433 384 347 348 307 294 258 277
157 130 169 206 193 124 165 102 87 67 154 120 -50 87 -73 45 22 -1 -18 3 -64 -35 122 230 298 369 241 201 244 100 132 225 344 391 433 489 422 325 354 380 332 265 254 266
191 173 201 214 206 172 108 48 66 46 77 50 -82 71 147 24 31 22 95 123 262 368 419 408 333 320 320 259 182 81 167 216 287 372 390 351 342 357 355 312 258 233 260 239
205 222 150 115 180 120 131 70 118 76 65 -80 -38 -42 167 -20 -33 33 98 185 220 302 532 480 478 416 377 375 373 122 118 199 252 321 313 294 324 323 314 227 225 187 194 214
267 251 178 168 97 115 12 50 75 52 -57 -105 -105 -6 55 83 66 204 227 187 122 347 321 381 387 391 398 414 484 430 189 177 277 250 270 295 290 293 243 206 164 162 153 177
257 209 85 2 3 60 -66 12 23 -50 -100 -127 -57 -22 81 97 108 227 241 83 55 375 292 238 321 395 370 434 457 516 494 349 210 209 260 290 238 229 171 138 129 182 189 186
85 18 -77 12 32 11 -6 -57 4 3 -105 -54 45 -9 -2 343 172 93 182 358 312 473 361 270 316 432 410 378 429 463 525 481 198 185 177 203 195 207 203 198 155 176 184 183
24 -40 -26 38 46 -10 -1 0 3 -52 -118 -59 -68 36 -65 91 204 291 297 222 100 277 260 274 295 338 322 342 357 391 432 481 462 144 147 197 251 236 221 193 163 142 164 166
15 -31 99 254 336 67 49 -10 -38 -114 -102 -58 -138 -72 44 132 80 34 170 251 68 103 183 244 241 284 313 358 377 296 345 354 410 349 181 243 284 247 238 175 125 121 108 122
-46 2 200 209 -27 -3 23 -7 -11 -38 20 -37 -15 29 24 23 60 63 22 15 43 115 178 204 221 227 272 321 332 316 297 344 353 382 182 254 211 204 159 114 87 86 83 111
-23 52 163 207 90 49 93 94 117 62 7 -22 44 118 131 56 30 -1 25 25 49 111 180 210 192 212 243 271 286 291 264 297 341 359 158 132 120 97 92 82 92 86 104 99
17 122 113 282 218 139 95 106 28 140 97 15 63 70 65 -15 7 25 36 61 89 155 174 195 194 201 227 248 267 266 251 178 292 366 344 233 82 66 68 83 89 118 111 108
-41 129 223 342 141 89 88 87 244 268 167 43 33 71 26 -24 -2 41 56 67 94 127 146 176 206 203 207 238 225 233 241 189 238 267 312 305 292 142 110 120 154 166 183 165
114 136 215 139 16 61 148 122 139 208 145 69 66 23 5 -3 27 55 72 69 93 109 127 175 217 219 197 187 185 203 198 200 173 155 336 327 325 264 237 203 251 239 229 226
213 131 117 142 321 218 39 23 14 95 111 63 32 13 30 -27 -21 10 47 69 85 109 125 168 190 211 191 164 175 167 165 196 182 196 206 377 332 350 313 306 346 301 270 300
187 83 112 107 90 4 52 68 84 86 68 76 25 -14 2 -6 -30 47 80 56 54 68 87 104 122 136 141 167 189 149 171 190 262 276 235 258 478 368 383 442 455 325 342 352
134 131 45 72 55 22 47 169 26 -54 33 56 13 -18 -24 -18 -35 42 56 40 40 52 74 113 115 85 122 153 127 143 205 223 213 276 266 273 311 600 544 498 506 451 421 398
138 135 90 80 27 30 141 155 51 22 5 34 10 -4 -6 -45 -28 -11 -4 24 41 42 53 55 66 83 103 93 73 89 105 221 258 199 189 253 282 358 328 636 622 492 451 437
105 117 94 66 46 42 119 18 23 6 18 13 10 -7 -1 -17 -32 -35 -16 7 25 40 52 77 75 93 109 121 104 96 118 97 81 110 165 219 229 207 252 359 581 558 462 448
131 121 57 48 22 36 29 27 18 19 26 13 20 7 -9 -26 -20 -17 0 6 21 33 41 53 55 63 100 120 114 101 93 70 72 71 102 134 154 197 182 204 257 375 467 464
76 88 34 13 16 27 6 9 9 21 23 20 20 19 14 0 0 7 10 13 16 28 34 29 41 69 84 98 86 59 60 50 27 47 65 68 99 128 153 143 153 146 180 256
15 38 27 28 10 14 16 16 14 26 25 30 25 27 31 19 26 19 22 23 14 8 20 31 31 39 57 63 76 80 54 24 14 19 -3 15 17 43 60 98 108 119 150 131
-2 7 6 4 7 26 12 11 25 29 26 23 30 33 40 26 31 31 22 6 8 18 29 37 40 38 46 65 74 80 68 45 36 23 11 6 -16 -10 6 18 49 141 145 176

GFSCGP_con_3kmhel_105.txt.gz
Helicity
104 174 167 95 79 115 129 134 104 77 85 110 125 149 153 133 171 136 113 182 218 184 128 46 28 51 81 95 153 257 242 276 337 366 423 358 341 291 268 234 218 225 221 238
177 157 85 123 148 138 157 138 132 75 67 118 126 139 150 177 197 182 136 170 205 133 70 59 62 43 43 31 41 231 257 282 329 358 365 392 346 283 275 300 246 265 265 273
151 120 121 111 120 128 145 186 166 146 77 103 169 176 195 133 125 186 155 139 82 75 -1 -24 22 26 4 22 2 64 178 228 276 308 355 473 399 350 328 298 262 244 271 292
96 127 149 145 156 176 148 169 167 163 174 181 121 261 210 138 87 55 81 112 43 46 53 29 42 85 53 76 52 48 106 192 237 290 365 385 391 342 304 274 319 260 292 306
111 82 57 75 99 156 168 161 174 164 195 206 264 306 155 74 58 22 94 68 64 79 124 160 211 185 195 210 220 146 63 123 202 278 315 373 375 320 367 338 340 356 349 342
62 65 77 86 132 136 124 175 169 166 203 368 177 177 21 30 44 15 165 135 109 139 241 340 420 376 342 364 385 351 91 95 170 248 263 286 341 377 400 355 339 338 347 365
2 93 136 133 177 165 273 355 379 412 314 235 70 87 68 29 19 76 155 251 229 200 232 420 459 476 490 498 506 534 366 162 186 212 240 252 255 347 394 323 321 304 342 346
20 6 105 192 124 182 233 216 350 267 207 87 30 -33 37 100 164 222 195 181 200 259 321 365 408 411 452 468 524 510 429 314 128 119 137 204 281 269 267 253 264 268 262 202
207 221 236 63 29 105 133 173 107 91 -2 -39 16 -56 5 76 172 354 346 451 278 266 -87 379 363 245 409 445 404 413 360 346 366 114 147 193 266 256 251 235 194 201 205 214
184 173 55 49 45 21 84 62 17 72 -99 -165 -94 -65 -54 31 111 321 293 462 431 306 277 572 413 271 293 366 373 410 394 382 409 354 196 198 215 209 211 226 228 200 181 137
71 72 40 48 84 58 21 11 14 -39 -6 -32 -111 -173 -20 -27 -6 172 353 173 212 378 331 305 265 261 321 371 343 380 366 335 380 366 361 251 191 190 202 196 208 186 166 142
19 -6 77 124 165 39 -41 -60 -24 -15 22 -31 -39 4 -4 14 15 29 98 98 142 178 181 325 287 323 323 351 356 381 373 375 375 361 355 153 172 194 199 201 182 157 139 109
-9 -35 79 56 11 22 -8 -3 24 -34 -49 -60 -57 13 70 20 3 -6 6 43 74 125 155 270 293 313 332 345 335 363 350 347 306 356 407 140 157 195 200 171 149 137 93 87
4 9 114 149 164 65 84 113 230 22 -10 53 4 29 77 41 -4 3 37 58 89 120 161 221 252 272 302 306 319 310 325 347 356 353 409 342 218 139 138 107 85 53 11 35
59 118 139 229 187 140 91 106 116 58 118 15 44 -4 32 31 4 12 23 59 109 155 174 209 254 285 288 297 317 305 306 340 282 360 468 421 444 163 95 80 54 63 52 87
-30 26 63 255 127 30 92 125 180 170 136 46 42 29 27 4 13 59 71 97 134 168 197 239 253 278 287 273 259 257 276 261 228 293 393 330 359 356 336 219 118 110 136 176
73 193 265 120 36 22 124 121 114 212 196 75 44 6 -1 6 40 74 93 100 111 113 149 210 255 266 248 225 207 229 224 202 177 175 248 245 296 323 314 289 228 213 175 182
194 195 185 63 48 149 43 12 13 27 113 61 30 9 -7 -6 -19 15 44 60 97 124 154 171 164 182 208 202 188 171 153 166 220 174 268 296 287 230 324 300 321 300 259 262
127 49 48 72 150 82 94 22 39 55 60 88 26 1 -23 7 -40 21 64 47 44 68 88 101 108 111 122 165 184 155 194 185 198 231 185 241 188 177 192 380 364 363 388 354
70 62 77 124 110 120 34 63 37 -12 63 64 37 2 -18 -26 -10 21 53 31 26 31 41 66 70 66 112 135 93 99 160 219 302 204 183 213 214 220 151 229 283 477 391 457
114 89 134 72 29 31 99 102 67 12 12 27 -2 -10 5 -37 -42 -29 -17 4 11 19 43 50 59 77 96 95 64 86 88 133 125 159 137 155 225 156 216 214 261 111 387 442
58 59 40 56 47 43 75 20 19 8 19 4 -20 -29 -24 -28 -35 -36 -21 -8 0 18 36 48 34 48 64 80 71 75 99 69 40 32 57 92 130 160 176 208 246 293 307 217
74 83 26 36 24 53 61 65 60 41 16 -7 5 -10 -11 -27 -26 -31 -26 -16 -2 11 25 30 33 27 39 57 46 44 48 20 38 44 61 69 67 70 88 145 171 181 232 145
94 106 67 48 53 46 34 31 34 39 25 13 11 8 6 9 -11 -12 -10 -5 7 25 36 38 42 54 63 63 43 35 32 21 1 14 39 42 52 81 92 69 70 104 117 138
44 74 65 55 32 22 25 14 10 18 18 30 20 12 6 15 9 -2 -7 -1 -4 2 14 21 23 34 50 53 59 63 54 21 3 5 4 1 -4 22 38 60 81 62 88 94
17 18 28 20 8 14 -6 -1 -2 11 12 13 21 22 18 11 2 -4 -1 7 14 20 19 23 25 30 44 43 48 52 45 16 1 0 -1 -5 -13 -5 3 10 23 104 158 183

GFSCGP_con_3kmhel_108.txt.gz
Helicity
152 192 201 112 102 125 156 156 109 86 54 52 21 38 4 -33 -27 7 35 67 62 58 81 106 120 169 177 107 85 126 163 193 231 270 317 301 298 308 284 243 204 207 241 218
195 179 80 118 140 139 140 110 91 4 -34 2 18 37 44 0 -20 3 38 47 76 108 137 130 168 175 168 114 67 93 114 123 226 226 313 314 309 322 304 296 224 220 217 243
164 145 147 123 190 160 123 103 73 54 12 10 45 9 54 68 -3 33 48 141 221 203 198 167 193 169 135 109 106 81 79 86 142 181 252 319 308 363 321 269 246 235 212 224
113 146 183 173 137 89 102 55 68 70 50 18 153 79 -124 -51 26 71 207 165 287 273 206 184 181 172 117 65 83 103 84 68 120 196 253 265 313 398 343 278 261 273 228 224
154 144 117 83 45 46 67 53 76 108 125 131 109 202 192 77 168 232 6 156 190 181 155 120 111 130 141 151 94 122 113 52 82 184 226 279 271 268 270 304 245 276 260 224
105 128 73 38 54 66 61 86 112 157 218 235 174 176 202 135 192 93 67 164 199 185 173 159 132 124 176 265 257 200 173 79 96 164 205 235 226 279 323 271 286 279 288 274
90 41 79 182 135 137 175 171 94 124 161 148 163 265 203 139 65 85 128 224 170 206 209 171 156 194 211 315 359 355 322 291 126 126 149 180 204 253 284 324 255 279 308 273
-20 14 129 174 69 59 175 167 206 160 282 287 121 246 159 55 96 97 145 175 175 237 214 172 133 213 265 319 357 423 410 353 343 147 92 145 172 214 227 278 265 216 251 250
33 -16 104 -23 69 161 136 145 144 317 146 231 126 123 133 80 54 35 56 137 245 265 323 259 198 186 274 313 305 352 374 384 344 297 173 190 181 197 204 211 234 234 208 208
27 4 -1 75 151 68 105 63 167 90 126 135 46 62 8 -23 -32 -7 30 53 211 234 451 368 341 405 291 295 294 295 297 309 339 338 286 141 167 197 233 241 231 208 180 201
84 78 97 153 167 117 38 19 22 36 53 81 0 -19 -14 -8 -6 -20 7 43 53 80 280 252 357 653 379 338 330 232 306 331 332 345 301 168 142 191 236 241 213 191 183 147
83 72 188 95 49 2 -6 -36 -17 -20 33 40 42 15 5 -9 -9 3 11 28 44 67 154 133 169 356 377 358 343 340 291 322 355 387 414 213 208 282 247 188 197 188 180 203
17 4 60 0 -10 2 15 14 12 -36 -19 -5 -30 6 -2 20 25 17 13 38 67 84 162 152 172 270 326 368 338 375 321 311 317 348 343 403 403 234 211 153 156 166 176 187
0 13 102 70 50 51 57 71 16 16 -8 28 37 53 48 45 11 28 52 51 69 83 117 157 220 274 298 326 277 318 363 413 388 293 311 335 369 339 166 162 196 196 167 136
63 12 41 148 183 88 7 -16 111 100 59 38 113 62 46 33 13 38 58 71 90 136 181 214 246 298 289 289 302 299 359 347 385 324 477 436 365 472 381 322 246 192 109 67
28 14 48 159 76 6 26 52 58 242 148 84 44 27 28 -1 9 48 87 109 121 150 172 221 262 296 281 253 252 272 306 322 326 347 389 431 390 578 487 382 356 276 274 261
60 62 106 53 77 51 68 112 85 98 138 73 33 12 3 15 39 82 108 112 136 156 162 190 220 209 215 215 189 220 229 256 307 257 231 340 245 455 467 398 364 320 278 256
144 213 168 13 28 38 47 60 22 65 103 60 25 16 10 2 9 25 68 75 103 133 162 165 160 182 195 208 235 184 189 200 283 345 329 309 207 167 264 264 301 342 273 264
123 112 75 19 65 82 59 56 51 87 87 49 8 -9 -18 47 2 37 77 61 61 73 82 74 82 94 117 162 167 124 160 213 202 194 185 173 124 220 206 192 217 144 201 296
25 1 86 88 86 43 48 33 22 42 43 56 27 -15 -19 -20 -13 12 70 47 38 35 47 61 60 56 105 133 95 101 118 134 245 265 155 122 82 151 153 148 173 203 129 82
48 134 109 136 99 62 40 79 41 26 -5 7 13 0 -28 -35 -30 -18 0 12 16 15 28 31 44 67 91 104 76 85 112 172 84 55 103 169 182 139 165 140 108 122 157 201
35 101 70 24 62 50 73 47 13 17 19 2 -4 -15 -17 -21 -14 -25 -20 -5 7 20 22 35 19 34 41 53 38 55 89 69 60 54 65 85 84 78 92 97 143 144 77 150
40 33 4 35 31 56 82 76 65 39 10 -1 1 -12 -12 -20 -24 -24 -19 -10 -1 11 18 18 27 24 50 56 40 47 42 8 5 27 37 33 35 59 65 85 82 66 74 52
56 47 32 20 34 31 32 41 61 54 28 20 12 6 8 4 -8 -7 -8 -7 1 13 28 32 24 43 64 77 53 38 31 -6 -2 7 13 14 10 17 35 28 33 50 46 38
17 55 41 50 18 27 37 35 33 43 45 45 28 13 8 13 7 -8 -5 0 4 6 16 18 17 18 27 28 30 32 23 -8 -20 -19 -10 -6 -7 -2 -24 -27 1 2 37 39
18 17 46 39 7 28 -3 -3 21 33 29 15 32 29 12 2 2 10 10 0 4 6 4 4 7 9 17 11 14 24 12 -7 -21 -20 -16 -12 -16 -18 -14 -14 -18 59 90 120

GFSCGP_con_3kmhel_111.txt.gz
Helicity
181 209 203 141 141 159 149 137 104 72 60 55 28 34 35 -15 -25 -41 -38 -8 -6 -2 25 44 82 106 86 120 170 184 186 189 163 140 159 186 189 224 235 229 200 199 195 211
219 166 98 124 129 140 138 126 108 60 64 47 38 20 13 -56 -49 -16 -21 10 53 77 93 94 136 156 152 188 210 221 218 199 182 179 171 161 188 202 225 272 256 214 207 194
183 169 137 69 110 106 116 119 83 77 55 17 9 -20 -37 19 -11 33 130 143 195 225 233 243 247 244 258 235 241 213 196 185 132 134 119 145 157 118 215 242 244 267 222 216
159 195 182 157 146 132 150 74 65 61 58 -1 53 9 -90 -83 65 128 151 213 232 243 261 263 198 143 194 146 107 162 147 121 139 116 110 118 205 226 271 302 252 274 298 233
204 182 190 165 156 110 118 68 58 42 8 28 -25 41 53 102 40 75 182 257 204 120 87 98 116 92 55 60 75 51 88 113 122 94 95 129 163 221 229 235 234 248 280 217
155 163 135 142 119 118 115 97 67 18 23 91 46 63 88 47 15 114 165 124 56 60 105 95 70 43 56 94 91 75 77 104 134 118 58 92 126 175 214 216 255 259 250 294
150 123 153 176 147 164 168 158 69 44 113 113 242 240 166 163 195 137 63 -9 25 29 45 37 73 84 102 85 115 135 130 121 187 163 93 88 95 116 137 140 194 204 239 277
141 138 146 155 123 152 202 142 107 122 143 152 242 142 232 193 114 68 73 39 22 58 37 64 85 64 62 110 101 162 183 123 225 233 228 65 84 102 96 59 110 165 181 211
77 79 81 48 133 138 121 69 164 96 90 117 94 145 120 153 83 58 55 12 -3 35 36 65 124 110 106 150 120 174 161 174 220 255 252 171 97 102 98 83 122 148 141 208
105 89 15 66 137 102 39 149 207 153 153 148 128 80 125 68 16 28 1 21 3 46 29 55 149 243 236 240 232 199 189 175 243 324 303 226 98 123 123 129 106 120 146 177
117 42 41 123 128 165 121 71 13 36 -2 99 123 96 71 22 -18 -10 21 11 1 34 53 36 112 213 350 316 425 296 221 233 260 349 389 311 105 120 118 121 103 134 196 204
134 109 131 117 13 20 11 41 29 24 17 22 26 117 63 3 -1 12 26 -2 1 13 54 63 100 226 401 374 320 463 351 277 279 301 418 385 311 126 146 183 198 227 233 192
84 52 123 58 -1 -7 45 38 19 -7 -16 17 17 -3 -1 -4 0 -13 8 29 28 35 62 90 103 168 201 289 314 459 422 314 281 293 401 449 422 396 145 180 227 246 223 216
41 12 45 39 8 -7 -18 -10 14 -29 15 53 -4 28 56 40 22 41 43 38 49 74 119 166 215 222 190 223 320 353 504 494 404 299 308 458 502 540 558 409 338 299 253 214
44 14 33 51 -2 -25 -10 -8 -55 -29 81 21 47 75 69 27 43 41 50 77 105 124 179 222 245 284 293 253 272 267 305 396 439 505 390 404 321 442 502 545 512 484 483 482
37 8 5 26 -52 -73 3 10 0 131 175 150 99 58 25 26 35 64 89 125 147 163 157 180 222 270 290 290 258 290 307 249 355 373 410 493 491 432 587 569 567 492 465 383
45 32 6 -21 6 -18 17 48 27 53 115 60 20 -14 -10 50 58 59 99 120 146 174 201 222 223 244 270 268 258 244 243 245 289 381 380 332 484 304 553 670 476 453 433 460
54 21 11 50 30 35 14 16 27 39 71 71 47 -7 27 26 21 38 82 94 112 133 158 160 155 162 197 206 239 215 233 236 257 283 311 350 369 357 343 336 608 542 369 366
93 42 27 29 26 23 23 36 54 66 61 42 -2 11 13 32 36 44 86 77 74 79 79 97 72 56 87 136 142 127 175 238 311 354 329 316 301 292 311 270 166 237 208 259
13 20 0 43 18 16 31 31 46 55 59 48 30 -1 -9 4 -10 28 81 65 60 50 54 59 63 46 92 133 92 100 141 165 230 255 193 133 128 185 225 205 199 131 76 103
38 75 47 70 74 39 51 76 46 54 23 21 30 16 -5 -12 -10 6 30 26 22 24 48 55 37 52 63 76 62 99 116 175 100 56 50 79 84 92 100 102 121 132 147 117
34 90 93 123 76 46 67 55 29 26 24 22 31 30 43 13 8 2 5 11 17 11 24 57 49 56 65 65 46 48 74 38 30 21 20 35 38 23 29 37 43 58 53 85
15 61 76 114 71 63 111 82 58 39 20 20 15 0 -3 2 2 -10 -7 4 2 1 2 9 18 26 49 52 32 35 22 22 11 10 21 16 1 4 14 33 42 42 44 31
34 23 30 37 52 82 82 75 68 48 45 29 8 -7 5 14 -2 -3 -5 -4 -1 6 6 -5 -6 14 25 32 21 10 4 -9 3 17 21 9 7 8 10 -4 -4 3 23 16
26 42 28 38 36 46 62 50 45 58 57 50 27 18 21 24 13 0 4 0 -5 -7 -9 -5 -2 1 11 10 16 27 15 -5 -16 -15 -9 -9 -15 -13 -26 -25 -5 -14 14 30
16 24 45 39 8 36 37 40 35 37 32 29 33 32 18 12 12 16 16 -5 -8 -5 -8 -6 -10 -14 -15 -14 -6 2 -1 -9 -21 -16 -14 -11 -12 -15 -20 -29 -29 36 61 90

GFSCGP_con_3kmhel_114.txt.gz
Helicity
125 145 123 125 158 191 220 166 124 127 118 94 55 74 68 62 49 42 39 53 84 128 166 159 165 122 154 189 184 206 184 176 177 168 162 154 153 159 114 136 121 127 155 122
192 136 125 184 164 144 121 116 96 120 47 45 79 19 74 45 81 78 100 146 137 113 103 110 130 147 154 186 242 265 257 265 249 227 201 151 158 139 147 164 164 171 156 139
137 206 238 139 118 113 76 105 131 112 140 70 30 13 32 -4 87 175 167 137 97 76 87 127 145 128 154 181 210 267 305 321 297 254 247 263 163 159 167 211 214 196 165 167
178 156 174 128 116 116 134 154 85 92 107 113 183 31 121 89 192 131 137 130 150 186 197 155 152 150 128 160 164 191 250 276 266 226 213 212 208 190 209 187 217 185 170 196
214 152 123 108 91 117 110 146 94 102 110 111 91 121 72 60 180 322 131 138 152 124 118 117 127 83 145 151 117 95 124 139 153 206 208 194 217 187 145 159 121 128 175 209
161 146 116 108 112 88 119 89 61 51 81 123 50 143 79 219 312 123 127 113 93 100 80 67 76 75 93 112 104 90 87 97 96 55 85 158 216 181 133 135 137 148 181 246
94 74 126 124 108 104 84 92 104 94 71 39 207 146 75 211 147 136 112 60 44 52 59 53 55 89 51 49 74 86 121 106 100 106 23 69 137 143 87 106 127 110 190 241
155 134 86 101 95 196 139 162 177 127 118 148 186 118 165 245 147 83 46 35 37 29 36 41 29 18 52 71 82 49 74 107 126 142 49 61 53 92 83 76 92 108 191 198
164 121 141 149 188 181 162 123 99 113 123 124 142 108 99 119 97 68 47 49 50 80 72 34 -6 -11 24 50 85 29 33 38 76 123 136 72 51 94 83 63 87 132 146 164
168 147 96 154 140 121 114 171 167 147 158 94 100 99 192 135 69 39 37 54 47 25 24 21 6 -18 26 72 121 125 46 96 124 148 109 72 73 115 67 79 117 119 96 79
132 122 141 130 116 122 126 94 92 139 125 194 222 126 60 60 11 20 6 10 1 2 8 15 54 25 84 121 201 256 155 189 200 203 179 199 186 117 46 90 125 82 94 85
144 128 106 97 77 30 11 13 18 63 54 36 41 -18 74 44 -4 0 13 -1 -7 -17 2 60 93 84 155 173 271 387 472 319 268 284 244 332 352 363 121 97 116 95 99 148
111 105 152 110 19 27 39 10 10 10 -18 -58 -19 -8 3 -4 0 -17 9 14 15 24 49 59 126 137 187 225 176 369 549 396 277 344 372 385 538 436 412 263 176 170 166 193
84 20 24 41 139 41 16 30 30 -4 -38 -6 20 51 2 -8 -11 11 49 33 42 58 84 95 105 153 160 156 165 329 470 498 335 408 528 404 425 465 469 485 500 498 461 367
6 -33 -19 -17 -2 -1 -8 -3 -10 -24 -10 33 26 80 30 -3 -14 20 38 65 93 131 166 195 225 240 244 199 228 247 301 431 505 355 466 555 413 451 535 612 578 569 600 588
2 -4 7 15 -26 -23 28 -33 -47 -58 -64 81 92 85 -6 -34 -6 52 68 93 126 153 171 215 238 228 254 258 261 287 254 316 374 439 385 488 503 440 596 702 736 751 681 679
9 19 47 26 17 1 -33 -28 -26 14 70 46 41 19 -27 29 64 65 77 91 114 138 144 135 153 169 191 196 204 229 237 222 267 370 341 361 505 444 553 523 849 891 796 694
22 41 32 16 -22 2 -22 -18 1 31 48 30 58 -12 31 50 42 52 62 85 92 102 119 118 106 109 113 82 101 77 145 226 250 248 259 283 295 347 223 469 431 630 505 637
28 -20 0 -19 -2 -7 -25 -9 -5 20 19 35 1 -23 -18 -4 17 50 71 68 65 67 61 62 41 37 50 85 74 70 110 138 237 323 244 230 200 192 192 255 285 320 385 462
-17 -1 0 -7 20 11 31 15 20 30 15 -6 -1 -13 1 9 14 17 46 50 48 49 42 45 26 7 33 56 48 85 117 141 169 133 104 113 127 135 171 175 117 122 141 189
36 23 12 0 17 7 39 35 24 35 36 13 6 12 11 4 28 4 15 27 29 38 55 41 45 48 44 30 13 41 73 113 31 13 31 43 53 65 61 35 58 60 87 99
46 39 45 52 38 3 70 63 39 26 48 37 30 21 45 29 18 11 1 6 16 25 42 56 41 40 36 44 32 35 51 20 -1 -1 13 34 40 35 30 29 30 48 36 29
32 62 102 127 98 64 127 100 55 44 42 38 34 11 15 14 11 3 -4 -2 -2 5 11 12 15 21 37 36 32 23 13 13 -7 -13 -1 -4 1 15 17 31 38 40 43 31
28 20 51 38 41 72 105 112 95 67 54 41 32 22 17 27 20 14 -2 -2 0 7 4 0 1 11 17 25 24 10 1 -10 -10 -15 -26 -30 -23 -11 4 -10 -10 3 19 12
34 7 32 66 70 96 109 87 70 75 74 58 47 33 29 25 14 5 4 1 -1 1 3 2 1 5 10 6 4 0 2 -7 -11 -8 -13 -14 -20 -20 -33 -36 -49 -47 -24 -5
8 33 31 32 22 76 61 57 59 65 61 52 46 43 35 16 9 10 10 0 5 10 7 10 9 0 -1 -4 -1 3 -1 -5 -11 -16 -17 -15 -19 -23 -24 -28 -21 30 23 45

GFSCGP_con_3kmhel_117.txt.gz
Helicity
86 89 101 59 80 102 150 145 120 137 85 113 153 130 88 65 58 59 53 38 35 189 294 244 189 154 158 139 144 163 210 177 197 264 231 176 150 136 141 138 141 142 136 135
108 162 70 86 146 215 165 124 114 111 61 167 138 113 81 48 30 44 142 161 368 286 151 147 123 114 128 139 158 161 178 194 209 252 315 323 264 144 152 152 141 156 148 174
118 93 111 200 194 147 94 111 125 150 223 150 111 51 20 23 105 128 341 351 230 205 140 89 101 118 119 132 129 135 179 197 197 218 244 316 354 321 270 215 182 175 173 205
126 77 149 136 115 109 134 79 184 238 121 148 149 177 124 40 13 228 257 380 208 130 145 124 101 114 119 96 107 96 157 196 194 196 201 238 309 357 255 231 197 213 198 224
105 144 146 142 113 113 145 146 194 140 157 152 86 113 60 3 76 234 421 241 174 155 141 123 101 97 107 101 118 103 130 175 193 207 200 201 252 308 363 446 198 172 228 201
99 119 201 110 111 139 87 132 79 73 70 101 46 19 66 121 267 344 270 206 149 180 122 92 79 55 85 91 105 117 155 166 186 178 166 138 191 234 291 374 421 226 215 238
64 83 71 127 95 68 74 91 120 120 162 102 19 88 72 129 218 206 155 161 140 86 58 60 55 49 59 87 101 102 148 167 162 166 182 159 107 141 180 210 267 211 209 202
238 208 55 149 57 76 86 115 149 132 154 160 58 183 148 262 182 161 115 71 64 45 46 48 47 41 35 43 46 71 122 111 96 117 147 149 146 107 120 134 149 298 141 165
240 146 152 198 101 126 101 137 102 157 118 119 93 47 105 262 223 121 72 51 44 54 44 42 52 47 19 9 8 34 117 133 123 90 65 106 161 169 135 114 130 90 132 152
164 169 108 153 170 101 108 116 177 137 121 78 64 26 227 277 160 80 33 35 36 32 31 36 33 16 4 3 33 63 102 137 150 96 89 67 100 121 114 136 75 82 99 92
105 152 151 228 123 44 103 88 98 110 134 143 123 122 109 107 38 8 60 61 17 16 5 -13 4 18 13 8 47 64 136 167 194 178 147 150 60 67 72 91 46 74 76 110
75 179 131 79 72 102 51 32 75 104 70 39 -5 49 67 16 25 17 33 26 12 11 15 6 29 52 71 73 61 130 210 297 292 208 262 144 120 175 149 184 54 52 72 89
150 87 85 56 72 29 19 12 -8 36 6 -48 39 32 77 22 13 22 74 27 31 29 62 87 108 132 140 131 122 175 281 440 374 263 372 230 273 364 387 380 387 363 196 154
184 99 98 15 169 45 67 49 23 15 1 -31 -13 33 19 -19 48 94 67 59 47 69 95 120 164 170 135 163 180 182 268 364 393 293 502 420 396 382 404 469 571 474 513 520
52 19 -8 -117 -16 21 16 18 30 43 22 22 -4 -74 -22 52 57 52 58 63 72 98 118 152 142 160 175 205 211 142 160 265 334 300 370 649 479 410 369 501 584 631 639 630
50 27 25 -29 -4 16 1 24 68 -30 -33 -17 -36 35 90 96 60 51 55 62 84 98 110 122 132 128 185 182 181 138 128 172 241 293 358 461 475 459 425 435 553 673 749 763
34 34 24 18 54 53 29 94 -36 -5 42 -4 -14 57 52 14 74 57 43 48 60 78 90 105 130 117 125 113 113 102 129 160 185 185 206 238 325 376 454 504 596 689 673 736
26 32 32 46 48 -20 -2 16 -23 29 31 45 38 44 34 42 59 41 37 30 33 62 75 85 95 88 89 90 67 42 75 139 197 204 236 242 245 242 301 329 483 516 655 558
27 13 28 31 11 -18 -70 -15 -10 -28 -12 3 16 28 38 31 21 40 40 42 41 51 66 68 66 58 71 102 80 52 67 70 114 140 138 137 115 150 181 193 224 191 175 268
13 31 -18 -1 10 5 24 23 3 -21 -25 -19 -7 -11 -4 -16 11 11 23 29 24 31 44 49 46 34 52 86 63 94 78 86 122 80 40 19 38 39 42 69 113 127 109 129
36 52 42 3 16 3 72 38 27 -0 11 6 -5 6 -8 1 38 32 12 17 18 19 24 13 9 19 49 70 51 65 70 86 37 14 16 22 21 17 14 28 46 32 29 24
25 42 58 -32 5 1 57 57 21 28 37 22 74 82 112 63 48 29 17 14 9 17 18 16 11 21 30 34 33 38 47 21 -0 -0 -5 10 13 -5 7 8 13 39 41 31
30 84 123 111 91 91 104 131 99 36 54 58 65 59 65 54 33 19 17 12 7 10 7 2 6 2 10 20 21 24 19 7 -2 -0 11 3 -11 11 8 20 35 13 2 -5
27 49 60 31 64 69 94 107 111 90 94 88 70 51 44 45 21 22 16 16 11 8 3 -5 -4 -1 8 16 11 2 -4 -21 -11 -2 -9 -16 -8 -15 -9 -19 -17 -0 19 11
59 11 40 96 46 63 100 105 110 117 100 87 68 47 43 44 32 24 15 9 7 2 -0 -1 -1 3 8 2 2 -3 -1 -6 -27 -28 -34 -41 -39 -47 -53 -25 -67 -84 -75 -55
11 55 29 47 65 77 80 74 92 90 71 65 66 61 44 40 32 27 15 6 5 7 6 11 11 7 5 5 1 -0 -5 -16 -20 -29 -34 -32 -34 -32 -28 -29 -23 23 6 15

GFSCGP_con_3kmhel_120.txt.gz
Helicity
16 81 126 45 28 35 86 130 155 131 110 119 172 142 83 90 86 45 80 58 94 123 328 303 289 264 237 177 155 147 134 157 146 167 231 300 260 126 136 126 132 127 181 174
57 110 23 26 83 112 135 171 162 121 61 43 102 178 154 66 31 16 18 95 357 344 375 376 311 270 146 112 115 120 112 110 106 148 192 231 262 297 302 135 126 131 180 191
80 80 10 101 85 116 104 128 90 84 99 80 141 145 96 28 15 29 268 388 401 425 416 320 265 174 116 115 99 112 124 126 128 142 128 143 175 210 239 254 260 178 151 188
91 41 56 62 120 125 128 56 108 174 251 193 139 213 136 67 63 52 454 382 489 431 347 216 150 105 85 106 109 116 121 114 95 133 149 177 156 203 244 331 295 176 175 176
88 114 120 110 147 100 152 105 227 243 195 147 82 115 107 54 56 275 429 422 484 404 299 214 142 137 131 106 80 86 95 88 121 159 168 157 160 151 189 229 327 360 254 185
50 37 95 197 172 122 129 251 159 97 90 122 69 51 68 121 338 452 419 349 235 211 164 136 139 130 110 70 45 36 55 71 93 118 154 163 149 150 158 176 190 245 407 332
53 43 53 65 136 79 103 120 132 134 132 128 34 33 212 242 265 276 238 177 105 53 69 118 111 68 56 40 25 11 28 54 69 101 135 145 155 135 130 139 164 170 149 311
133 135 92 84 143 149 108 81 176 116 86 79 136 222 80 203 375 206 135 102 118 133 67 50 62 34 17 13 17 15 26 39 61 102 143 146 135 110 115 96 99 113 170 128
162 118 133 185 198 205 135 155 76 122 168 166 132 38 294 494 413 236 166 127 71 40 31 21 22 9 10 6 -4 12 36 38 75 113 127 145 118 94 88 90 103 89 74 132
317 181 119 100 50 136 169 116 192 250 184 107 67 37 179 238 232 192 127 40 31 39 32 24 23 34 13 9 17 13 9 37 86 145 131 136 136 127 104 74 58 77 77 75
208 207 118 115 158 131 111 112 112 94 138 151 83 125 45 102 60 56 22 13 3 40 18 19 18 43 45 67 63 26 29 72 120 153 157 189 142 107 76 60 46 98 94 57
149 236 171 104 71 33 38 65 58 184 106 78 104 99 142 62 56 32 16 12 63 46 38 26 40 86 112 143 99 56 85 115 175 182 115 125 134 147 172 195 171 169 84 61
164 175 144 91 28 33 59 17 12 32 69 10 41 50 65 36 42 33 -10 47 62 69 53 62 89 107 125 172 145 47 107 147 181 212 214 295 247 235 283 271 316 348 390 298
215 209 181 98 131 133 145 22 22 16 47 7 36 65 55 57 40 -19 51 105 81 38 48 74 97 95 148 170 148 77 105 175 189 188 207 382 469 355 275 312 401 400 370 466
163 112 85 37 21 39 41 37 24 47 20 42 39 54 62 -7 2 78 98 83 53 53 47 68 101 85 137 144 180 113 96 167 182 191 262 292 509 448 364 424 434 478 535 525
94 71 75 12 1 -8 7 43 40 51 76 71 56 -25 90 126 109 80 67 39 43 58 59 68 68 75 142 122 148 119 110 132 124 141 105 178 244 410 572 437 516 580 625 702
64 77 56 10 31 43 32 73 133 106 36 9 -24 33 142 97 72 61 43 32 35 58 66 66 78 78 107 76 83 59 61 105 172 190 194 160 162 227 535 456 452 552 480 442
85 81 38 -4 27 56 100 78 58 4 53 106 123 92 86 81 69 51 31 20 24 39 44 52 78 70 70 73 53 42 44 66 63 82 108 127 109 118 180 244 334 251 471 389
89 54 33 42 22 59 81 24 31 13 37 44 87 85 89 82 53 45 16 16 15 18 38 54 64 45 47 67 67 53 74 76 82 78 59 57 57 65 74 77 147 169 84 192
79 29 3 5 -4 1 38 40 24 -11 -29 61 77 64 69 42 2 28 23 17 14 26 41 42 51 48 72 90 57 73 87 89 102 80 43 9 14 27 49 68 61 14 0 -10
106 64 31 12 25 22 34 65 45 -34 4 60 74 66 45 22 48 61 27 13 9 14 24 26 30 41 59 66 49 57 52 76 32 0 17 41 27 18 -8 -23 -5 2 13 4
94 92 64 43 52 31 122 79 13 39 73 133 183 181 197 129 95 54 23 11 3 7 4 10 9 18 27 27 25 29 39 -1 -17 -12 -5 3 10 15 31 40 44 32 1 -7
79 100 78 104 134 103 98 115 107 84 146 115 137 116 153 112 66 34 24 18 7 -1 -12 -4 -22 -9 12 14 13 18 11 -14 -19 -23 -18 -14 -15 -21 -15 10 23 30 36 30
91 80 66 34 70 89 127 138 120 144 134 108 93 88 84 94 60 39 29 21 15 8 -2 -6 -12 -17 -4 -3 -2 4 -7 -15 -34 -24 -34 -40 -41 -28 -45 -55 -69 -62 -37 -36
90 42 110 122 96 93 102 148 166 179 152 114 86 72 69 68 52 44 33 14 6 1 -9 -8 -7 -4 -5 -7 -15 -20 -13 -15 -29 -38 -36 -47 -48 -56 -54 -76 -107 -133 -102 -90
59 82 62 50 72 47 110 145 141 134 103 77 74 67 60 53 51 40 27 12 20 18 15 15 11 6 3 -2 -4 -11 -14 -15 -27 -31 -32 -34 -39 -42 -47 -59 -75 -20 -11 15

GFSCGP_con_3kmhel_123.txt.gz
Helicity
99 189 155 39 20 90 167 198 153 115 93 84 85 103 94 46 101 109 115 78 201 418 521 584 566 443 366 321 259 236 172 109 22 -52 -88 -25 -37 39 116 178 232 100 138 140
103 122 72 102 52 76 141 160 131 85 89 101 120 112 71 112 114 65 31 245 473 613 552 493 538 469 317 263 195 174 134 99 60 40 -4 -23 1 -10 45 119 189 225 139 144
99 84 71 68 66 97 139 142 110 95 97 126 191 171 175 133 125 113 317 460 552 601 667 543 395 304 208 149 112 92 92 54 15 40 16 -4 -10 8 5 24 104 228 294 181
110 22 26 47 87 127 154 147 181 191 198 153 233 243 130 74 100 286 375 447 494 440 379 252 195 133 61 38 13 27 4 31 64 68 34 58 30 5 44 45 24 116 224 317
108 98 126 130 139 141 173 172 236 230 271 274 136 222 140 102 195 308 416 425 353 213 184 135 64 13 2 2 -4 19 52 70 63 44 38 19 43 47 11 38 58 10 90 202
22 -2 60 106 175 175 245 241 223 181 189 257 144 154 187 146 278 403 347 255 198 149 151 119 96 47 38 59 83 90 75 50 41 35 32 54 56 59 37 36 63 51 -6 30
100 61 43 34 165 178 166 194 199 178 224 208 100 119 123 252 346 288 153 128 94 44 0 -20 8 28 40 41 49 29 42 40 24 32 64 64 65 59 41 31 37 85 67 34
131 155 149 149 160 230 244 249 263 280 309 156 54 152 288 433 410 330 215 149 129 100 52 31 -11 -1 19 58 58 50 17 11 38 50 43 48 80 67 55 43 28 48 71 67
148 182 202 184 200 279 304 282 210 292 174 170 182 284 392 391 277 216 181 119 70 2 -25 14 9 33 32 73 95 71 36 43 67 60 40 88 97 99 71 72 52 42 31 30
235 236 169 165 177 147 244 220 259 290 266 188 200 191 184 156 166 144 68 39 26 -11 -18 17 47 63 107 137 122 47 47 49 67 86 93 121 131 127 98 98 88 43 35 27
315 242 231 228 222 170 192 260 231 196 225 219 230 182 82 68 80 80 101 65 11 -11 8 22 43 97 109 110 105 55 79 86 89 93 83 70 89 84 74 85 86 80 52 48
304 279 226 160 125 75 144 147 149 266 218 181 142 119 183 70 58 90 51 26 42 29 -2 16 47 43 100 123 150 87 100 105 111 102 116 107 116 131 96 99 140 187 237 231
324 262 219 144 85 139 211 211 242 161 119 178 174 132 115 81 99 95 44 46 37 33 40 50 46 79 136 127 161 69 96 108 107 94 100 153 235 233 236 211 234 246 307 359
320 304 236 186 174 161 121 119 118 49 104 153 156 149 134 114 97 57 46 17 57 64 53 36 65 74 116 109 124 72 110 118 105 85 95 179 278 366 356 313 303 323 390 437
253 239 224 163 91 73 60 49 52 99 19 106 116 125 153 173 120 37 59 85 72 64 74 80 60 55 92 74 75 65 124 139 137 67 75 107 203 296 495 340 359 440 469 480
224 194 182 98 48 59 67 35 -46 36 72 149 172 157 236 206 147 103 75 53 50 62 68 67 56 62 67 70 87 87 122 121 102 94 53 111 150 211 290 446 273 283 426 524
181 170 144 41 77 74 42 104 70 78 129 170 159 179 234 145 115 81 48 45 51 59 74 73 45 50 84 92 91 107 116 95 60 59 77 68 63 72 82 124 263 362 255 482
132 144 127 60 105 95 45 46 50 104 202 278 228 170 153 116 96 71 52 40 48 60 59 19 39 64 80 86 72 66 79 94 103 79 76 79 52 -1 -15 -15 22 29 20 30
181 137 97 70 80 36 31 48 89 72 52 138 152 165 114 103 102 64 43 50 43 7 -14 18 41 67 75 77 82 76 83 88 107 124 99 77 72 74 66 43 14 -19 -22 -23
173 141 127 65 72 76 13 22 36 64 -27 160 227 141 107 76 34 23 35 26 -4 2 22 35 57 64 57 87 79 58 80 76 96 65 48 10 15 33 28 17 26 29 15 -10
168 147 69 47 60 17 67 61 76 15 -23 197 178 135 91 25 24 104 54 18 0 -6 3 13 41 33 51 74 60 63 50 76 46 -11 -4 13 27 31 0 2 11 -2 9 40
172 142 110 83 75 41 224 137 67 29 92 151 137 109 102 113 111 100 36 8 -7 -9 -5 -3 21 34 52 53 38 44 61 22 -6 -16 -36 -28 -20 2 17 21 33 35 15 17
143 106 117 90 69 98 153 111 89 101 150 159 230 189 214 146 92 51 24 11 -4 -6 -14 -31 -6 6 2 22 41 39 36 -19 -24 -11 -12 -33 -39 -35 -23 -19 -3 -4 -5 -8
121 134 122 131 103 120 171 166 180 187 195 184 203 210 155 148 72 35 28 9 5 3 -9 -20 -17 3 21 7 9 16 26 8 -23 -3 -3 -9 -33 -43 -61 -73 -70 -71 -63 -60
100 118 146 135 143 139 125 187 233 248 211 171 152 136 137 136 83 66 56 27 1 -21 -23 -6 -6 2 9 16 4 2 13 17 4 -38 -29 -44 -48 -63 -91 -110 -123 -119 -87 -81
95 101 106 57 79 97 93 198 210 179 155 130 157 133 107 113 93 74 27 -2 -12 -19 20 34 31 23 12 11 33 30 6 3 -2 -9 -25 -25 -27 -38 -52 -64 -74 -31 3 29

GFSCGP_con_3kmhel_126.txt.gz
Helicity
111 180 107 121 151 172 176 178 170 137 91 150 74 60 -10 19 122 157 234 381 433 467 395 409 411 401 452 350 318 336 298 233 136 86 41 -53 -129 -149 -97 -46 -30 -20 55 110
154 138 104 182 181 173 155 147 137 127 101 127 115 69 -18 15 88 207 332 394 408 433 383 327 345 391 307 244 249 246 261 211 134 48 55 23 -9 -86 -87 -61 -33 -2 10 67
155 98 96 117 125 147 112 140 130 162 107 89 113 103 139 198 178 261 324 318 367 346 339 292 241 212 245 276 224 152 101 95 61 54 -22 -30 -2 -66 -136 -108 -65 -27 33 59
158 61 72 44 110 101 123 111 175 175 134 109 223 141 119 168 237 335 332 323 290 259 237 199 148 138 94 102 88 50 21 7 2 35 17 2 -36 -58 -62 -110 -47 -27 -8 -3
116 106 157 155 100 125 163 168 187 170 157 139 195 216 186 108 277 331 271 219 156 112 107 127 112 78 26 5 -38 -56 -55 -30 -2 28 64 63 58 33 1 -42 -43 -5 -6 2
64 82 74 64 46 115 147 193 177 153 159 229 142 170 187 239 233 201 180 156 116 68 45 52 53 41 23 44 51 48 63 86 87 97 86 74 46 19 -5 -16 -37 -54 -18 -1
147 106 65 94 115 126 226 245 204 216 256 199 211 194 249 258 272 266 204 133 72 44 13 -9 -31 -37 -24 -6 32 43 85 93 93 83 87 95 72 40 6 -9 -35 -53 -34 16
179 176 124 122 140 117 193 229 239 205 218 193 146 243 244 321 332 272 193 142 92 -2 -40 -41 -29 -23 19 60 74 90 116 87 92 80 73 74 77 68 43 6 1 -1 -14 10
128 128 127 110 100 151 216 277 213 247 253 223 233 303 265 305 282 175 112 70 27 12 6 -5 -2 6 44 65 87 67 87 93 85 79 69 88 92 93 78 92 69 55 46 33
121 140 137 170 174 137 165 177 273 308 272 234 251 272 245 185 131 109 134 94 55 24 13 0 14 19 51 68 97 81 70 63 68 89 94 80 96 88 102 89 101 85 57 56
206 213 205 212 189 160 187 209 238 226 330 312 281 248 175 124 98 130 138 99 30 30 19 34 43 27 39 30 75 37 65 62 53 67 107 97 75 89 71 30 65 76 80 100
247 224 193 151 203 138 170 184 225 299 294 318 266 220 229 209 164 135 124 107 68 50 38 45 10 3 8 25 71 79 101 73 59 58 103 142 122 108 75 86 87 85 71 94
314 250 235 216 199 215 211 209 231 244 275 272 260 258 210 284 212 162 139 103 53 69 67 29 11 19 39 69 91 93 99 64 49 37 88 178 197 146 157 174 197 209 202 196
324 299 276 208 167 170 203 168 100 157 242 207 201 163 191 209 176 152 128 108 83 55 42 24 36 45 48 65 52 65 53 34 50 -2 64 112 219 211 196 253 258 268 320 343
249 196 225 187 166 175 163 108 42 47 128 170 87 96 166 235 230 162 112 115 100 52 42 61 62 58 57 43 55 85 72 45 54 29 13 46 69 106 160 280 367 396 359 388
259 172 171 143 108 107 81 44 51 87 43 21 77 145 265 358 295 160 120 133 69 60 59 61 69 75 39 39 59 72 76 65 -2 10 -15 50 86 94 61 90 147 229 224 340
197 207 185 114 101 112 77 83 108 109 76 66 127 201 342 300 204 138 104 95 62 52 57 75 49 12 30 42 54 85 102 74 75 77 91 69 53 30 -8 -24 -24 14 77 97
223 229 188 143 121 113 58 35 43 61 52 139 191 241 244 222 191 137 93 59 63 56 65 18 21 35 52 57 63 73 70 80 93 110 110 86 66 55 68 59 57 58 35 26
240 237 205 142 86 55 18 46 65 67 23 159 229 241 233 215 162 83 62 72 61 45 -14 -2 25 31 52 53 72 38 44 65 98 133 110 83 68 59 69 77 55 44 46 66
259 185 193 132 80 72 35 14 49 61 28 180 213 222 171 125 50 20 52 60 35 -33 -6 28 40 47 50 67 64 38 52 53 64 51 11 3 10 12 16 -3 1 -4 -5 9
210 194 148 115 116 49 27 59 61 60 18 141 181 160 134 56 25 100 85 46 -7 -2 17 32 50 59 58 61 56 46 33 42 -1 -37 -26 -5 -1 5 -1 12 18 8 16 28
168 143 137 147 141 37 140 114 68 50 72 142 139 138 152 93 117 140 82 34 15 7 4 27 55 71 81 79 48 18 21 -7 -29 -32 -15 -5 -3 -5 2 10 25 32 16 19
119 207 124 110 81 107 135 85 95 78 117 125 181 174 205 130 107 99 59 32 8 5 2 39 32 52 77 66 45 33 24 -1 -14 3 13 -6 -17 -5 -15 6 27 37 38 27
147 81 106 128 95 100 109 156 133 121 173 193 177 229 187 132 109 92 65 41 15 8 -3 26 50 55 65 84 59 38 30 7 4 24 37 30 4 -10 -25 -61 -41 -8 19 14
98 128 133 113 96 135 130 156 169 215 230 261 249 219 185 187 119 94 66 40 25 23 13 29 39 47 44 53 74 64 29 23 15 16 12 3 -4 -14 -30 -53 -79 -89 -59 -38
113 143 156 87 54 103 64 186 198 204 198 210 256 232 168 170 153 110 71 45 40 64 73 59 61 49 33 44 58 60 23 16 11 19 12 2 -11 -27 -42 -56 -46 12 39 28